<?xml version="1.0" encoding="UTF-8" standalone="no" ?>
<gpx xmlns="http://www.topografix.com/GPX/1/1" xmlns:xsi="http://www.w3.org/2001/XMLSchema-instance" xsi:schemaLocation="http://www.topografix.com/GPX/1/1 http://www.topografix.com/GPX/1/1/gpx.xsd" version="1.1" creator="VisuGPX - https://www.visugpx.com">
  <metadata>
    <name>coteaux vigoulet</name>
    <desc><![CDATA[circuit avec retour par les coteaux entre venerque et ramonville]]></desc>
  </metadata>
  <trk>
    <name><![CDATA[Circuit coteaux]]></name>
    <trkseg>
      <trkpt lat="43.58446" lon="1.44797">
        <ele>135.2</ele>
        <time>2016-12-14T14:20:15Z</time>
      </trkpt>
      <trkpt lat="43.58448" lon="1.44782">
        <ele>135.2</ele>
        <time>2016-12-14T14:20:36Z</time>
      </trkpt>
      <trkpt lat="43.58441" lon="1.44725">
        <ele>135.2</ele>
        <time>2016-12-14T14:20:47Z</time>
      </trkpt>
      <trkpt lat="43.58432" lon="1.4465">
        <ele>135.2</ele>
        <time>2016-12-14T14:20:58Z</time>
      </trkpt>
      <trkpt lat="43.58416" lon="1.44548">
        <ele>135.2</ele>
        <time>2016-12-14T14:21:11Z</time>
      </trkpt>
      <trkpt lat="43.5841" lon="1.44526">
        <ele>135.2</ele>
        <time>2016-12-14T14:21:14Z</time>
      </trkpt>
      <trkpt lat="43.58399" lon="1.44438">
        <ele>135.2</ele>
        <time>2016-12-14T14:21:25Z</time>
      </trkpt>
      <trkpt lat="43.58397" lon="1.44414">
        <ele>135.2</ele>
        <time>2016-12-14T14:21:28Z</time>
      </trkpt>
      <trkpt lat="43.58399" lon="1.44287">
        <ele>135.2</ele>
        <time>2016-12-14T14:21:43Z</time>
      </trkpt>
      <trkpt lat="43.58411" lon="1.44126">
        <ele>133.76</ele>
        <time>2016-12-14T14:22:02Z</time>
      </trkpt>
      <trkpt lat="43.58413" lon="1.44077">
        <ele>133.76</ele>
        <time>2016-12-14T14:22:08Z</time>
      </trkpt>
      <trkpt lat="43.58416" lon="1.4406">
        <ele>133.76</ele>
        <time>2016-12-14T14:22:10Z</time>
      </trkpt>
      <trkpt lat="43.58416" lon="1.44053">
        <ele>133.76</ele>
        <time>2016-12-14T14:22:11Z</time>
      </trkpt>
      <trkpt lat="43.58418" lon="1.43958">
        <ele>135.2</ele>
        <time>2016-12-14T14:22:23Z</time>
      </trkpt>
      <trkpt lat="43.5842" lon="1.43925">
        <ele>135.2</ele>
        <time>2016-12-14T14:22:28Z</time>
      </trkpt>
      <trkpt lat="43.58423" lon="1.43838">
        <ele>136.16</ele>
        <time>2016-12-14T14:22:41Z</time>
      </trkpt>
      <trkpt lat="43.5843" lon="1.43705">
        <ele>135.2</ele>
        <time>2016-12-14T14:22:58Z</time>
      </trkpt>
      <trkpt lat="43.5843" lon="1.43689">
        <ele>135.2</ele>
        <time>2016-12-14T14:23:00Z</time>
      </trkpt>
      <trkpt lat="43.5843" lon="1.43682">
        <ele>135.2</ele>
        <time>2016-12-14T14:23:01Z</time>
      </trkpt>
      <trkpt lat="43.5843" lon="1.43674">
        <ele>135.2</ele>
        <time>2016-12-14T14:23:02Z</time>
      </trkpt>
      <trkpt lat="43.58433" lon="1.43629">
        <ele>135.2</ele>
        <time>2016-12-14T14:23:08Z</time>
      </trkpt>
      <trkpt lat="43.58438" lon="1.43479">
        <ele>135.2</ele>
        <time>2016-12-14T14:23:26Z</time>
      </trkpt>
      <trkpt lat="43.58448" lon="1.43305">
        <ele>133.76</ele>
        <time>2016-12-14T14:23:46Z</time>
      </trkpt>
      <trkpt lat="43.58454" lon="1.43177">
        <ele>133.76</ele>
        <time>2016-12-14T14:24:00Z</time>
      </trkpt>
      <trkpt lat="43.58455" lon="1.43168">
        <ele>133.76</ele>
        <time>2016-12-14T14:24:01Z</time>
      </trkpt>
      <trkpt lat="43.58455" lon="1.4316">
        <ele>133.76</ele>
        <time>2016-12-14T14:24:02Z</time>
      </trkpt>
      <trkpt lat="43.58456" lon="1.43151">
        <ele>133.76</ele>
        <time>2016-12-14T14:24:03Z</time>
      </trkpt>
      <trkpt lat="43.58455" lon="1.43143">
        <ele>133.76</ele>
        <time>2016-12-14T14:24:04Z</time>
      </trkpt>
      <trkpt lat="43.58455" lon="1.43134">
        <ele>133.76</ele>
        <time>2016-12-14T14:24:05Z</time>
      </trkpt>
      <trkpt lat="43.58456" lon="1.43126">
        <ele>133.76</ele>
        <time>2016-12-14T14:24:06Z</time>
      </trkpt>
      <trkpt lat="43.58457" lon="1.43118">
        <ele>133.76</ele>
        <time>2016-12-14T14:24:07Z</time>
      </trkpt>
      <trkpt lat="43.5847" lon="1.43047">
        <ele>133.76</ele>
        <time>2016-12-14T14:24:16Z</time>
      </trkpt>
      <trkpt lat="43.58472" lon="1.43041">
        <ele>133.76</ele>
        <time>2016-12-14T14:24:17Z</time>
      </trkpt>
      <trkpt lat="43.58473" lon="1.43034">
        <ele>133.76</ele>
        <time>2016-12-14T14:24:18Z</time>
      </trkpt>
      <trkpt lat="43.58474" lon="1.43027">
        <ele>133.76</ele>
        <time>2016-12-14T14:24:19Z</time>
      </trkpt>
      <trkpt lat="43.58475" lon="1.43019">
        <ele>132.8</ele>
        <time>2016-12-14T14:24:20Z</time>
      </trkpt>
      <trkpt lat="43.58499" lon="1.42896">
        <ele>132.8</ele>
        <time>2016-12-14T14:24:35Z</time>
      </trkpt>
      <trkpt lat="43.58502" lon="1.42889">
        <ele>132.8</ele>
        <time>2016-12-14T14:24:36Z</time>
      </trkpt>
      <trkpt lat="43.58505" lon="1.42881">
        <ele>132.8</ele>
        <time>2016-12-14T14:24:37Z</time>
      </trkpt>
      <trkpt lat="43.58515" lon="1.42863">
        <ele>132.8</ele>
        <time>2016-12-14T14:24:40Z</time>
      </trkpt>
      <trkpt lat="43.58517" lon="1.42858">
        <ele>132.8</ele>
        <time>2016-12-14T14:24:41Z</time>
      </trkpt>
      <trkpt lat="43.5852" lon="1.42854">
        <ele>132.8</ele>
        <time>2016-12-14T14:24:42Z</time>
      </trkpt>
      <trkpt lat="43.58547" lon="1.4282">
        <ele>130.88</ele>
        <time>2016-12-14T14:24:53Z</time>
      </trkpt>
      <trkpt lat="43.58557" lon="1.42808">
        <ele>130.88</ele>
        <time>2016-12-14T14:24:57Z</time>
      </trkpt>
      <trkpt lat="43.58559" lon="1.42808">
        <ele>130.88</ele>
        <time>2016-12-14T14:24:58Z</time>
      </trkpt>
      <trkpt lat="43.58563" lon="1.42812">
        <ele>130.88</ele>
        <time>2016-12-14T14:25:01Z</time>
      </trkpt>
      <trkpt lat="43.58564" lon="1.42812">
        <ele>130.88</ele>
        <time>2016-12-14T14:25:02Z</time>
      </trkpt>
      <trkpt lat="43.58566" lon="1.4281">
        <ele>130.88</ele>
        <time>2016-12-14T14:25:03Z</time>
      </trkpt>
      <trkpt lat="43.58568" lon="1.42808">
        <ele>130.88</ele>
        <time>2016-12-14T14:25:04Z</time>
      </trkpt>
      <trkpt lat="43.5857" lon="1.42804">
        <ele>130.88</ele>
        <time>2016-12-14T14:25:05Z</time>
      </trkpt>
      <trkpt lat="43.58572" lon="1.428">
        <ele>130.88</ele>
        <time>2016-12-14T14:25:06Z</time>
      </trkpt>
      <trkpt lat="43.58584" lon="1.42782">
        <ele>130.88</ele>
        <time>2016-12-14T14:25:10Z</time>
      </trkpt>
      <trkpt lat="43.5859" lon="1.42772">
        <ele>130.88</ele>
        <time>2016-12-14T14:25:12Z</time>
      </trkpt>
      <trkpt lat="43.58591" lon="1.42767">
        <ele>130.88</ele>
        <time>2016-12-14T14:25:13Z</time>
      </trkpt>
      <trkpt lat="43.58592" lon="1.42763">
        <ele>130.88</ele>
        <time>2016-12-14T14:25:14Z</time>
      </trkpt>
      <trkpt lat="43.58593" lon="1.42747">
        <ele>130.88</ele>
        <time>2016-12-14T14:25:18Z</time>
      </trkpt>
      <trkpt lat="43.58595" lon="1.42743">
        <ele>130.88</ele>
        <time>2016-12-14T14:25:19Z</time>
      </trkpt>
      <trkpt lat="43.58597" lon="1.42736">
        <ele>130.88</ele>
        <time>2016-12-14T14:25:20Z</time>
      </trkpt>
      <trkpt lat="43.58655" lon="1.42645">
        <ele>130.88</ele>
        <time>2016-12-14T14:25:35Z</time>
      </trkpt>
      <trkpt lat="43.58716" lon="1.42555">
        <ele>129.92</ele>
        <time>2016-12-14T14:25:51Z</time>
      </trkpt>
      <trkpt lat="43.58774" lon="1.42472">
        <ele>129.92</ele>
        <time>2016-12-14T14:26:06Z</time>
      </trkpt>
      <trkpt lat="43.58778" lon="1.42466">
        <ele>129.92</ele>
        <time>2016-12-14T14:26:07Z</time>
      </trkpt>
      <trkpt lat="43.58783" lon="1.42459">
        <ele>129.92</ele>
        <time>2016-12-14T14:26:08Z</time>
      </trkpt>
      <trkpt lat="43.58847" lon="1.42359">
        <ele>128.95</ele>
        <time>2016-12-14T14:26:22Z</time>
      </trkpt>
      <trkpt lat="43.58902" lon="1.42272">
        <ele>127.03</ele>
        <time>2016-12-14T14:26:35Z</time>
      </trkpt>
      <trkpt lat="43.58958" lon="1.42188">
        <ele>128.95</ele>
        <time>2016-12-14T14:26:51Z</time>
      </trkpt>
      <trkpt lat="43.58962" lon="1.42185">
        <ele>128.95</ele>
        <time>2016-12-14T14:26:52Z</time>
      </trkpt>
      <trkpt lat="43.58965" lon="1.42179">
        <ele>128.95</ele>
        <time>2016-12-14T14:26:53Z</time>
      </trkpt>
      <trkpt lat="43.58968" lon="1.42175">
        <ele>128.95</ele>
        <time>2016-12-14T14:26:54Z</time>
      </trkpt>
      <trkpt lat="43.58971" lon="1.42169">
        <ele>128.95</ele>
        <time>2016-12-14T14:26:55Z</time>
      </trkpt>
      <trkpt lat="43.58974" lon="1.42164">
        <ele>128.95</ele>
        <time>2016-12-14T14:26:56Z</time>
      </trkpt>
      <trkpt lat="43.58993" lon="1.42131">
        <ele>129.92</ele>
        <time>2016-12-14T14:27:02Z</time>
      </trkpt>
      <trkpt lat="43.59" lon="1.42119">
        <ele>129.92</ele>
        <time>2016-12-14T14:27:04Z</time>
      </trkpt>
      <trkpt lat="43.59004" lon="1.42114">
        <ele>129.92</ele>
        <time>2016-12-14T14:27:05Z</time>
      </trkpt>
      <trkpt lat="43.59039" lon="1.42062">
        <ele>129.92</ele>
        <time>2016-12-14T14:27:14Z</time>
      </trkpt>
      <trkpt lat="43.59042" lon="1.42057">
        <ele>129.92</ele>
        <time>2016-12-14T14:27:15Z</time>
      </trkpt>
      <trkpt lat="43.59088" lon="1.41984">
        <ele>129.92</ele>
        <time>2016-12-14T14:27:28Z</time>
      </trkpt>
      <trkpt lat="43.59131" lon="1.41925">
        <ele>129.92</ele>
        <time>2016-12-14T14:27:41Z</time>
      </trkpt>
      <trkpt lat="43.5913" lon="1.41929">
        <ele>129.92</ele>
        <time>2016-12-14T14:27:47Z</time>
      </trkpt>
      <trkpt lat="43.59136" lon="1.41923">
        <ele>129.92</ele>
        <time>2016-12-14T14:28:03Z</time>
      </trkpt>
      <trkpt lat="43.59147" lon="1.4191">
        <ele>129.92</ele>
        <time>2016-12-14T14:28:08Z</time>
      </trkpt>
      <trkpt lat="43.59147" lon="1.41908">
        <ele>129.92</ele>
        <time>2016-12-14T14:28:09Z</time>
      </trkpt>
      <trkpt lat="43.59145" lon="1.41903">
        <ele>129.92</ele>
        <time>2016-12-14T14:28:15Z</time>
      </trkpt>
      <trkpt lat="43.5913" lon="1.41887">
        <ele>129.92</ele>
        <time>2016-12-14T14:28:24Z</time>
      </trkpt>
      <trkpt lat="43.59127" lon="1.41883">
        <ele>129.92</ele>
        <time>2016-12-14T14:28:25Z</time>
      </trkpt>
      <trkpt lat="43.59125" lon="1.41878">
        <ele>129.92</ele>
        <time>2016-12-14T14:28:26Z</time>
      </trkpt>
      <trkpt lat="43.59123" lon="1.41872">
        <ele>129.92</ele>
        <time>2016-12-14T14:28:27Z</time>
      </trkpt>
      <trkpt lat="43.591" lon="1.41818">
        <ele>129.92</ele>
        <time>2016-12-14T14:28:36Z</time>
      </trkpt>
      <trkpt lat="43.59069" lon="1.41728">
        <ele>129.92</ele>
        <time>2016-12-14T14:28:48Z</time>
      </trkpt>
      <trkpt lat="43.59026" lon="1.41622">
        <ele>129.92</ele>
        <time>2016-12-14T14:29:02Z</time>
      </trkpt>
      <trkpt lat="43.58998" lon="1.41543">
        <ele>129.92</ele>
        <time>2016-12-14T14:29:15Z</time>
      </trkpt>
      <trkpt lat="43.58985" lon="1.41506">
        <ele>129.92</ele>
        <time>2016-12-14T14:29:25Z</time>
      </trkpt>
      <trkpt lat="43.58982" lon="1.415">
        <ele>129.92</ele>
        <time>2016-12-14T14:29:26Z</time>
      </trkpt>
      <trkpt lat="43.58948" lon="1.41407">
        <ele>129.92</ele>
        <time>2016-12-14T14:29:40Z</time>
      </trkpt>
      <trkpt lat="43.5891" lon="1.41308">
        <ele>129.92</ele>
        <time>2016-12-14T14:29:54Z</time>
      </trkpt>
      <trkpt lat="43.58887" lon="1.41246">
        <ele>129.92</ele>
        <time>2016-12-14T14:30:02Z</time>
      </trkpt>
      <trkpt lat="43.58854" lon="1.41154">
        <ele>129.92</ele>
        <time>2016-12-14T14:30:14Z</time>
      </trkpt>
      <trkpt lat="43.58819" lon="1.41061">
        <ele>129.92</ele>
        <time>2016-12-14T14:30:26Z</time>
      </trkpt>
      <trkpt lat="43.58769" lon="1.40929">
        <ele>129.92</ele>
        <time>2016-12-14T14:30:43Z</time>
      </trkpt>
      <trkpt lat="43.58731" lon="1.40822">
        <ele>129.92</ele>
        <time>2016-12-14T14:30:56Z</time>
      </trkpt>
      <trkpt lat="43.587" lon="1.40732">
        <ele>129.92</ele>
        <time>2016-12-14T14:31:08Z</time>
      </trkpt>
      <trkpt lat="43.58666" lon="1.40643">
        <ele>130.88</ele>
        <time>2016-12-14T14:31:23Z</time>
      </trkpt>
      <trkpt lat="43.5865" lon="1.40602">
        <ele>130.88</ele>
        <time>2016-12-14T14:31:31Z</time>
      </trkpt>
      <trkpt lat="43.58643" lon="1.40582">
        <ele>130.88</ele>
        <time>2016-12-14T14:31:34Z</time>
      </trkpt>
      <trkpt lat="43.58618" lon="1.40508">
        <ele>130.88</ele>
        <time>2016-12-14T14:31:45Z</time>
      </trkpt>
      <trkpt lat="43.58616" lon="1.40498">
        <ele>130.88</ele>
        <time>2016-12-14T14:31:53Z</time>
      </trkpt>
      <trkpt lat="43.58614" lon="1.4049">
        <ele>131.84</ele>
        <time>2016-12-14T14:31:58Z</time>
      </trkpt>
      <trkpt lat="43.58605" lon="1.40462">
        <ele>131.84</ele>
        <time>2016-12-14T14:32:05Z</time>
      </trkpt>
      <trkpt lat="43.58601" lon="1.40458">
        <ele>131.84</ele>
        <time>2016-12-14T14:32:06Z</time>
      </trkpt>
      <trkpt lat="43.58597" lon="1.40456">
        <ele>131.84</ele>
        <time>2016-12-14T14:32:07Z</time>
      </trkpt>
      <trkpt lat="43.58582" lon="1.40457">
        <ele>131.84</ele>
        <time>2016-12-14T14:32:10Z</time>
      </trkpt>
      <trkpt lat="43.58577" lon="1.40459">
        <ele>131.84</ele>
        <time>2016-12-14T14:32:11Z</time>
      </trkpt>
      <trkpt lat="43.58573" lon="1.40463">
        <ele>131.84</ele>
        <time>2016-12-14T14:32:12Z</time>
      </trkpt>
      <trkpt lat="43.5857" lon="1.40469">
        <ele>131.84</ele>
        <time>2016-12-14T14:32:13Z</time>
      </trkpt>
      <trkpt lat="43.58568" lon="1.40475">
        <ele>131.84</ele>
        <time>2016-12-14T14:32:14Z</time>
      </trkpt>
      <trkpt lat="43.58567" lon="1.40478">
        <ele>131.84</ele>
        <time>2016-12-14T14:32:15Z</time>
      </trkpt>
      <trkpt lat="43.58566" lon="1.40486">
        <ele>131.84</ele>
        <time>2016-12-14T14:32:17Z</time>
      </trkpt>
      <trkpt lat="43.58568" lon="1.40502">
        <ele>131.84</ele>
        <time>2016-12-14T14:32:20Z</time>
      </trkpt>
      <trkpt lat="43.58569" lon="1.40508">
        <ele>131.84</ele>
        <time>2016-12-14T14:32:21Z</time>
      </trkpt>
      <trkpt lat="43.58568" lon="1.40514">
        <ele>131.84</ele>
        <time>2016-12-14T14:32:22Z</time>
      </trkpt>
      <trkpt lat="43.58566" lon="1.4052">
        <ele>131.84</ele>
        <time>2016-12-14T14:32:23Z</time>
      </trkpt>
      <trkpt lat="43.58564" lon="1.40525">
        <ele>131.84</ele>
        <time>2016-12-14T14:32:24Z</time>
      </trkpt>
      <trkpt lat="43.5856" lon="1.40529">
        <ele>131.84</ele>
        <time>2016-12-14T14:32:25Z</time>
      </trkpt>
      <trkpt lat="43.58556" lon="1.40531">
        <ele>131.84</ele>
        <time>2016-12-14T14:32:26Z</time>
      </trkpt>
      <trkpt lat="43.58551" lon="1.40531">
        <ele>131.84</ele>
        <time>2016-12-14T14:32:27Z</time>
      </trkpt>
      <trkpt lat="43.58545" lon="1.40529">
        <ele>130.88</ele>
        <time>2016-12-14T14:32:28Z</time>
      </trkpt>
      <trkpt lat="43.5854" lon="1.40527">
        <ele>130.88</ele>
        <time>2016-12-14T14:32:29Z</time>
      </trkpt>
      <trkpt lat="43.58519" lon="1.40521">
        <ele>130.88</ele>
        <time>2016-12-14T14:32:33Z</time>
      </trkpt>
      <trkpt lat="43.58513" lon="1.40521">
        <ele>130.88</ele>
        <time>2016-12-14T14:32:34Z</time>
      </trkpt>
      <trkpt lat="43.58508" lon="1.40521">
        <ele>130.88</ele>
        <time>2016-12-14T14:32:35Z</time>
      </trkpt>
      <trkpt lat="43.58482" lon="1.40529">
        <ele>130.88</ele>
        <time>2016-12-14T14:32:40Z</time>
      </trkpt>
      <trkpt lat="43.58476" lon="1.40532">
        <ele>130.88</ele>
        <time>2016-12-14T14:32:41Z</time>
      </trkpt>
      <trkpt lat="43.58472" lon="1.40537">
        <ele>130.88</ele>
        <time>2016-12-14T14:32:42Z</time>
      </trkpt>
      <trkpt lat="43.58469" lon="1.40542">
        <ele>130.88</ele>
        <time>2016-12-14T14:32:43Z</time>
      </trkpt>
      <trkpt lat="43.58466" lon="1.40547">
        <ele>130.88</ele>
        <time>2016-12-14T14:32:44Z</time>
      </trkpt>
      <trkpt lat="43.58463" lon="1.40552">
        <ele>130.88</ele>
        <time>2016-12-14T14:32:45Z</time>
      </trkpt>
      <trkpt lat="43.58413" lon="1.40617">
        <ele>130.88</ele>
        <time>2016-12-14T14:32:58Z</time>
      </trkpt>
      <trkpt lat="43.58375" lon="1.40657">
        <ele>130.88</ele>
        <time>2016-12-14T14:33:07Z</time>
      </trkpt>
      <trkpt lat="43.58305" lon="1.40708">
        <ele>131.84</ele>
        <time>2016-12-14T14:33:22Z</time>
      </trkpt>
      <trkpt lat="43.58226" lon="1.40755">
        <ele>130.88</ele>
        <time>2016-12-14T14:33:38Z</time>
      </trkpt>
      <trkpt lat="43.58156" lon="1.40802">
        <ele>131.84</ele>
        <time>2016-12-14T14:33:53Z</time>
      </trkpt>
      <trkpt lat="43.58117" lon="1.40832">
        <ele>131.84</ele>
        <time>2016-12-14T14:34:02Z</time>
      </trkpt>
      <trkpt lat="43.58109" lon="1.40837">
        <ele>131.84</ele>
        <time>2016-12-14T14:34:04Z</time>
      </trkpt>
      <trkpt lat="43.58106" lon="1.40841">
        <ele>131.84</ele>
        <time>2016-12-14T14:34:05Z</time>
      </trkpt>
      <trkpt lat="43.58104" lon="1.40847">
        <ele>131.84</ele>
        <time>2016-12-14T14:34:06Z</time>
      </trkpt>
      <trkpt lat="43.5808" lon="1.40935">
        <ele>131.84</ele>
        <time>2016-12-14T14:34:19Z</time>
      </trkpt>
      <trkpt lat="43.58071" lon="1.40965">
        <ele>131.84</ele>
        <time>2016-12-14T14:34:24Z</time>
      </trkpt>
      <trkpt lat="43.5807" lon="1.4097">
        <ele>131.84</ele>
        <time>2016-12-14T14:34:25Z</time>
      </trkpt>
      <trkpt lat="43.58069" lon="1.40976">
        <ele>131.84</ele>
        <time>2016-12-14T14:34:26Z</time>
      </trkpt>
      <trkpt lat="43.58056" lon="1.41022">
        <ele>131.84</ele>
        <time>2016-12-14T14:34:33Z</time>
      </trkpt>
      <trkpt lat="43.58032" lon="1.41119">
        <ele>130.88</ele>
        <time>2016-12-14T14:34:48Z</time>
      </trkpt>
      <trkpt lat="43.5803" lon="1.41124">
        <ele>130.88</ele>
        <time>2016-12-14T14:34:49Z</time>
      </trkpt>
      <trkpt lat="43.58026" lon="1.41136">
        <ele>130.88</ele>
        <time>2016-12-14T14:34:51Z</time>
      </trkpt>
      <trkpt lat="43.58022" lon="1.41148">
        <ele>130.88</ele>
        <time>2016-12-14T14:34:53Z</time>
      </trkpt>
      <trkpt lat="43.58001" lon="1.41202">
        <ele>130.88</ele>
        <time>2016-12-14T14:35:03Z</time>
      </trkpt>
      <trkpt lat="43.57997" lon="1.41202">
        <ele>130.88</ele>
        <time>2016-12-14T14:35:04Z</time>
      </trkpt>
      <trkpt lat="43.5799" lon="1.41197">
        <ele>130.88</ele>
        <time>2016-12-14T14:35:06Z</time>
      </trkpt>
      <trkpt lat="43.57986" lon="1.41193">
        <ele>130.88</ele>
        <time>2016-12-14T14:35:07Z</time>
      </trkpt>
      <trkpt lat="43.5797" lon="1.41174">
        <ele>130.88</ele>
        <time>2016-12-14T14:35:11Z</time>
      </trkpt>
      <trkpt lat="43.57967" lon="1.41169">
        <ele>130.88</ele>
        <time>2016-12-14T14:35:12Z</time>
      </trkpt>
      <trkpt lat="43.57908" lon="1.41068">
        <ele>130.88</ele>
        <time>2016-12-14T14:35:28Z</time>
      </trkpt>
      <trkpt lat="43.57858" lon="1.40982">
        <ele>131.84</ele>
        <time>2016-12-14T14:35:42Z</time>
      </trkpt>
      <trkpt lat="43.57813" lon="1.40889">
        <ele>131.84</ele>
        <time>2016-12-14T14:35:55Z</time>
      </trkpt>
      <trkpt lat="43.57806" lon="1.4087">
        <ele>131.84</ele>
        <time>2016-12-14T14:35:58Z</time>
      </trkpt>
      <trkpt lat="43.57805" lon="1.40864">
        <ele>131.84</ele>
        <time>2016-12-14T14:35:59Z</time>
      </trkpt>
      <trkpt lat="43.57802" lon="1.4085">
        <ele>131.84</ele>
        <time>2016-12-14T14:36:01Z</time>
      </trkpt>
      <trkpt lat="43.578" lon="1.40844">
        <ele>131.84</ele>
        <time>2016-12-14T14:36:02Z</time>
      </trkpt>
      <trkpt lat="43.57796" lon="1.4084">
        <ele>131.84</ele>
        <time>2016-12-14T14:36:03Z</time>
      </trkpt>
      <trkpt lat="43.57791" lon="1.40836">
        <ele>131.84</ele>
        <time>2016-12-14T14:36:04Z</time>
      </trkpt>
      <trkpt lat="43.57787" lon="1.40832">
        <ele>131.84</ele>
        <time>2016-12-14T14:36:05Z</time>
      </trkpt>
      <trkpt lat="43.57783" lon="1.40828">
        <ele>131.84</ele>
        <time>2016-12-14T14:36:06Z</time>
      </trkpt>
      <trkpt lat="43.57779" lon="1.40823">
        <ele>131.84</ele>
        <time>2016-12-14T14:36:07Z</time>
      </trkpt>
      <trkpt lat="43.57776" lon="1.40819">
        <ele>132.8</ele>
        <time>2016-12-14T14:36:08Z</time>
      </trkpt>
      <trkpt lat="43.57772" lon="1.40814">
        <ele>132.8</ele>
        <time>2016-12-14T14:36:09Z</time>
      </trkpt>
      <trkpt lat="43.5775" lon="1.40794">
        <ele>133.76</ele>
        <time>2016-12-14T14:36:15Z</time>
      </trkpt>
      <trkpt lat="43.57695" lon="1.40737">
        <ele>136.16</ele>
        <time>2016-12-14T14:36:28Z</time>
      </trkpt>
      <trkpt lat="43.57689" lon="1.40733">
        <ele>136.16</ele>
        <time>2016-12-14T14:36:29Z</time>
      </trkpt>
      <trkpt lat="43.57634" lon="1.40677">
        <ele>135.2</ele>
        <time>2016-12-14T14:36:42Z</time>
      </trkpt>
      <trkpt lat="43.57632" lon="1.40674">
        <ele>133.76</ele>
        <time>2016-12-14T14:36:44Z</time>
      </trkpt>
      <trkpt lat="43.57602" lon="1.40645">
        <ele>132.8</ele>
        <time>2016-12-14T14:36:53Z</time>
      </trkpt>
      <trkpt lat="43.57533" lon="1.40569">
        <ele>131.84</ele>
        <time>2016-12-14T14:37:07Z</time>
      </trkpt>
      <trkpt lat="43.57498" lon="1.40527">
        <ele>131.84</ele>
        <time>2016-12-14T14:37:14Z</time>
      </trkpt>
      <trkpt lat="43.57485" lon="1.40508">
        <ele>131.84</ele>
        <time>2016-12-14T14:37:17Z</time>
      </trkpt>
      <trkpt lat="43.5748" lon="1.40503">
        <ele>131.84</ele>
        <time>2016-12-14T14:37:18Z</time>
      </trkpt>
      <trkpt lat="43.57476" lon="1.40499">
        <ele>131.84</ele>
        <time>2016-12-14T14:37:19Z</time>
      </trkpt>
      <trkpt lat="43.57471" lon="1.40497">
        <ele>131.84</ele>
        <time>2016-12-14T14:37:20Z</time>
      </trkpt>
      <trkpt lat="43.57468" lon="1.40493">
        <ele>131.84</ele>
        <time>2016-12-14T14:37:21Z</time>
      </trkpt>
      <trkpt lat="43.57465" lon="1.40488">
        <ele>131.84</ele>
        <time>2016-12-14T14:37:22Z</time>
      </trkpt>
      <trkpt lat="43.57462" lon="1.40483">
        <ele>131.84</ele>
        <time>2016-12-14T14:37:23Z</time>
      </trkpt>
      <trkpt lat="43.57459" lon="1.40477">
        <ele>131.84</ele>
        <time>2016-12-14T14:37:24Z</time>
      </trkpt>
      <trkpt lat="43.57455" lon="1.40471">
        <ele>131.84</ele>
        <time>2016-12-14T14:37:25Z</time>
      </trkpt>
      <trkpt lat="43.57451" lon="1.40466">
        <ele>131.84</ele>
        <time>2016-12-14T14:37:26Z</time>
      </trkpt>
      <trkpt lat="43.57447" lon="1.40462">
        <ele>131.84</ele>
        <time>2016-12-14T14:37:27Z</time>
      </trkpt>
      <trkpt lat="43.57441" lon="1.40459">
        <ele>131.84</ele>
        <time>2016-12-14T14:37:28Z</time>
      </trkpt>
      <trkpt lat="43.57435" lon="1.40458">
        <ele>131.84</ele>
        <time>2016-12-14T14:37:29Z</time>
      </trkpt>
      <trkpt lat="43.57429" lon="1.40459">
        <ele>131.84</ele>
        <time>2016-12-14T14:37:30Z</time>
      </trkpt>
      <trkpt lat="43.57424" lon="1.40462">
        <ele>131.84</ele>
        <time>2016-12-14T14:37:31Z</time>
      </trkpt>
      <trkpt lat="43.57419" lon="1.40467">
        <ele>131.84</ele>
        <time>2016-12-14T14:37:32Z</time>
      </trkpt>
      <trkpt lat="43.57414" lon="1.40472">
        <ele>131.84</ele>
        <time>2016-12-14T14:37:33Z</time>
      </trkpt>
      <trkpt lat="43.5741" lon="1.40478">
        <ele>131.84</ele>
        <time>2016-12-14T14:37:34Z</time>
      </trkpt>
      <trkpt lat="43.57406" lon="1.40485">
        <ele>131.84</ele>
        <time>2016-12-14T14:37:35Z</time>
      </trkpt>
      <trkpt lat="43.57403" lon="1.40492">
        <ele>131.84</ele>
        <time>2016-12-14T14:37:36Z</time>
      </trkpt>
      <trkpt lat="43.57354" lon="1.40587">
        <ele>131.84</ele>
        <time>2016-12-14T14:37:51Z</time>
      </trkpt>
      <trkpt lat="43.57296" lon="1.40662">
        <ele>131.84</ele>
        <time>2016-12-14T14:38:06Z</time>
      </trkpt>
      <trkpt lat="43.57229" lon="1.40743">
        <ele>132.8</ele>
        <time>2016-12-14T14:38:23Z</time>
      </trkpt>
      <trkpt lat="43.57148" lon="1.40832">
        <ele>131.84</ele>
        <time>2016-12-14T14:38:42Z</time>
      </trkpt>
      <trkpt lat="43.57084" lon="1.40855">
        <ele>131.84</ele>
        <time>2016-12-14T14:38:55Z</time>
      </trkpt>
      <trkpt lat="43.57021" lon="1.40836">
        <ele>132.8</ele>
        <time>2016-12-14T14:39:07Z</time>
      </trkpt>
      <trkpt lat="43.56915" lon="1.40796">
        <ele>132.8</ele>
        <time>2016-12-14T14:39:27Z</time>
      </trkpt>
      <trkpt lat="43.56815" lon="1.40755">
        <ele>133.76</ele>
        <time>2016-12-14T14:39:45Z</time>
      </trkpt>
      <trkpt lat="43.56775" lon="1.40717">
        <ele>133.76</ele>
        <time>2016-12-14T14:39:54Z</time>
      </trkpt>
      <trkpt lat="43.56772" lon="1.40712">
        <ele>133.76</ele>
        <time>2016-12-14T14:39:55Z</time>
      </trkpt>
      <trkpt lat="43.56769" lon="1.40706">
        <ele>133.76</ele>
        <time>2016-12-14T14:39:56Z</time>
      </trkpt>
      <trkpt lat="43.56768" lon="1.40699">
        <ele>133.76</ele>
        <time>2016-12-14T14:39:57Z</time>
      </trkpt>
      <trkpt lat="43.56767" lon="1.40693">
        <ele>133.76</ele>
        <time>2016-12-14T14:39:58Z</time>
      </trkpt>
      <trkpt lat="43.56763" lon="1.40679">
        <ele>133.76</ele>
        <time>2016-12-14T14:40:00Z</time>
      </trkpt>
      <trkpt lat="43.5676" lon="1.40673">
        <ele>133.76</ele>
        <time>2016-12-14T14:40:01Z</time>
      </trkpt>
      <trkpt lat="43.56756" lon="1.40668">
        <ele>135.2</ele>
        <time>2016-12-14T14:40:02Z</time>
      </trkpt>
      <trkpt lat="43.56751" lon="1.40666">
        <ele>135.2</ele>
        <time>2016-12-14T14:40:03Z</time>
      </trkpt>
      <trkpt lat="43.56746" lon="1.40666">
        <ele>135.2</ele>
        <time>2016-12-14T14:40:04Z</time>
      </trkpt>
      <trkpt lat="43.56741" lon="1.40667">
        <ele>135.2</ele>
        <time>2016-12-14T14:40:05Z</time>
      </trkpt>
      <trkpt lat="43.56737" lon="1.4067">
        <ele>135.2</ele>
        <time>2016-12-14T14:40:06Z</time>
      </trkpt>
      <trkpt lat="43.56732" lon="1.40675">
        <ele>135.2</ele>
        <time>2016-12-14T14:40:07Z</time>
      </trkpt>
      <trkpt lat="43.56728" lon="1.40679">
        <ele>135.2</ele>
        <time>2016-12-14T14:40:08Z</time>
      </trkpt>
      <trkpt lat="43.56724" lon="1.40684">
        <ele>135.2</ele>
        <time>2016-12-14T14:40:09Z</time>
      </trkpt>
      <trkpt lat="43.5672" lon="1.40688">
        <ele>135.2</ele>
        <time>2016-12-14T14:40:10Z</time>
      </trkpt>
      <trkpt lat="43.56715" lon="1.40691">
        <ele>135.2</ele>
        <time>2016-12-14T14:40:11Z</time>
      </trkpt>
      <trkpt lat="43.5671" lon="1.40693">
        <ele>135.2</ele>
        <time>2016-12-14T14:40:12Z</time>
      </trkpt>
      <trkpt lat="43.56705" lon="1.40693">
        <ele>135.2</ele>
        <time>2016-12-14T14:40:13Z</time>
      </trkpt>
      <trkpt lat="43.567" lon="1.40692">
        <ele>135.2</ele>
        <time>2016-12-14T14:40:14Z</time>
      </trkpt>
      <trkpt lat="43.56696" lon="1.40688">
        <ele>135.2</ele>
        <time>2016-12-14T14:40:15Z</time>
      </trkpt>
      <trkpt lat="43.56692" lon="1.40685">
        <ele>133.76</ele>
        <time>2016-12-14T14:40:16Z</time>
      </trkpt>
      <trkpt lat="43.56687" lon="1.40682">
        <ele>133.76</ele>
        <time>2016-12-14T14:40:17Z</time>
      </trkpt>
      <trkpt lat="43.56643" lon="1.40651">
        <ele>133.76</ele>
        <time>2016-12-14T14:40:28Z</time>
      </trkpt>
      <trkpt lat="43.56636" lon="1.40643">
        <ele>133.76</ele>
        <time>2016-12-14T14:40:30Z</time>
      </trkpt>
      <trkpt lat="43.56633" lon="1.40639">
        <ele>133.76</ele>
        <time>2016-12-14T14:40:31Z</time>
      </trkpt>
      <trkpt lat="43.56629" lon="1.40636">
        <ele>133.76</ele>
        <time>2016-12-14T14:40:32Z</time>
      </trkpt>
      <trkpt lat="43.56625" lon="1.40637">
        <ele>133.76</ele>
        <time>2016-12-14T14:40:33Z</time>
      </trkpt>
      <trkpt lat="43.56624" lon="1.40641">
        <ele>133.76</ele>
        <time>2016-12-14T14:40:34Z</time>
      </trkpt>
      <trkpt lat="43.56624" lon="1.40646">
        <ele>133.76</ele>
        <time>2016-12-14T14:40:35Z</time>
      </trkpt>
      <trkpt lat="43.56625" lon="1.40652">
        <ele>133.76</ele>
        <time>2016-12-14T14:40:36Z</time>
      </trkpt>
      <trkpt lat="43.56624" lon="1.40659">
        <ele>133.76</ele>
        <time>2016-12-14T14:40:37Z</time>
      </trkpt>
      <trkpt lat="43.56623" lon="1.40665">
        <ele>133.76</ele>
        <time>2016-12-14T14:40:38Z</time>
      </trkpt>
      <trkpt lat="43.56622" lon="1.40671">
        <ele>133.76</ele>
        <time>2016-12-14T14:40:39Z</time>
      </trkpt>
      <trkpt lat="43.56621" lon="1.40677">
        <ele>133.76</ele>
        <time>2016-12-14T14:40:40Z</time>
      </trkpt>
      <trkpt lat="43.56608" lon="1.4074">
        <ele>133.76</ele>
        <time>2016-12-14T14:40:53Z</time>
      </trkpt>
      <trkpt lat="43.56609" lon="1.40739">
        <ele>133.76</ele>
        <time>2016-12-14T14:40:56Z</time>
      </trkpt>
      <trkpt lat="43.56606" lon="1.4075">
        <ele>133.76</ele>
        <time>2016-12-14T14:41:30Z</time>
      </trkpt>
      <trkpt lat="43.56605" lon="1.40753">
        <ele>133.76</ele>
        <time>2016-12-14T14:41:31Z</time>
      </trkpt>
      <trkpt lat="43.56605" lon="1.40758">
        <ele>133.76</ele>
        <time>2016-12-14T14:41:32Z</time>
      </trkpt>
      <trkpt lat="43.56601" lon="1.40785">
        <ele>133.76</ele>
        <time>2016-12-14T14:41:37Z</time>
      </trkpt>
      <trkpt lat="43.56599" lon="1.40792">
        <ele>133.76</ele>
        <time>2016-12-14T14:41:38Z</time>
      </trkpt>
      <trkpt lat="43.56581" lon="1.40894">
        <ele>133.76</ele>
        <time>2016-12-14T14:41:52Z</time>
      </trkpt>
      <trkpt lat="43.56571" lon="1.40938">
        <ele>133.76</ele>
        <time>2016-12-14T14:41:58Z</time>
      </trkpt>
      <trkpt lat="43.56568" lon="1.40961">
        <ele>133.76</ele>
        <time>2016-12-14T14:42:01Z</time>
      </trkpt>
      <trkpt lat="43.56554" lon="1.41043">
        <ele>133.76</ele>
        <time>2016-12-14T14:42:14Z</time>
      </trkpt>
      <trkpt lat="43.56552" lon="1.41049">
        <ele>133.76</ele>
        <time>2016-12-14T14:42:17Z</time>
      </trkpt>
      <trkpt lat="43.5655" lon="1.41049">
        <ele>133.76</ele>
        <time>2016-12-14T14:42:18Z</time>
      </trkpt>
      <trkpt lat="43.56546" lon="1.41047">
        <ele>133.76</ele>
        <time>2016-12-14T14:42:19Z</time>
      </trkpt>
      <trkpt lat="43.56485" lon="1.40993">
        <ele>133.76</ele>
        <time>2016-12-14T14:42:33Z</time>
      </trkpt>
      <trkpt lat="43.56401" lon="1.40897">
        <ele>135.2</ele>
        <time>2016-12-14T14:42:52Z</time>
      </trkpt>
      <trkpt lat="43.56326" lon="1.408">
        <ele>135.2</ele>
        <time>2016-12-14T14:43:09Z</time>
      </trkpt>
      <trkpt lat="43.5629" lon="1.40752">
        <ele>135.2</ele>
        <time>2016-12-14T14:43:21Z</time>
      </trkpt>
      <trkpt lat="43.56244" lon="1.40696">
        <ele>135.2</ele>
        <time>2016-12-14T14:43:33Z</time>
      </trkpt>
      <trkpt lat="43.56175" lon="1.4061">
        <ele>135.2</ele>
        <time>2016-12-14T14:43:50Z</time>
      </trkpt>
      <trkpt lat="43.56104" lon="1.40522">
        <ele>136.16</ele>
        <time>2016-12-14T14:44:07Z</time>
      </trkpt>
      <trkpt lat="43.5608" lon="1.4049">
        <ele>136.16</ele>
        <time>2016-12-14T14:44:15Z</time>
      </trkpt>
      <trkpt lat="43.56017" lon="1.40409">
        <ele>136.16</ele>
        <time>2016-12-14T14:44:30Z</time>
      </trkpt>
      <trkpt lat="43.55993" lon="1.40384">
        <ele>136.16</ele>
        <time>2016-12-14T14:44:35Z</time>
      </trkpt>
      <trkpt lat="43.55954" lon="1.40346">
        <ele>136.16</ele>
        <time>2016-12-14T14:44:43Z</time>
      </trkpt>
      <trkpt lat="43.55949" lon="1.40341">
        <ele>136.16</ele>
        <time>2016-12-14T14:44:44Z</time>
      </trkpt>
      <trkpt lat="43.55876" lon="1.40266">
        <ele>136.16</ele>
        <time>2016-12-14T14:45:00Z</time>
      </trkpt>
      <trkpt lat="43.55827" lon="1.40214">
        <ele>137.13</ele>
        <time>2016-12-14T14:45:14Z</time>
      </trkpt>
      <trkpt lat="43.55825" lon="1.40213">
        <ele>137.13</ele>
        <time>2016-12-14T14:45:20Z</time>
      </trkpt>
      <trkpt lat="43.55825" lon="1.40214">
        <ele>137.13</ele>
        <time>2016-12-14T14:45:39Z</time>
      </trkpt>
      <trkpt lat="43.55822" lon="1.40212">
        <ele>137.13</ele>
        <time>2016-12-14T14:45:43Z</time>
      </trkpt>
      <trkpt lat="43.55821" lon="1.40211">
        <ele>137.13</ele>
        <time>2016-12-14T14:45:44Z</time>
      </trkpt>
      <trkpt lat="43.55819" lon="1.40209">
        <ele>137.13</ele>
        <time>2016-12-14T14:45:45Z</time>
      </trkpt>
      <trkpt lat="43.55817" lon="1.40206">
        <ele>137.13</ele>
        <time>2016-12-14T14:45:46Z</time>
      </trkpt>
      <trkpt lat="43.55814" lon="1.40204">
        <ele>137.13</ele>
        <time>2016-12-14T14:45:47Z</time>
      </trkpt>
      <trkpt lat="43.55812" lon="1.402">
        <ele>137.13</ele>
        <time>2016-12-14T14:45:48Z</time>
      </trkpt>
      <trkpt lat="43.55767" lon="1.40159">
        <ele>137.13</ele>
        <time>2016-12-14T14:45:59Z</time>
      </trkpt>
      <trkpt lat="43.55713" lon="1.40105">
        <ele>137.13</ele>
        <time>2016-12-14T14:46:11Z</time>
      </trkpt>
      <trkpt lat="43.55642" lon="1.40043">
        <ele>136.16</ele>
        <time>2016-12-14T14:46:27Z</time>
      </trkpt>
      <trkpt lat="43.55552" lon="1.39963">
        <ele>137.13</ele>
        <time>2016-12-14T14:46:45Z</time>
      </trkpt>
      <trkpt lat="43.55473" lon="1.39892">
        <ele>137.13</ele>
        <time>2016-12-14T14:47:00Z</time>
      </trkpt>
      <trkpt lat="43.55405" lon="1.39827">
        <ele>137.13</ele>
        <time>2016-12-14T14:47:14Z</time>
      </trkpt>
      <trkpt lat="43.5531" lon="1.39705">
        <ele>137.13</ele>
        <time>2016-12-14T14:47:35Z</time>
      </trkpt>
      <trkpt lat="43.55237" lon="1.39596">
        <ele>138.09</ele>
        <time>2016-12-14T14:47:52Z</time>
      </trkpt>
      <trkpt lat="43.55163" lon="1.39479">
        <ele>138.09</ele>
        <time>2016-12-14T14:48:12Z</time>
      </trkpt>
      <trkpt lat="43.55115" lon="1.39419">
        <ele>140.01</ele>
        <time>2016-12-14T14:48:28Z</time>
      </trkpt>
      <trkpt lat="43.55114" lon="1.39419">
        <ele>140.97</ele>
        <time>2016-12-14T14:48:32Z</time>
      </trkpt>
      <trkpt lat="43.55109" lon="1.39412">
        <ele>141.93</ele>
        <time>2016-12-14T14:48:36Z</time>
      </trkpt>
      <trkpt lat="43.55079" lon="1.39374">
        <ele>142.89</ele>
        <time>2016-12-14T14:48:48Z</time>
      </trkpt>
      <trkpt lat="43.55073" lon="1.39366">
        <ele>142.89</ele>
        <time>2016-12-14T14:48:50Z</time>
      </trkpt>
      <trkpt lat="43.55071" lon="1.39362">
        <ele>142.89</ele>
        <time>2016-12-14T14:48:51Z</time>
      </trkpt>
      <trkpt lat="43.55068" lon="1.39358">
        <ele>142.89</ele>
        <time>2016-12-14T14:48:52Z</time>
      </trkpt>
      <trkpt lat="43.55064" lon="1.39354">
        <ele>142.89</ele>
        <time>2016-12-14T14:48:53Z</time>
      </trkpt>
      <trkpt lat="43.55061" lon="1.39349">
        <ele>142.89</ele>
        <time>2016-12-14T14:48:54Z</time>
      </trkpt>
      <trkpt lat="43.54988" lon="1.39262">
        <ele>144.82</ele>
        <time>2016-12-14T14:49:12Z</time>
      </trkpt>
      <trkpt lat="43.54918" lon="1.39177">
        <ele>143.85</ele>
        <time>2016-12-14T14:49:28Z</time>
      </trkpt>
      <trkpt lat="43.54854" lon="1.39089">
        <ele>144.82</ele>
        <time>2016-12-14T14:49:43Z</time>
      </trkpt>
      <trkpt lat="43.54852" lon="1.39082">
        <ele>145.78</ele>
        <time>2016-12-14T14:49:44Z</time>
      </trkpt>
      <trkpt lat="43.5485" lon="1.39075">
        <ele>145.78</ele>
        <time>2016-12-14T14:49:45Z</time>
      </trkpt>
      <trkpt lat="43.54848" lon="1.39067">
        <ele>145.78</ele>
        <time>2016-12-14T14:49:46Z</time>
      </trkpt>
      <trkpt lat="43.54845" lon="1.39061">
        <ele>145.78</ele>
        <time>2016-12-14T14:49:47Z</time>
      </trkpt>
      <trkpt lat="43.54841" lon="1.39057">
        <ele>145.78</ele>
        <time>2016-12-14T14:49:48Z</time>
      </trkpt>
      <trkpt lat="43.54835" lon="1.39055">
        <ele>145.78</ele>
        <time>2016-12-14T14:49:49Z</time>
      </trkpt>
      <trkpt lat="43.5483" lon="1.39053">
        <ele>145.78</ele>
        <time>2016-12-14T14:49:50Z</time>
      </trkpt>
      <trkpt lat="43.54824" lon="1.3905">
        <ele>145.78</ele>
        <time>2016-12-14T14:49:51Z</time>
      </trkpt>
      <trkpt lat="43.54819" lon="1.39046">
        <ele>145.78</ele>
        <time>2016-12-14T14:49:52Z</time>
      </trkpt>
      <trkpt lat="43.54739" lon="1.38944">
        <ele>145.78</ele>
        <time>2016-12-14T14:50:11Z</time>
      </trkpt>
      <trkpt lat="43.54693" lon="1.38866">
        <ele>148.18</ele>
        <time>2016-12-14T14:50:25Z</time>
      </trkpt>
      <trkpt lat="43.54647" lon="1.3877">
        <ele>149.14</ele>
        <time>2016-12-14T14:50:40Z</time>
      </trkpt>
      <trkpt lat="43.54634" lon="1.38744">
        <ele>149.14</ele>
        <time>2016-12-14T14:50:44Z</time>
      </trkpt>
      <trkpt lat="43.5463" lon="1.38738">
        <ele>149.14</ele>
        <time>2016-12-14T14:50:45Z</time>
      </trkpt>
      <trkpt lat="43.54626" lon="1.38732">
        <ele>149.14</ele>
        <time>2016-12-14T14:50:46Z</time>
      </trkpt>
      <trkpt lat="43.54594" lon="1.38696">
        <ele>150.1</ele>
        <time>2016-12-14T14:50:53Z</time>
      </trkpt>
      <trkpt lat="43.5459" lon="1.38692">
        <ele>150.1</ele>
        <time>2016-12-14T14:50:54Z</time>
      </trkpt>
      <trkpt lat="43.54585" lon="1.38681">
        <ele>150.1</ele>
        <time>2016-12-14T14:50:56Z</time>
      </trkpt>
      <trkpt lat="43.54579" lon="1.38669">
        <ele>150.1</ele>
        <time>2016-12-14T14:50:58Z</time>
      </trkpt>
      <trkpt lat="43.54576" lon="1.38664">
        <ele>150.1</ele>
        <time>2016-12-14T14:50:59Z</time>
      </trkpt>
      <trkpt lat="43.54571" lon="1.38659">
        <ele>150.1</ele>
        <time>2016-12-14T14:51:00Z</time>
      </trkpt>
      <trkpt lat="43.54566" lon="1.38656">
        <ele>150.1</ele>
        <time>2016-12-14T14:51:01Z</time>
      </trkpt>
      <trkpt lat="43.54561" lon="1.38655">
        <ele>150.1</ele>
        <time>2016-12-14T14:51:02Z</time>
      </trkpt>
      <trkpt lat="43.54555" lon="1.38656">
        <ele>150.1</ele>
        <time>2016-12-14T14:51:03Z</time>
      </trkpt>
      <trkpt lat="43.5455" lon="1.38659">
        <ele>150.1</ele>
        <time>2016-12-14T14:51:04Z</time>
      </trkpt>
      <trkpt lat="43.54546" lon="1.38663">
        <ele>150.1</ele>
        <time>2016-12-14T14:51:05Z</time>
      </trkpt>
      <trkpt lat="43.54542" lon="1.38669">
        <ele>151.06</ele>
        <time>2016-12-14T14:51:06Z</time>
      </trkpt>
      <trkpt lat="43.54539" lon="1.38676">
        <ele>151.06</ele>
        <time>2016-12-14T14:51:07Z</time>
      </trkpt>
      <trkpt lat="43.54537" lon="1.38684">
        <ele>151.06</ele>
        <time>2016-12-14T14:51:08Z</time>
      </trkpt>
      <trkpt lat="43.54536" lon="1.38691">
        <ele>151.06</ele>
        <time>2016-12-14T14:51:09Z</time>
      </trkpt>
      <trkpt lat="43.54534" lon="1.38698">
        <ele>151.06</ele>
        <time>2016-12-14T14:51:10Z</time>
      </trkpt>
      <trkpt lat="43.5453" lon="1.38705">
        <ele>151.06</ele>
        <time>2016-12-14T14:51:11Z</time>
      </trkpt>
      <trkpt lat="43.54526" lon="1.38711">
        <ele>151.06</ele>
        <time>2016-12-14T14:51:12Z</time>
      </trkpt>
      <trkpt lat="43.54463" lon="1.38779">
        <ele>150.1</ele>
        <time>2016-12-14T14:51:26Z</time>
      </trkpt>
      <trkpt lat="43.54397" lon="1.38846">
        <ele>150.1</ele>
        <time>2016-12-14T14:51:40Z</time>
      </trkpt>
      <trkpt lat="43.54347" lon="1.3891">
        <ele>150.1</ele>
        <time>2016-12-14T14:51:51Z</time>
      </trkpt>
      <trkpt lat="43.54341" lon="1.38915">
        <ele>150.1</ele>
        <time>2016-12-14T14:51:52Z</time>
      </trkpt>
      <trkpt lat="43.54335" lon="1.38919">
        <ele>150.1</ele>
        <time>2016-12-14T14:51:53Z</time>
      </trkpt>
      <trkpt lat="43.54327" lon="1.38922">
        <ele>150.1</ele>
        <time>2016-12-14T14:51:54Z</time>
      </trkpt>
      <trkpt lat="43.5432" lon="1.38925">
        <ele>150.1</ele>
        <time>2016-12-14T14:51:55Z</time>
      </trkpt>
      <trkpt lat="43.54311" lon="1.38928">
        <ele>150.1</ele>
        <time>2016-12-14T14:51:56Z</time>
      </trkpt>
      <trkpt lat="43.54268" lon="1.38938">
        <ele>148.18</ele>
        <time>2016-12-14T14:52:01Z</time>
      </trkpt>
      <trkpt lat="43.5426" lon="1.38942">
        <ele>148.18</ele>
        <time>2016-12-14T14:52:02Z</time>
      </trkpt>
      <trkpt lat="43.54252" lon="1.38947">
        <ele>147.22</ele>
        <time>2016-12-14T14:52:03Z</time>
      </trkpt>
      <trkpt lat="43.54238" lon="1.38957">
        <ele>145.78</ele>
        <time>2016-12-14T14:52:05Z</time>
      </trkpt>
      <trkpt lat="43.54231" lon="1.38963">
        <ele>144.82</ele>
        <time>2016-12-14T14:52:06Z</time>
      </trkpt>
      <trkpt lat="43.54202" lon="1.38992">
        <ele>141.93</ele>
        <time>2016-12-14T14:52:11Z</time>
      </trkpt>
      <trkpt lat="43.54158" lon="1.39031">
        <ele>140.97</ele>
        <time>2016-12-14T14:52:19Z</time>
      </trkpt>
      <trkpt lat="43.54153" lon="1.39033">
        <ele>140.97</ele>
        <time>2016-12-14T14:52:20Z</time>
      </trkpt>
      <trkpt lat="43.54148" lon="1.39033">
        <ele>140.97</ele>
        <time>2016-12-14T14:52:21Z</time>
      </trkpt>
      <trkpt lat="43.54143" lon="1.39032">
        <ele>140.97</ele>
        <time>2016-12-14T14:52:22Z</time>
      </trkpt>
      <trkpt lat="43.54139" lon="1.3903">
        <ele>140.97</ele>
        <time>2016-12-14T14:52:23Z</time>
      </trkpt>
      <trkpt lat="43.54135" lon="1.39028">
        <ele>140.97</ele>
        <time>2016-12-14T14:52:24Z</time>
      </trkpt>
      <trkpt lat="43.5413" lon="1.39026">
        <ele>140.97</ele>
        <time>2016-12-14T14:52:25Z</time>
      </trkpt>
      <trkpt lat="43.54125" lon="1.39024">
        <ele>140.97</ele>
        <time>2016-12-14T14:52:26Z</time>
      </trkpt>
      <trkpt lat="43.5412" lon="1.39022">
        <ele>140.97</ele>
        <time>2016-12-14T14:52:27Z</time>
      </trkpt>
      <trkpt lat="43.54115" lon="1.39019">
        <ele>140.97</ele>
        <time>2016-12-14T14:52:28Z</time>
      </trkpt>
      <trkpt lat="43.54035" lon="1.38962">
        <ele>140.97</ele>
        <time>2016-12-14T14:52:44Z</time>
      </trkpt>
      <trkpt lat="43.53941" lon="1.38897">
        <ele>141.93</ele>
        <time>2016-12-14T14:53:02Z</time>
      </trkpt>
      <trkpt lat="43.53844" lon="1.38822">
        <ele>141.93</ele>
        <time>2016-12-14T14:53:22Z</time>
      </trkpt>
      <trkpt lat="43.53842" lon="1.38817">
        <ele>141.93</ele>
        <time>2016-12-14T14:53:23Z</time>
      </trkpt>
      <trkpt lat="43.53841" lon="1.38811">
        <ele>141.93</ele>
        <time>2016-12-14T14:53:24Z</time>
      </trkpt>
      <trkpt lat="43.5384" lon="1.38805">
        <ele>141.93</ele>
        <time>2016-12-14T14:53:25Z</time>
      </trkpt>
      <trkpt lat="43.53839" lon="1.38798">
        <ele>141.93</ele>
        <time>2016-12-14T14:53:26Z</time>
      </trkpt>
      <trkpt lat="43.53837" lon="1.38792">
        <ele>141.93</ele>
        <time>2016-12-14T14:53:27Z</time>
      </trkpt>
      <trkpt lat="43.53834" lon="1.38786">
        <ele>141.93</ele>
        <time>2016-12-14T14:53:28Z</time>
      </trkpt>
      <trkpt lat="43.53831" lon="1.38781">
        <ele>141.93</ele>
        <time>2016-12-14T14:53:29Z</time>
      </trkpt>
      <trkpt lat="43.53827" lon="1.38777">
        <ele>141.93</ele>
        <time>2016-12-14T14:53:30Z</time>
      </trkpt>
      <trkpt lat="43.53822" lon="1.38775">
        <ele>141.93</ele>
        <time>2016-12-14T14:53:31Z</time>
      </trkpt>
      <trkpt lat="43.53817" lon="1.38774">
        <ele>141.93</ele>
        <time>2016-12-14T14:53:32Z</time>
      </trkpt>
      <trkpt lat="43.53812" lon="1.38774">
        <ele>141.93</ele>
        <time>2016-12-14T14:53:33Z</time>
      </trkpt>
      <trkpt lat="43.53807" lon="1.38775">
        <ele>141.93</ele>
        <time>2016-12-14T14:53:34Z</time>
      </trkpt>
      <trkpt lat="43.53802" lon="1.38778">
        <ele>141.93</ele>
        <time>2016-12-14T14:53:35Z</time>
      </trkpt>
      <trkpt lat="43.53788" lon="1.38787">
        <ele>141.93</ele>
        <time>2016-12-14T14:53:39Z</time>
      </trkpt>
      <trkpt lat="43.53787" lon="1.38792">
        <ele>141.93</ele>
        <time>2016-12-14T14:53:40Z</time>
      </trkpt>
      <trkpt lat="43.53786" lon="1.38795">
        <ele>141.93</ele>
        <time>2016-12-14T14:53:41Z</time>
      </trkpt>
      <trkpt lat="43.53786" lon="1.38798">
        <ele>141.93</ele>
        <time>2016-12-14T14:53:42Z</time>
      </trkpt>
      <trkpt lat="43.53786" lon="1.38802">
        <ele>141.93</ele>
        <time>2016-12-14T14:53:43Z</time>
      </trkpt>
      <trkpt lat="43.53787" lon="1.38805">
        <ele>141.93</ele>
        <time>2016-12-14T14:53:44Z</time>
      </trkpt>
      <trkpt lat="43.53787" lon="1.38809">
        <ele>141.93</ele>
        <time>2016-12-14T14:53:45Z</time>
      </trkpt>
      <trkpt lat="43.53786" lon="1.38812">
        <ele>141.93</ele>
        <time>2016-12-14T14:53:46Z</time>
      </trkpt>
      <trkpt lat="43.53787" lon="1.38816">
        <ele>141.93</ele>
        <time>2016-12-14T14:53:47Z</time>
      </trkpt>
      <trkpt lat="43.53788" lon="1.3882">
        <ele>141.93</ele>
        <time>2016-12-14T14:53:48Z</time>
      </trkpt>
      <trkpt lat="43.53789" lon="1.38824">
        <ele>141.93</ele>
        <time>2016-12-14T14:53:49Z</time>
      </trkpt>
      <trkpt lat="43.53791" lon="1.38848">
        <ele>141.93</ele>
        <time>2016-12-14T14:53:57Z</time>
      </trkpt>
      <trkpt lat="43.53787" lon="1.38864">
        <ele>141.93</ele>
        <time>2016-12-14T14:54:00Z</time>
      </trkpt>
      <trkpt lat="43.53745" lon="1.38956">
        <ele>142.89</ele>
        <time>2016-12-14T14:54:17Z</time>
      </trkpt>
      <trkpt lat="43.53702" lon="1.39044">
        <ele>145.78</ele>
        <time>2016-12-14T14:54:35Z</time>
      </trkpt>
      <trkpt lat="43.53684" lon="1.39089">
        <ele>145.78</ele>
        <time>2016-12-14T14:54:44Z</time>
      </trkpt>
      <trkpt lat="43.53655" lon="1.39151">
        <ele>148.18</ele>
        <time>2016-12-14T14:54:57Z</time>
      </trkpt>
      <trkpt lat="43.5365" lon="1.39161">
        <ele>148.18</ele>
        <time>2016-12-14T14:54:59Z</time>
      </trkpt>
      <trkpt lat="43.53647" lon="1.39166">
        <ele>148.18</ele>
        <time>2016-12-14T14:55:00Z</time>
      </trkpt>
      <trkpt lat="43.5364" lon="1.39175">
        <ele>148.18</ele>
        <time>2016-12-14T14:55:02Z</time>
      </trkpt>
      <trkpt lat="43.53638" lon="1.3918">
        <ele>148.18</ele>
        <time>2016-12-14T14:55:03Z</time>
      </trkpt>
      <trkpt lat="43.53636" lon="1.39186">
        <ele>148.18</ele>
        <time>2016-12-14T14:55:04Z</time>
      </trkpt>
      <trkpt lat="43.53633" lon="1.39192">
        <ele>148.18</ele>
        <time>2016-12-14T14:55:05Z</time>
      </trkpt>
      <trkpt lat="43.5363" lon="1.39198">
        <ele>148.18</ele>
        <time>2016-12-14T14:55:06Z</time>
      </trkpt>
      <trkpt lat="43.53627" lon="1.39204">
        <ele>148.18</ele>
        <time>2016-12-14T14:55:07Z</time>
      </trkpt>
      <trkpt lat="43.53618" lon="1.39223">
        <ele>148.18</ele>
        <time>2016-12-14T14:55:10Z</time>
      </trkpt>
      <trkpt lat="43.53612" lon="1.39236">
        <ele>148.18</ele>
        <time>2016-12-14T14:55:12Z</time>
      </trkpt>
      <trkpt lat="43.5356" lon="1.39338">
        <ele>149.14</ele>
        <time>2016-12-14T14:55:27Z</time>
      </trkpt>
      <trkpt lat="43.5352" lon="1.39419">
        <ele>148.18</ele>
        <time>2016-12-14T14:55:40Z</time>
      </trkpt>
      <trkpt lat="43.53473" lon="1.39518">
        <ele>148.18</ele>
        <time>2016-12-14T14:55:55Z</time>
      </trkpt>
      <trkpt lat="43.53438" lon="1.39591">
        <ele>148.18</ele>
        <time>2016-12-14T14:56:06Z</time>
      </trkpt>
      <trkpt lat="43.53375" lon="1.39717">
        <ele>144.82</ele>
        <time>2016-12-14T14:56:22Z</time>
      </trkpt>
      <trkpt lat="43.53328" lon="1.39793">
        <ele>141.93</ele>
        <time>2016-12-14T14:56:32Z</time>
      </trkpt>
      <trkpt lat="43.53322" lon="1.39796">
        <ele>141.93</ele>
        <time>2016-12-14T14:56:33Z</time>
      </trkpt>
      <trkpt lat="43.53312" lon="1.39803">
        <ele>140.97</ele>
        <time>2016-12-14T14:56:35Z</time>
      </trkpt>
      <trkpt lat="43.53307" lon="1.39809">
        <ele>140.97</ele>
        <time>2016-12-14T14:56:36Z</time>
      </trkpt>
      <trkpt lat="43.53303" lon="1.39816">
        <ele>140.01</ele>
        <time>2016-12-14T14:56:37Z</time>
      </trkpt>
      <trkpt lat="43.533" lon="1.39823">
        <ele>140.01</ele>
        <time>2016-12-14T14:56:38Z</time>
      </trkpt>
      <trkpt lat="43.53298" lon="1.39831">
        <ele>140.01</ele>
        <time>2016-12-14T14:56:39Z</time>
      </trkpt>
      <trkpt lat="43.53296" lon="1.39839">
        <ele>140.01</ele>
        <time>2016-12-14T14:56:40Z</time>
      </trkpt>
      <trkpt lat="43.53294" lon="1.39847">
        <ele>140.01</ele>
        <time>2016-12-14T14:56:41Z</time>
      </trkpt>
      <trkpt lat="43.53293" lon="1.39856">
        <ele>140.01</ele>
        <time>2016-12-14T14:56:42Z</time>
      </trkpt>
      <trkpt lat="43.53292" lon="1.39864">
        <ele>140.01</ele>
        <time>2016-12-14T14:56:43Z</time>
      </trkpt>
      <trkpt lat="43.5329" lon="1.39873">
        <ele>140.01</ele>
        <time>2016-12-14T14:56:44Z</time>
      </trkpt>
      <trkpt lat="43.53288" lon="1.39881">
        <ele>140.01</ele>
        <time>2016-12-14T14:56:45Z</time>
      </trkpt>
      <trkpt lat="43.53285" lon="1.39888">
        <ele>140.01</ele>
        <time>2016-12-14T14:56:46Z</time>
      </trkpt>
      <trkpt lat="43.53263" lon="1.39954">
        <ele>140.01</ele>
        <time>2016-12-14T14:56:55Z</time>
      </trkpt>
      <trkpt lat="43.53259" lon="1.39959">
        <ele>140.01</ele>
        <time>2016-12-14T14:56:56Z</time>
      </trkpt>
      <trkpt lat="43.53256" lon="1.39964">
        <ele>140.01</ele>
        <time>2016-12-14T14:56:57Z</time>
      </trkpt>
      <trkpt lat="43.53249" lon="1.39973">
        <ele>140.01</ele>
        <time>2016-12-14T14:56:59Z</time>
      </trkpt>
      <trkpt lat="43.53246" lon="1.39979">
        <ele>140.01</ele>
        <time>2016-12-14T14:57:00Z</time>
      </trkpt>
      <trkpt lat="43.53244" lon="1.39985">
        <ele>140.01</ele>
        <time>2016-12-14T14:57:01Z</time>
      </trkpt>
      <trkpt lat="43.53242" lon="1.39992">
        <ele>139.05</ele>
        <time>2016-12-14T14:57:02Z</time>
      </trkpt>
      <trkpt lat="43.53242" lon="1.4">
        <ele>139.05</ele>
        <time>2016-12-14T14:57:03Z</time>
      </trkpt>
      <trkpt lat="43.53241" lon="1.40007">
        <ele>139.05</ele>
        <time>2016-12-14T14:57:04Z</time>
      </trkpt>
      <trkpt lat="43.5324" lon="1.40015">
        <ele>139.05</ele>
        <time>2016-12-14T14:57:05Z</time>
      </trkpt>
      <trkpt lat="43.53238" lon="1.40022">
        <ele>139.05</ele>
        <time>2016-12-14T14:57:06Z</time>
      </trkpt>
      <trkpt lat="43.53236" lon="1.40029">
        <ele>139.05</ele>
        <time>2016-12-14T14:57:07Z</time>
      </trkpt>
      <trkpt lat="43.53232" lon="1.40035">
        <ele>139.05</ele>
        <time>2016-12-14T14:57:08Z</time>
      </trkpt>
      <trkpt lat="43.53229" lon="1.4004">
        <ele>139.05</ele>
        <time>2016-12-14T14:57:09Z</time>
      </trkpt>
      <trkpt lat="43.53169" lon="1.40119">
        <ele>139.05</ele>
        <time>2016-12-14T14:57:24Z</time>
      </trkpt>
      <trkpt lat="43.53118" lon="1.40192">
        <ele>138.09</ele>
        <time>2016-12-14T14:57:38Z</time>
      </trkpt>
      <trkpt lat="43.53084" lon="1.40251">
        <ele>139.05</ele>
        <time>2016-12-14T14:57:49Z</time>
      </trkpt>
      <trkpt lat="43.53063" lon="1.40292">
        <ele>139.05</ele>
        <time>2016-12-14T14:57:57Z</time>
      </trkpt>
      <trkpt lat="43.53016" lon="1.40377">
        <ele>139.05</ele>
        <time>2016-12-14T14:58:12Z</time>
      </trkpt>
      <trkpt lat="43.52982" lon="1.40442">
        <ele>138.09</ele>
        <time>2016-12-14T14:58:23Z</time>
      </trkpt>
      <trkpt lat="43.5297" lon="1.40469">
        <ele>138.09</ele>
        <time>2016-12-14T14:58:28Z</time>
      </trkpt>
      <trkpt lat="43.52967" lon="1.40471">
        <ele>138.09</ele>
        <time>2016-12-14T14:58:29Z</time>
      </trkpt>
      <trkpt lat="43.52964" lon="1.40471">
        <ele>138.09</ele>
        <time>2016-12-14T14:58:30Z</time>
      </trkpt>
      <trkpt lat="43.5296" lon="1.40469">
        <ele>138.09</ele>
        <time>2016-12-14T14:58:31Z</time>
      </trkpt>
      <trkpt lat="43.52956" lon="1.40466">
        <ele>138.09</ele>
        <time>2016-12-14T14:58:32Z</time>
      </trkpt>
      <trkpt lat="43.52952" lon="1.40463">
        <ele>138.09</ele>
        <time>2016-12-14T14:58:33Z</time>
      </trkpt>
      <trkpt lat="43.52877" lon="1.40399">
        <ele>139.05</ele>
        <time>2016-12-14T14:58:49Z</time>
      </trkpt>
      <trkpt lat="43.52773" lon="1.40322">
        <ele>139.05</ele>
        <time>2016-12-14T14:59:09Z</time>
      </trkpt>
      <trkpt lat="43.52672" lon="1.40234">
        <ele>139.05</ele>
        <time>2016-12-14T14:59:30Z</time>
      </trkpt>
      <trkpt lat="43.52585" lon="1.40137">
        <ele>140.01</ele>
        <time>2016-12-14T14:59:49Z</time>
      </trkpt>
      <trkpt lat="43.52508" lon="1.40021">
        <ele>140.97</ele>
        <time>2016-12-14T15:00:07Z</time>
      </trkpt>
      <trkpt lat="43.52497" lon="1.4">
        <ele>140.97</ele>
        <time>2016-12-14T15:00:10Z</time>
      </trkpt>
      <trkpt lat="43.52494" lon="1.39993">
        <ele>140.97</ele>
        <time>2016-12-14T15:00:11Z</time>
      </trkpt>
      <trkpt lat="43.52447" lon="1.39898">
        <ele>140.97</ele>
        <time>2016-12-14T15:00:26Z</time>
      </trkpt>
      <trkpt lat="43.52443" lon="1.39887">
        <ele>140.97</ele>
        <time>2016-12-14T15:00:28Z</time>
      </trkpt>
      <trkpt lat="43.5242" lon="1.39837">
        <ele>140.97</ele>
        <time>2016-12-14T15:00:41Z</time>
      </trkpt>
      <trkpt lat="43.52407" lon="1.39817">
        <ele>140.97</ele>
        <time>2016-12-14T15:00:46Z</time>
      </trkpt>
      <trkpt lat="43.52404" lon="1.39812">
        <ele>140.97</ele>
        <time>2016-12-14T15:00:47Z</time>
      </trkpt>
      <trkpt lat="43.52344" lon="1.39707">
        <ele>140.97</ele>
        <time>2016-12-14T15:01:04Z</time>
      </trkpt>
      <trkpt lat="43.52256" lon="1.3954">
        <ele>140.97</ele>
        <time>2016-12-14T15:01:29Z</time>
      </trkpt>
      <trkpt lat="43.52181" lon="1.39399">
        <ele>141.93</ele>
        <time>2016-12-14T15:01:49Z</time>
      </trkpt>
      <trkpt lat="43.52109" lon="1.39269">
        <ele>141.93</ele>
        <time>2016-12-14T15:02:08Z</time>
      </trkpt>
      <trkpt lat="43.52031" lon="1.39124">
        <ele>141.93</ele>
        <time>2016-12-14T15:02:30Z</time>
      </trkpt>
      <trkpt lat="43.51961" lon="1.38991">
        <ele>141.93</ele>
        <time>2016-12-14T15:02:51Z</time>
      </trkpt>
      <trkpt lat="43.51916" lon="1.38884">
        <ele>142.89</ele>
        <time>2016-12-14T15:03:06Z</time>
      </trkpt>
      <trkpt lat="43.51871" lon="1.38774">
        <ele>143.85</ele>
        <time>2016-12-14T15:03:21Z</time>
      </trkpt>
      <trkpt lat="43.51869" lon="1.38766">
        <ele>143.85</ele>
        <time>2016-12-14T15:03:22Z</time>
      </trkpt>
      <trkpt lat="43.51869" lon="1.38758">
        <ele>143.85</ele>
        <time>2016-12-14T15:03:23Z</time>
      </trkpt>
      <trkpt lat="43.51869" lon="1.38741">
        <ele>143.85</ele>
        <time>2016-12-14T15:03:25Z</time>
      </trkpt>
      <trkpt lat="43.51868" lon="1.38733">
        <ele>143.85</ele>
        <time>2016-12-14T15:03:26Z</time>
      </trkpt>
      <trkpt lat="43.51866" lon="1.38725">
        <ele>143.85</ele>
        <time>2016-12-14T15:03:27Z</time>
      </trkpt>
      <trkpt lat="43.51863" lon="1.38719">
        <ele>143.85</ele>
        <time>2016-12-14T15:03:28Z</time>
      </trkpt>
      <trkpt lat="43.51858" lon="1.38714">
        <ele>143.85</ele>
        <time>2016-12-14T15:03:29Z</time>
      </trkpt>
      <trkpt lat="43.51853" lon="1.38711">
        <ele>143.85</ele>
        <time>2016-12-14T15:03:30Z</time>
      </trkpt>
      <trkpt lat="43.51847" lon="1.3871">
        <ele>143.85</ele>
        <time>2016-12-14T15:03:31Z</time>
      </trkpt>
      <trkpt lat="43.51841" lon="1.3871">
        <ele>143.85</ele>
        <time>2016-12-14T15:03:32Z</time>
      </trkpt>
      <trkpt lat="43.51835" lon="1.38712">
        <ele>143.85</ele>
        <time>2016-12-14T15:03:33Z</time>
      </trkpt>
      <trkpt lat="43.5183" lon="1.38716">
        <ele>143.85</ele>
        <time>2016-12-14T15:03:34Z</time>
      </trkpt>
      <trkpt lat="43.51826" lon="1.38721">
        <ele>143.85</ele>
        <time>2016-12-14T15:03:35Z</time>
      </trkpt>
      <trkpt lat="43.51822" lon="1.38727">
        <ele>143.85</ele>
        <time>2016-12-14T15:03:36Z</time>
      </trkpt>
      <trkpt lat="43.51819" lon="1.38734">
        <ele>143.85</ele>
        <time>2016-12-14T15:03:37Z</time>
      </trkpt>
      <trkpt lat="43.51816" lon="1.38741">
        <ele>143.85</ele>
        <time>2016-12-14T15:03:38Z</time>
      </trkpt>
      <trkpt lat="43.51814" lon="1.38748">
        <ele>143.85</ele>
        <time>2016-12-14T15:03:39Z</time>
      </trkpt>
      <trkpt lat="43.5181" lon="1.38753">
        <ele>143.85</ele>
        <time>2016-12-14T15:03:40Z</time>
      </trkpt>
      <trkpt lat="43.51805" lon="1.38757">
        <ele>143.85</ele>
        <time>2016-12-14T15:03:41Z</time>
      </trkpt>
      <trkpt lat="43.518" lon="1.38759">
        <ele>143.85</ele>
        <time>2016-12-14T15:03:42Z</time>
      </trkpt>
      <trkpt lat="43.51794" lon="1.3876">
        <ele>143.85</ele>
        <time>2016-12-14T15:03:43Z</time>
      </trkpt>
      <trkpt lat="43.51788" lon="1.38759">
        <ele>143.85</ele>
        <time>2016-12-14T15:03:44Z</time>
      </trkpt>
      <trkpt lat="43.51782" lon="1.38759">
        <ele>143.85</ele>
        <time>2016-12-14T15:03:45Z</time>
      </trkpt>
      <trkpt lat="43.51776" lon="1.38758">
        <ele>143.85</ele>
        <time>2016-12-14T15:03:46Z</time>
      </trkpt>
      <trkpt lat="43.51692" lon="1.38739">
        <ele>141.93</ele>
        <time>2016-12-14T15:04:00Z</time>
      </trkpt>
      <trkpt lat="43.51577" lon="1.38715">
        <ele>140.97</ele>
        <time>2016-12-14T15:04:19Z</time>
      </trkpt>
      <trkpt lat="43.5148" lon="1.38725">
        <ele>140.01</ele>
        <time>2016-12-14T15:04:35Z</time>
      </trkpt>
      <trkpt lat="43.51439" lon="1.38737">
        <ele>140.01</ele>
        <time>2016-12-14T15:04:42Z</time>
      </trkpt>
      <trkpt lat="43.5136" lon="1.38766">
        <ele>140.97</ele>
        <time>2016-12-14T15:04:58Z</time>
      </trkpt>
      <trkpt lat="43.51314" lon="1.38778">
        <ele>141.93</ele>
        <time>2016-12-14T15:05:08Z</time>
      </trkpt>
      <trkpt lat="43.51311" lon="1.38777">
        <ele>141.93</ele>
        <time>2016-12-14T15:05:09Z</time>
      </trkpt>
      <trkpt lat="43.51307" lon="1.38778">
        <ele>141.93</ele>
        <time>2016-12-14T15:05:10Z</time>
      </trkpt>
      <trkpt lat="43.51304" lon="1.38778">
        <ele>141.93</ele>
        <time>2016-12-14T15:05:11Z</time>
      </trkpt>
      <trkpt lat="43.51302" lon="1.38774">
        <ele>141.93</ele>
        <time>2016-12-14T15:05:12Z</time>
      </trkpt>
      <trkpt lat="43.51302" lon="1.3877">
        <ele>141.93</ele>
        <time>2016-12-14T15:05:13Z</time>
      </trkpt>
      <trkpt lat="43.51301" lon="1.38767">
        <ele>142.89</ele>
        <time>2016-12-14T15:05:14Z</time>
      </trkpt>
      <trkpt lat="43.513" lon="1.38756">
        <ele>142.89</ele>
        <time>2016-12-14T15:05:18Z</time>
      </trkpt>
      <trkpt lat="43.51299" lon="1.38757">
        <ele>143.85</ele>
        <time>2016-12-14T15:05:20Z</time>
      </trkpt>
      <trkpt lat="43.51299" lon="1.38759">
        <ele>143.85</ele>
        <time>2016-12-14T15:05:21Z</time>
      </trkpt>
      <trkpt lat="43.51301" lon="1.3877">
        <ele>143.85</ele>
        <time>2016-12-14T15:05:25Z</time>
      </trkpt>
      <trkpt lat="43.51299" lon="1.38773">
        <ele>143.85</ele>
        <time>2016-12-14T15:05:26Z</time>
      </trkpt>
      <trkpt lat="43.51296" lon="1.38777">
        <ele>143.85</ele>
        <time>2016-12-14T15:05:28Z</time>
      </trkpt>
      <trkpt lat="43.51293" lon="1.38778">
        <ele>143.85</ele>
        <time>2016-12-14T15:05:29Z</time>
      </trkpt>
      <trkpt lat="43.5126" lon="1.38787">
        <ele>143.85</ele>
        <time>2016-12-14T15:05:37Z</time>
      </trkpt>
      <trkpt lat="43.51247" lon="1.38791">
        <ele>143.85</ele>
        <time>2016-12-14T15:05:40Z</time>
      </trkpt>
      <trkpt lat="43.51243" lon="1.38792">
        <ele>143.85</ele>
        <time>2016-12-14T15:05:41Z</time>
      </trkpt>
      <trkpt lat="43.51235" lon="1.38795">
        <ele>143.85</ele>
        <time>2016-12-14T15:05:43Z</time>
      </trkpt>
      <trkpt lat="43.5123" lon="1.38797">
        <ele>143.85</ele>
        <time>2016-12-14T15:05:44Z</time>
      </trkpt>
      <trkpt lat="43.51226" lon="1.38798">
        <ele>143.85</ele>
        <time>2016-12-14T15:05:45Z</time>
      </trkpt>
      <trkpt lat="43.51221" lon="1.38799">
        <ele>143.85</ele>
        <time>2016-12-14T15:05:46Z</time>
      </trkpt>
      <trkpt lat="43.51216" lon="1.388">
        <ele>143.85</ele>
        <time>2016-12-14T15:05:47Z</time>
      </trkpt>
      <trkpt lat="43.51196" lon="1.38808">
        <ele>143.85</ele>
        <time>2016-12-14T15:05:51Z</time>
      </trkpt>
      <trkpt lat="43.51144" lon="1.38828">
        <ele>143.85</ele>
        <time>2016-12-14T15:06:02Z</time>
      </trkpt>
      <trkpt lat="43.51059" lon="1.3886">
        <ele>140.97</ele>
        <time>2016-12-14T15:06:20Z</time>
      </trkpt>
      <trkpt lat="43.51038" lon="1.38869">
        <ele>139.05</ele>
        <time>2016-12-14T15:06:28Z</time>
      </trkpt>
      <trkpt lat="43.51029" lon="1.3887">
        <ele>139.05</ele>
        <time>2016-12-14T15:06:30Z</time>
      </trkpt>
      <trkpt lat="43.50983" lon="1.38878">
        <ele>139.05</ele>
        <time>2016-12-14T15:06:43Z</time>
      </trkpt>
      <trkpt lat="43.50975" lon="1.38884">
        <ele>139.05</ele>
        <time>2016-12-14T15:06:46Z</time>
      </trkpt>
      <trkpt lat="43.50955" lon="1.38915">
        <ele>139.05</ele>
        <time>2016-12-14T15:06:53Z</time>
      </trkpt>
      <trkpt lat="43.50903" lon="1.38972">
        <ele>139.05</ele>
        <time>2016-12-14T15:07:05Z</time>
      </trkpt>
      <trkpt lat="43.50833" lon="1.39011">
        <ele>140.01</ele>
        <time>2016-12-14T15:07:18Z</time>
      </trkpt>
      <trkpt lat="43.50825" lon="1.39018">
        <ele>140.01</ele>
        <time>2016-12-14T15:07:20Z</time>
      </trkpt>
      <trkpt lat="43.50748" lon="1.39051">
        <ele>140.01</ele>
        <time>2016-12-14T15:07:35Z</time>
      </trkpt>
      <trkpt lat="43.50738" lon="1.39051">
        <ele>140.01</ele>
        <time>2016-12-14T15:07:37Z</time>
      </trkpt>
      <trkpt lat="43.50671" lon="1.39063">
        <ele>139.05</ele>
        <time>2016-12-14T15:07:50Z</time>
      </trkpt>
      <trkpt lat="43.50602" lon="1.39077">
        <ele>140.01</ele>
        <time>2016-12-14T15:08:03Z</time>
      </trkpt>
      <trkpt lat="43.50597" lon="1.39078">
        <ele>140.01</ele>
        <time>2016-12-14T15:08:04Z</time>
      </trkpt>
      <trkpt lat="43.50592" lon="1.39079">
        <ele>140.01</ele>
        <time>2016-12-14T15:08:05Z</time>
      </trkpt>
      <trkpt lat="43.50555" lon="1.39088">
        <ele>140.01</ele>
        <time>2016-12-14T15:08:12Z</time>
      </trkpt>
      <trkpt lat="43.5055" lon="1.3909">
        <ele>140.01</ele>
        <time>2016-12-14T15:08:13Z</time>
      </trkpt>
      <trkpt lat="43.50544" lon="1.39091">
        <ele>140.01</ele>
        <time>2016-12-14T15:08:14Z</time>
      </trkpt>
      <trkpt lat="43.50486" lon="1.39105">
        <ele>140.01</ele>
        <time>2016-12-14T15:08:24Z</time>
      </trkpt>
      <trkpt lat="43.50423" lon="1.39122">
        <ele>140.01</ele>
        <time>2016-12-14T15:08:36Z</time>
      </trkpt>
      <trkpt lat="43.50412" lon="1.39125">
        <ele>140.01</ele>
        <time>2016-12-14T15:08:38Z</time>
      </trkpt>
      <trkpt lat="43.5037" lon="1.39136">
        <ele>141.93</ele>
        <time>2016-12-14T15:08:47Z</time>
      </trkpt>
      <trkpt lat="43.50312" lon="1.3915">
        <ele>141.93</ele>
        <time>2016-12-14T15:09:00Z</time>
      </trkpt>
      <trkpt lat="43.50241" lon="1.39169">
        <ele>142.89</ele>
        <time>2016-12-14T15:09:15Z</time>
      </trkpt>
      <trkpt lat="43.50163" lon="1.3919">
        <ele>142.89</ele>
        <time>2016-12-14T15:09:30Z</time>
      </trkpt>
      <trkpt lat="43.5009" lon="1.39211">
        <ele>142.89</ele>
        <time>2016-12-14T15:09:45Z</time>
      </trkpt>
      <trkpt lat="43.50075" lon="1.39217">
        <ele>142.89</ele>
        <time>2016-12-14T15:09:48Z</time>
      </trkpt>
      <trkpt lat="43.50071" lon="1.3922">
        <ele>142.89</ele>
        <time>2016-12-14T15:09:49Z</time>
      </trkpt>
      <trkpt lat="43.50067" lon="1.39223">
        <ele>142.89</ele>
        <time>2016-12-14T15:09:50Z</time>
      </trkpt>
      <trkpt lat="43.50062" lon="1.39225">
        <ele>142.89</ele>
        <time>2016-12-14T15:09:51Z</time>
      </trkpt>
      <trkpt lat="43.50058" lon="1.39226">
        <ele>142.89</ele>
        <time>2016-12-14T15:09:52Z</time>
      </trkpt>
      <trkpt lat="43.50053" lon="1.39226">
        <ele>142.89</ele>
        <time>2016-12-14T15:09:53Z</time>
      </trkpt>
      <trkpt lat="43.50048" lon="1.39228">
        <ele>142.89</ele>
        <time>2016-12-14T15:09:54Z</time>
      </trkpt>
      <trkpt lat="43.50043" lon="1.39229">
        <ele>142.89</ele>
        <time>2016-12-14T15:09:55Z</time>
      </trkpt>
      <trkpt lat="43.50038" lon="1.39229">
        <ele>142.89</ele>
        <time>2016-12-14T15:09:56Z</time>
      </trkpt>
      <trkpt lat="43.50033" lon="1.39228">
        <ele>142.89</ele>
        <time>2016-12-14T15:09:57Z</time>
      </trkpt>
      <trkpt lat="43.50028" lon="1.39227">
        <ele>142.89</ele>
        <time>2016-12-14T15:09:58Z</time>
      </trkpt>
      <trkpt lat="43.50019" lon="1.39227">
        <ele>142.89</ele>
        <time>2016-12-14T15:10:00Z</time>
      </trkpt>
      <trkpt lat="43.49945" lon="1.39247">
        <ele>142.89</ele>
        <time>2016-12-14T15:10:15Z</time>
      </trkpt>
      <trkpt lat="43.49925" lon="1.39253">
        <ele>142.89</ele>
        <time>2016-12-14T15:10:19Z</time>
      </trkpt>
      <trkpt lat="43.4992" lon="1.39255">
        <ele>142.89</ele>
        <time>2016-12-14T15:10:20Z</time>
      </trkpt>
      <trkpt lat="43.49911" lon="1.39261">
        <ele>142.89</ele>
        <time>2016-12-14T15:10:22Z</time>
      </trkpt>
      <trkpt lat="43.49907" lon="1.39265">
        <ele>142.89</ele>
        <time>2016-12-14T15:10:23Z</time>
      </trkpt>
      <trkpt lat="43.49904" lon="1.39272">
        <ele>142.89</ele>
        <time>2016-12-14T15:10:24Z</time>
      </trkpt>
      <trkpt lat="43.49902" lon="1.39278">
        <ele>142.89</ele>
        <time>2016-12-14T15:10:25Z</time>
      </trkpt>
      <trkpt lat="43.499" lon="1.39285">
        <ele>142.89</ele>
        <time>2016-12-14T15:10:26Z</time>
      </trkpt>
      <trkpt lat="43.49897" lon="1.39291">
        <ele>142.89</ele>
        <time>2016-12-14T15:10:27Z</time>
      </trkpt>
      <trkpt lat="43.49895" lon="1.39298">
        <ele>142.89</ele>
        <time>2016-12-14T15:10:28Z</time>
      </trkpt>
      <trkpt lat="43.49892" lon="1.39303">
        <ele>142.89</ele>
        <time>2016-12-14T15:10:29Z</time>
      </trkpt>
      <trkpt lat="43.49889" lon="1.39309">
        <ele>142.89</ele>
        <time>2016-12-14T15:10:30Z</time>
      </trkpt>
      <trkpt lat="43.49847" lon="1.39385">
        <ele>142.89</ele>
        <time>2016-12-14T15:10:43Z</time>
      </trkpt>
      <trkpt lat="43.49843" lon="1.39391">
        <ele>142.89</ele>
        <time>2016-12-14T15:10:44Z</time>
      </trkpt>
      <trkpt lat="43.49798" lon="1.39478">
        <ele>141.93</ele>
        <time>2016-12-14T15:10:59Z</time>
      </trkpt>
      <trkpt lat="43.49768" lon="1.39536">
        <ele>141.93</ele>
        <time>2016-12-14T15:11:13Z</time>
      </trkpt>
      <trkpt lat="43.49758" lon="1.39544">
        <ele>141.93</ele>
        <time>2016-12-14T15:11:16Z</time>
      </trkpt>
      <trkpt lat="43.49755" lon="1.39548">
        <ele>141.93</ele>
        <time>2016-12-14T15:11:17Z</time>
      </trkpt>
      <trkpt lat="43.49723" lon="1.39606">
        <ele>141.93</ele>
        <time>2016-12-14T15:11:29Z</time>
      </trkpt>
      <trkpt lat="43.49721" lon="1.39612">
        <ele>141.93</ele>
        <time>2016-12-14T15:11:30Z</time>
      </trkpt>
      <trkpt lat="43.4972" lon="1.39618">
        <ele>141.93</ele>
        <time>2016-12-14T15:11:31Z</time>
      </trkpt>
      <trkpt lat="43.49719" lon="1.39624">
        <ele>141.93</ele>
        <time>2016-12-14T15:11:32Z</time>
      </trkpt>
      <trkpt lat="43.49716" lon="1.3963">
        <ele>141.93</ele>
        <time>2016-12-14T15:11:33Z</time>
      </trkpt>
      <trkpt lat="43.49714" lon="1.39636">
        <ele>141.93</ele>
        <time>2016-12-14T15:11:34Z</time>
      </trkpt>
      <trkpt lat="43.49711" lon="1.39641">
        <ele>141.93</ele>
        <time>2016-12-14T15:11:35Z</time>
      </trkpt>
      <trkpt lat="43.49669" lon="1.39723">
        <ele>141.93</ele>
        <time>2016-12-14T15:11:50Z</time>
      </trkpt>
      <trkpt lat="43.49667" lon="1.39728">
        <ele>141.93</ele>
        <time>2016-12-14T15:11:51Z</time>
      </trkpt>
      <trkpt lat="43.49663" lon="1.39733">
        <ele>141.93</ele>
        <time>2016-12-14T15:11:52Z</time>
      </trkpt>
      <trkpt lat="43.4965" lon="1.39757">
        <ele>141.93</ele>
        <time>2016-12-14T15:11:57Z</time>
      </trkpt>
      <trkpt lat="43.49647" lon="1.39762">
        <ele>141.93</ele>
        <time>2016-12-14T15:11:58Z</time>
      </trkpt>
      <trkpt lat="43.4961" lon="1.39833">
        <ele>141.93</ele>
        <time>2016-12-14T15:12:12Z</time>
      </trkpt>
      <trkpt lat="43.49575" lon="1.39885">
        <ele>141.93</ele>
        <time>2016-12-14T15:12:23Z</time>
      </trkpt>
      <trkpt lat="43.49526" lon="1.39957">
        <ele>141.93</ele>
        <time>2016-12-14T15:12:38Z</time>
      </trkpt>
      <trkpt lat="43.49516" lon="1.39971">
        <ele>141.93</ele>
        <time>2016-12-14T15:12:41Z</time>
      </trkpt>
      <trkpt lat="43.49512" lon="1.39975">
        <ele>141.93</ele>
        <time>2016-12-14T15:12:42Z</time>
      </trkpt>
      <trkpt lat="43.49463" lon="1.40036">
        <ele>141.93</ele>
        <time>2016-12-14T15:12:55Z</time>
      </trkpt>
      <trkpt lat="43.4941" lon="1.401">
        <ele>141.93</ele>
        <time>2016-12-14T15:13:09Z</time>
      </trkpt>
      <trkpt lat="43.49397" lon="1.40119">
        <ele>141.93</ele>
        <time>2016-12-14T15:13:13Z</time>
      </trkpt>
      <trkpt lat="43.49393" lon="1.40124">
        <ele>141.93</ele>
        <time>2016-12-14T15:13:14Z</time>
      </trkpt>
      <trkpt lat="43.49388" lon="1.40128">
        <ele>141.93</ele>
        <time>2016-12-14T15:13:15Z</time>
      </trkpt>
      <trkpt lat="43.49384" lon="1.40131">
        <ele>141.93</ele>
        <time>2016-12-14T15:13:16Z</time>
      </trkpt>
      <trkpt lat="43.4938" lon="1.40136">
        <ele>141.93</ele>
        <time>2016-12-14T15:13:17Z</time>
      </trkpt>
      <trkpt lat="43.49377" lon="1.4014">
        <ele>141.93</ele>
        <time>2016-12-14T15:13:18Z</time>
      </trkpt>
      <trkpt lat="43.49307" lon="1.40228">
        <ele>141.93</ele>
        <time>2016-12-14T15:13:38Z</time>
      </trkpt>
      <trkpt lat="43.4924" lon="1.40311">
        <ele>142.89</ele>
        <time>2016-12-14T15:13:57Z</time>
      </trkpt>
      <trkpt lat="43.49215" lon="1.40342">
        <ele>142.89</ele>
        <time>2016-12-14T15:14:04Z</time>
      </trkpt>
      <trkpt lat="43.49211" lon="1.40345">
        <ele>142.89</ele>
        <time>2016-12-14T15:14:05Z</time>
      </trkpt>
      <trkpt lat="43.49207" lon="1.40348">
        <ele>142.89</ele>
        <time>2016-12-14T15:14:06Z</time>
      </trkpt>
      <trkpt lat="43.49202" lon="1.40351">
        <ele>142.89</ele>
        <time>2016-12-14T15:14:07Z</time>
      </trkpt>
      <trkpt lat="43.49198" lon="1.40351">
        <ele>142.89</ele>
        <time>2016-12-14T15:14:08Z</time>
      </trkpt>
      <trkpt lat="43.49193" lon="1.40351">
        <ele>142.89</ele>
        <time>2016-12-14T15:14:09Z</time>
      </trkpt>
      <trkpt lat="43.49188" lon="1.40349">
        <ele>142.89</ele>
        <time>2016-12-14T15:14:10Z</time>
      </trkpt>
      <trkpt lat="43.49183" lon="1.40346">
        <ele>142.89</ele>
        <time>2016-12-14T15:14:11Z</time>
      </trkpt>
      <trkpt lat="43.49179" lon="1.40342">
        <ele>142.89</ele>
        <time>2016-12-14T15:14:12Z</time>
      </trkpt>
      <trkpt lat="43.49175" lon="1.40337">
        <ele>142.89</ele>
        <time>2016-12-14T15:14:13Z</time>
      </trkpt>
      <trkpt lat="43.49172" lon="1.40332">
        <ele>142.89</ele>
        <time>2016-12-14T15:14:14Z</time>
      </trkpt>
      <trkpt lat="43.49091" lon="1.4022">
        <ele>143.85</ele>
        <time>2016-12-14T15:14:34Z</time>
      </trkpt>
      <trkpt lat="43.49013" lon="1.40114">
        <ele>142.89</ele>
        <time>2016-12-14T15:14:52Z</time>
      </trkpt>
      <trkpt lat="43.48921" lon="1.40013">
        <ele>142.89</ele>
        <time>2016-12-14T15:15:12Z</time>
      </trkpt>
      <trkpt lat="43.48862" lon="1.39959">
        <ele>142.89</ele>
        <time>2016-12-14T15:15:24Z</time>
      </trkpt>
      <trkpt lat="43.48858" lon="1.39953">
        <ele>142.89</ele>
        <time>2016-12-14T15:15:25Z</time>
      </trkpt>
      <trkpt lat="43.48855" lon="1.39947">
        <ele>142.89</ele>
        <time>2016-12-14T15:15:26Z</time>
      </trkpt>
      <trkpt lat="43.48852" lon="1.3994">
        <ele>142.89</ele>
        <time>2016-12-14T15:15:27Z</time>
      </trkpt>
      <trkpt lat="43.4885" lon="1.39933">
        <ele>142.89</ele>
        <time>2016-12-14T15:15:28Z</time>
      </trkpt>
      <trkpt lat="43.48848" lon="1.39926">
        <ele>142.89</ele>
        <time>2016-12-14T15:15:29Z</time>
      </trkpt>
      <trkpt lat="43.48846" lon="1.39919">
        <ele>142.89</ele>
        <time>2016-12-14T15:15:30Z</time>
      </trkpt>
      <trkpt lat="43.48846" lon="1.39912">
        <ele>142.89</ele>
        <time>2016-12-14T15:15:31Z</time>
      </trkpt>
      <trkpt lat="43.48845" lon="1.39906">
        <ele>142.89</ele>
        <time>2016-12-14T15:15:32Z</time>
      </trkpt>
      <trkpt lat="43.48846" lon="1.39901">
        <ele>142.89</ele>
        <time>2016-12-14T15:15:33Z</time>
      </trkpt>
      <trkpt lat="43.48847" lon="1.39897">
        <ele>142.89</ele>
        <time>2016-12-14T15:15:34Z</time>
      </trkpt>
      <trkpt lat="43.48847" lon="1.39895">
        <ele>142.89</ele>
        <time>2016-12-14T15:15:35Z</time>
      </trkpt>
      <trkpt lat="43.48848" lon="1.39894">
        <ele>142.89</ele>
        <time>2016-12-14T15:15:41Z</time>
      </trkpt>
      <trkpt lat="43.48852" lon="1.39888">
        <ele>142.89</ele>
        <time>2016-12-14T15:15:44Z</time>
      </trkpt>
      <trkpt lat="43.48854" lon="1.39885">
        <ele>142.89</ele>
        <time>2016-12-14T15:15:45Z</time>
      </trkpt>
      <trkpt lat="43.48855" lon="1.39883">
        <ele>143.85</ele>
        <time>2016-12-14T15:15:46Z</time>
      </trkpt>
      <trkpt lat="43.48858" lon="1.3988">
        <ele>143.85</ele>
        <time>2016-12-14T15:15:51Z</time>
      </trkpt>
      <trkpt lat="43.48857" lon="1.39866">
        <ele>143.85</ele>
        <time>2016-12-14T15:16:00Z</time>
      </trkpt>
      <trkpt lat="43.48856" lon="1.39862">
        <ele>143.85</ele>
        <time>2016-12-14T15:16:01Z</time>
      </trkpt>
      <trkpt lat="43.48855" lon="1.39857">
        <ele>143.85</ele>
        <time>2016-12-14T15:16:02Z</time>
      </trkpt>
      <trkpt lat="43.48854" lon="1.39851">
        <ele>143.85</ele>
        <time>2016-12-14T15:16:03Z</time>
      </trkpt>
      <trkpt lat="43.48852" lon="1.39846">
        <ele>143.85</ele>
        <time>2016-12-14T15:16:04Z</time>
      </trkpt>
      <trkpt lat="43.48849" lon="1.39841">
        <ele>143.85</ele>
        <time>2016-12-14T15:16:05Z</time>
      </trkpt>
      <trkpt lat="43.48845" lon="1.39837">
        <ele>143.85</ele>
        <time>2016-12-14T15:16:06Z</time>
      </trkpt>
      <trkpt lat="43.48841" lon="1.39834">
        <ele>143.85</ele>
        <time>2016-12-14T15:16:07Z</time>
      </trkpt>
      <trkpt lat="43.48836" lon="1.39832">
        <ele>143.85</ele>
        <time>2016-12-14T15:16:08Z</time>
      </trkpt>
      <trkpt lat="43.48831" lon="1.39832">
        <ele>143.85</ele>
        <time>2016-12-14T15:16:09Z</time>
      </trkpt>
      <trkpt lat="43.48826" lon="1.39833">
        <ele>143.85</ele>
        <time>2016-12-14T15:16:10Z</time>
      </trkpt>
      <trkpt lat="43.48821" lon="1.39836">
        <ele>143.85</ele>
        <time>2016-12-14T15:16:11Z</time>
      </trkpt>
      <trkpt lat="43.48817" lon="1.3984">
        <ele>143.85</ele>
        <time>2016-12-14T15:16:12Z</time>
      </trkpt>
      <trkpt lat="43.48812" lon="1.39845">
        <ele>143.85</ele>
        <time>2016-12-14T15:16:13Z</time>
      </trkpt>
      <trkpt lat="43.48809" lon="1.39851">
        <ele>143.85</ele>
        <time>2016-12-14T15:16:14Z</time>
      </trkpt>
      <trkpt lat="43.48806" lon="1.39857">
        <ele>143.85</ele>
        <time>2016-12-14T15:16:15Z</time>
      </trkpt>
      <trkpt lat="43.48803" lon="1.39863">
        <ele>143.85</ele>
        <time>2016-12-14T15:16:16Z</time>
      </trkpt>
      <trkpt lat="43.488" lon="1.39868">
        <ele>143.85</ele>
        <time>2016-12-14T15:16:17Z</time>
      </trkpt>
      <trkpt lat="43.48795" lon="1.39873">
        <ele>143.85</ele>
        <time>2016-12-14T15:16:18Z</time>
      </trkpt>
      <trkpt lat="43.48791" lon="1.39876">
        <ele>143.85</ele>
        <time>2016-12-14T15:16:19Z</time>
      </trkpt>
      <trkpt lat="43.48703" lon="1.39925">
        <ele>142.89</ele>
        <time>2016-12-14T15:16:38Z</time>
      </trkpt>
      <trkpt lat="43.48606" lon="1.39975">
        <ele>143.85</ele>
        <time>2016-12-14T15:16:58Z</time>
      </trkpt>
      <trkpt lat="43.48509" lon="1.40023">
        <ele>143.85</ele>
        <time>2016-12-14T15:17:16Z</time>
      </trkpt>
      <trkpt lat="43.48418" lon="1.40071">
        <ele>144.82</ele>
        <time>2016-12-14T15:17:34Z</time>
      </trkpt>
      <trkpt lat="43.48397" lon="1.40068">
        <ele>144.82</ele>
        <time>2016-12-14T15:17:38Z</time>
      </trkpt>
      <trkpt lat="43.48284" lon="1.40024">
        <ele>143.85</ele>
        <time>2016-12-14T15:17:57Z</time>
      </trkpt>
      <trkpt lat="43.48208" lon="1.39996">
        <ele>144.82</ele>
        <time>2016-12-14T15:18:11Z</time>
      </trkpt>
      <trkpt lat="43.48126" lon="1.39964">
        <ele>145.78</ele>
        <time>2016-12-14T15:18:26Z</time>
      </trkpt>
      <trkpt lat="43.48045" lon="1.3989">
        <ele>147.22</ele>
        <time>2016-12-14T15:18:44Z</time>
      </trkpt>
      <trkpt lat="43.48006" lon="1.39862">
        <ele>147.22</ele>
        <time>2016-12-14T15:18:52Z</time>
      </trkpt>
      <trkpt lat="43.48001" lon="1.39861">
        <ele>147.22</ele>
        <time>2016-12-14T15:18:53Z</time>
      </trkpt>
      <trkpt lat="43.47996" lon="1.3986">
        <ele>147.22</ele>
        <time>2016-12-14T15:18:54Z</time>
      </trkpt>
      <trkpt lat="43.4799" lon="1.39859">
        <ele>147.22</ele>
        <time>2016-12-14T15:18:55Z</time>
      </trkpt>
      <trkpt lat="43.47985" lon="1.39859">
        <ele>147.22</ele>
        <time>2016-12-14T15:18:56Z</time>
      </trkpt>
      <trkpt lat="43.47979" lon="1.3986">
        <ele>147.22</ele>
        <time>2016-12-14T15:18:57Z</time>
      </trkpt>
      <trkpt lat="43.47974" lon="1.39861">
        <ele>147.22</ele>
        <time>2016-12-14T15:18:58Z</time>
      </trkpt>
      <trkpt lat="43.47968" lon="1.39863">
        <ele>147.22</ele>
        <time>2016-12-14T15:18:59Z</time>
      </trkpt>
      <trkpt lat="43.47885" lon="1.39881">
        <ele>147.22</ele>
        <time>2016-12-14T15:19:13Z</time>
      </trkpt>
      <trkpt lat="43.47804" lon="1.39854">
        <ele>147.22</ele>
        <time>2016-12-14T15:19:28Z</time>
      </trkpt>
      <trkpt lat="43.47698" lon="1.39814">
        <ele>147.22</ele>
        <time>2016-12-14T15:19:48Z</time>
      </trkpt>
      <trkpt lat="43.47611" lon="1.3978">
        <ele>148.18</ele>
        <time>2016-12-14T15:20:04Z</time>
      </trkpt>
      <trkpt lat="43.47527" lon="1.39767">
        <ele>148.18</ele>
        <time>2016-12-14T15:20:19Z</time>
      </trkpt>
      <trkpt lat="43.47459" lon="1.3977">
        <ele>148.18</ele>
        <time>2016-12-14T15:20:31Z</time>
      </trkpt>
      <trkpt lat="43.47394" lon="1.3977">
        <ele>149.14</ele>
        <time>2016-12-14T15:20:42Z</time>
      </trkpt>
      <trkpt lat="43.47389" lon="1.39767">
        <ele>149.14</ele>
        <time>2016-12-14T15:20:43Z</time>
      </trkpt>
      <trkpt lat="43.47384" lon="1.39763">
        <ele>149.14</ele>
        <time>2016-12-14T15:20:44Z</time>
      </trkpt>
      <trkpt lat="43.47379" lon="1.39759">
        <ele>149.14</ele>
        <time>2016-12-14T15:20:45Z</time>
      </trkpt>
      <trkpt lat="43.47374" lon="1.39757">
        <ele>149.14</ele>
        <time>2016-12-14T15:20:46Z</time>
      </trkpt>
      <trkpt lat="43.47369" lon="1.39757">
        <ele>149.14</ele>
        <time>2016-12-14T15:20:47Z</time>
      </trkpt>
      <trkpt lat="43.47364" lon="1.3976">
        <ele>149.14</ele>
        <time>2016-12-14T15:20:48Z</time>
      </trkpt>
      <trkpt lat="43.4736" lon="1.39764">
        <ele>149.14</ele>
        <time>2016-12-14T15:20:49Z</time>
      </trkpt>
      <trkpt lat="43.47356" lon="1.39768">
        <ele>149.14</ele>
        <time>2016-12-14T15:20:50Z</time>
      </trkpt>
      <trkpt lat="43.47351" lon="1.39771">
        <ele>149.14</ele>
        <time>2016-12-14T15:20:51Z</time>
      </trkpt>
      <trkpt lat="43.47345" lon="1.39773">
        <ele>149.14</ele>
        <time>2016-12-14T15:20:52Z</time>
      </trkpt>
      <trkpt lat="43.4734" lon="1.39774">
        <ele>149.14</ele>
        <time>2016-12-14T15:20:53Z</time>
      </trkpt>
      <trkpt lat="43.47334" lon="1.39775">
        <ele>149.14</ele>
        <time>2016-12-14T15:20:54Z</time>
      </trkpt>
      <trkpt lat="43.47328" lon="1.39775">
        <ele>149.14</ele>
        <time>2016-12-14T15:20:55Z</time>
      </trkpt>
      <trkpt lat="43.4722" lon="1.39776">
        <ele>149.14</ele>
        <time>2016-12-14T15:21:14Z</time>
      </trkpt>
      <trkpt lat="43.47133" lon="1.39777">
        <ele>149.14</ele>
        <time>2016-12-14T15:21:31Z</time>
      </trkpt>
      <trkpt lat="43.47007" lon="1.39783">
        <ele>150.1</ele>
        <time>2016-12-14T15:21:54Z</time>
      </trkpt>
      <trkpt lat="43.4696" lon="1.39786">
        <ele>151.06</ele>
        <time>2016-12-14T15:22:03Z</time>
      </trkpt>
      <trkpt lat="43.46954" lon="1.39786">
        <ele>151.06</ele>
        <time>2016-12-14T15:22:04Z</time>
      </trkpt>
      <trkpt lat="43.46885" lon="1.39787">
        <ele>152.03</ele>
        <time>2016-12-14T15:22:16Z</time>
      </trkpt>
      <trkpt lat="43.46782" lon="1.39779">
        <ele>152.03</ele>
        <time>2016-12-14T15:22:32Z</time>
      </trkpt>
      <trkpt lat="43.4668" lon="1.39771">
        <ele>151.06</ele>
        <time>2016-12-14T15:22:49Z</time>
      </trkpt>
      <trkpt lat="43.46674" lon="1.39771">
        <ele>151.06</ele>
        <time>2016-12-14T15:22:50Z</time>
      </trkpt>
      <trkpt lat="43.46579" lon="1.39762">
        <ele>152.03</ele>
        <time>2016-12-14T15:23:08Z</time>
      </trkpt>
      <trkpt lat="43.46499" lon="1.39756">
        <ele>152.03</ele>
        <time>2016-12-14T15:23:23Z</time>
      </trkpt>
      <trkpt lat="43.46466" lon="1.39752">
        <ele>152.03</ele>
        <time>2016-12-14T15:23:29Z</time>
      </trkpt>
      <trkpt lat="43.46461" lon="1.3975">
        <ele>152.03</ele>
        <time>2016-12-14T15:23:30Z</time>
      </trkpt>
      <trkpt lat="43.46456" lon="1.39746">
        <ele>152.03</ele>
        <time>2016-12-14T15:23:31Z</time>
      </trkpt>
      <trkpt lat="43.46451" lon="1.39742">
        <ele>152.03</ele>
        <time>2016-12-14T15:23:32Z</time>
      </trkpt>
      <trkpt lat="43.46447" lon="1.39738">
        <ele>152.03</ele>
        <time>2016-12-14T15:23:33Z</time>
      </trkpt>
      <trkpt lat="43.46442" lon="1.39734">
        <ele>152.03</ele>
        <time>2016-12-14T15:23:34Z</time>
      </trkpt>
      <trkpt lat="43.46437" lon="1.39732">
        <ele>152.99</ele>
        <time>2016-12-14T15:23:35Z</time>
      </trkpt>
      <trkpt lat="43.46432" lon="1.39732">
        <ele>152.99</ele>
        <time>2016-12-14T15:23:36Z</time>
      </trkpt>
      <trkpt lat="43.46426" lon="1.39734">
        <ele>152.99</ele>
        <time>2016-12-14T15:23:37Z</time>
      </trkpt>
      <trkpt lat="43.46421" lon="1.39738">
        <ele>152.99</ele>
        <time>2016-12-14T15:23:38Z</time>
      </trkpt>
      <trkpt lat="43.46416" lon="1.3974">
        <ele>152.99</ele>
        <time>2016-12-14T15:23:39Z</time>
      </trkpt>
      <trkpt lat="43.46411" lon="1.39742">
        <ele>152.99</ele>
        <time>2016-12-14T15:23:40Z</time>
      </trkpt>
      <trkpt lat="43.46406" lon="1.39743">
        <ele>152.99</ele>
        <time>2016-12-14T15:23:41Z</time>
      </trkpt>
      <trkpt lat="43.46379" lon="1.39745">
        <ele>152.99</ele>
        <time>2016-12-14T15:23:46Z</time>
      </trkpt>
      <trkpt lat="43.46374" lon="1.39744">
        <ele>152.99</ele>
        <time>2016-12-14T15:23:47Z</time>
      </trkpt>
      <trkpt lat="43.46282" lon="1.39735">
        <ele>153.95</ele>
        <time>2016-12-14T15:24:03Z</time>
      </trkpt>
      <trkpt lat="43.46276" lon="1.39734">
        <ele>153.95</ele>
        <time>2016-12-14T15:24:04Z</time>
      </trkpt>
      <trkpt lat="43.4627" lon="1.39734">
        <ele>153.95</ele>
        <time>2016-12-14T15:24:05Z</time>
      </trkpt>
      <trkpt lat="43.46186" lon="1.39727">
        <ele>153.95</ele>
        <time>2016-12-14T15:24:20Z</time>
      </trkpt>
      <trkpt lat="43.4618" lon="1.39726">
        <ele>153.95</ele>
        <time>2016-12-14T15:24:21Z</time>
      </trkpt>
      <trkpt lat="43.46175" lon="1.39726">
        <ele>153.95</ele>
        <time>2016-12-14T15:24:22Z</time>
      </trkpt>
      <trkpt lat="43.46169" lon="1.39724">
        <ele>153.95</ele>
        <time>2016-12-14T15:24:23Z</time>
      </trkpt>
      <trkpt lat="43.46164" lon="1.39723">
        <ele>153.95</ele>
        <time>2016-12-14T15:24:24Z</time>
      </trkpt>
      <trkpt lat="43.46073" lon="1.39693">
        <ele>153.95</ele>
        <time>2016-12-14T15:24:41Z</time>
      </trkpt>
      <trkpt lat="43.46046" lon="1.39685">
        <ele>153.95</ele>
        <time>2016-12-14T15:24:46Z</time>
      </trkpt>
      <trkpt lat="43.45996" lon="1.39671">
        <ele>154.91</ele>
        <time>2016-12-14T15:24:55Z</time>
      </trkpt>
      <trkpt lat="43.4599" lon="1.39669">
        <ele>154.91</ele>
        <time>2016-12-14T15:24:56Z</time>
      </trkpt>
      <trkpt lat="43.45985" lon="1.39667">
        <ele>154.91</ele>
        <time>2016-12-14T15:24:57Z</time>
      </trkpt>
      <trkpt lat="43.45914" lon="1.39646">
        <ele>153.95</ele>
        <time>2016-12-14T15:25:09Z</time>
      </trkpt>
      <trkpt lat="43.45831" lon="1.39619">
        <ele>154.91</ele>
        <time>2016-12-14T15:25:24Z</time>
      </trkpt>
      <trkpt lat="43.45803" lon="1.3961">
        <ele>154.91</ele>
        <time>2016-12-14T15:25:29Z</time>
      </trkpt>
      <trkpt lat="43.45798" lon="1.39609">
        <ele>154.91</ele>
        <time>2016-12-14T15:25:30Z</time>
      </trkpt>
      <trkpt lat="43.45708" lon="1.39582">
        <ele>154.91</ele>
        <time>2016-12-14T15:25:46Z</time>
      </trkpt>
      <trkpt lat="43.45624" lon="1.39556">
        <ele>154.91</ele>
        <time>2016-12-14T15:26:02Z</time>
      </trkpt>
      <trkpt lat="43.45524" lon="1.39515">
        <ele>155.87</ele>
        <time>2016-12-14T15:26:22Z</time>
      </trkpt>
      <trkpt lat="43.4552" lon="1.39512">
        <ele>155.87</ele>
        <time>2016-12-14T15:26:23Z</time>
      </trkpt>
      <trkpt lat="43.45435" lon="1.39449">
        <ele>155.87</ele>
        <time>2016-12-14T15:26:40Z</time>
      </trkpt>
      <trkpt lat="43.45365" lon="1.394">
        <ele>155.87</ele>
        <time>2016-12-14T15:26:53Z</time>
      </trkpt>
      <trkpt lat="43.45348" lon="1.3938">
        <ele>155.87</ele>
        <time>2016-12-14T15:26:57Z</time>
      </trkpt>
      <trkpt lat="43.45342" lon="1.39378">
        <ele>155.87</ele>
        <time>2016-12-14T15:26:58Z</time>
      </trkpt>
      <trkpt lat="43.45337" lon="1.39376">
        <ele>155.87</ele>
        <time>2016-12-14T15:26:59Z</time>
      </trkpt>
      <trkpt lat="43.45333" lon="1.39378">
        <ele>155.87</ele>
        <time>2016-12-14T15:27:00Z</time>
      </trkpt>
      <trkpt lat="43.4533" lon="1.39382">
        <ele>155.87</ele>
        <time>2016-12-14T15:27:01Z</time>
      </trkpt>
      <trkpt lat="43.45327" lon="1.39389">
        <ele>155.87</ele>
        <time>2016-12-14T15:27:02Z</time>
      </trkpt>
      <trkpt lat="43.45326" lon="1.39396">
        <ele>155.87</ele>
        <time>2016-12-14T15:27:03Z</time>
      </trkpt>
      <trkpt lat="43.45324" lon="1.39403">
        <ele>155.87</ele>
        <time>2016-12-14T15:27:04Z</time>
      </trkpt>
      <trkpt lat="43.45308" lon="1.39471">
        <ele>154.91</ele>
        <time>2016-12-14T15:27:13Z</time>
      </trkpt>
      <trkpt lat="43.45283" lon="1.3955">
        <ele>154.91</ele>
        <time>2016-12-14T15:27:25Z</time>
      </trkpt>
      <trkpt lat="43.45252" lon="1.39638">
        <ele>154.91</ele>
        <time>2016-12-14T15:27:38Z</time>
      </trkpt>
      <trkpt lat="43.4525" lon="1.39645">
        <ele>154.91</ele>
        <time>2016-12-14T15:27:39Z</time>
      </trkpt>
      <trkpt lat="43.45215" lon="1.39743">
        <ele>154.91</ele>
        <time>2016-12-14T15:27:53Z</time>
      </trkpt>
      <trkpt lat="43.452" lon="1.39811">
        <ele>154.91</ele>
        <time>2016-12-14T15:28:03Z</time>
      </trkpt>
      <trkpt lat="43.452" lon="1.39827">
        <ele>154.91</ele>
        <time>2016-12-14T15:28:05Z</time>
      </trkpt>
      <trkpt lat="43.45203" lon="1.39885">
        <ele>154.91</ele>
        <time>2016-12-14T15:28:15Z</time>
      </trkpt>
      <trkpt lat="43.45206" lon="1.3989">
        <ele>154.91</ele>
        <time>2016-12-14T15:28:16Z</time>
      </trkpt>
      <trkpt lat="43.45209" lon="1.39895">
        <ele>154.91</ele>
        <time>2016-12-14T15:28:17Z</time>
      </trkpt>
      <trkpt lat="43.45219" lon="1.3991">
        <ele>154.91</ele>
        <time>2016-12-14T15:28:20Z</time>
      </trkpt>
      <trkpt lat="43.4522" lon="1.39916">
        <ele>154.91</ele>
        <time>2016-12-14T15:28:21Z</time>
      </trkpt>
      <trkpt lat="43.45221" lon="1.39922">
        <ele>154.91</ele>
        <time>2016-12-14T15:28:22Z</time>
      </trkpt>
      <trkpt lat="43.45222" lon="1.39985">
        <ele>154.91</ele>
        <time>2016-12-14T15:28:34Z</time>
      </trkpt>
      <trkpt lat="43.45223" lon="1.39995">
        <ele>153.95</ele>
        <time>2016-12-14T15:28:42Z</time>
      </trkpt>
      <trkpt lat="43.45228" lon="1.40003">
        <ele>153.95</ele>
        <time>2016-12-14T15:29:14Z</time>
      </trkpt>
      <trkpt lat="43.45229" lon="1.40009">
        <ele>153.95</ele>
        <time>2016-12-14T15:29:16Z</time>
      </trkpt>
      <trkpt lat="43.4523" lon="1.40013">
        <ele>153.95</ele>
        <time>2016-12-14T15:29:17Z</time>
      </trkpt>
      <trkpt lat="43.45238" lon="1.40043">
        <ele>152.99</ele>
        <time>2016-12-14T15:29:23Z</time>
      </trkpt>
      <trkpt lat="43.45238" lon="1.40049">
        <ele>152.99</ele>
        <time>2016-12-14T15:29:24Z</time>
      </trkpt>
      <trkpt lat="43.45241" lon="1.40062">
        <ele>152.99</ele>
        <time>2016-12-14T15:29:26Z</time>
      </trkpt>
      <trkpt lat="43.45242" lon="1.40069">
        <ele>152.99</ele>
        <time>2016-12-14T15:29:27Z</time>
      </trkpt>
      <trkpt lat="43.45242" lon="1.40075">
        <ele>152.99</ele>
        <time>2016-12-14T15:29:28Z</time>
      </trkpt>
      <trkpt lat="43.45243" lon="1.40081">
        <ele>152.99</ele>
        <time>2016-12-14T15:29:29Z</time>
      </trkpt>
      <trkpt lat="43.45244" lon="1.40087">
        <ele>152.99</ele>
        <time>2016-12-14T15:29:30Z</time>
      </trkpt>
      <trkpt lat="43.45248" lon="1.40112">
        <ele>152.99</ele>
        <time>2016-12-14T15:29:34Z</time>
      </trkpt>
      <trkpt lat="43.45248" lon="1.40118">
        <ele>152.99</ele>
        <time>2016-12-14T15:29:35Z</time>
      </trkpt>
      <trkpt lat="43.4525" lon="1.4015">
        <ele>152.99</ele>
        <time>2016-12-14T15:29:44Z</time>
      </trkpt>
      <trkpt lat="43.45248" lon="1.40158">
        <ele>152.99</ele>
        <time>2016-12-14T15:29:48Z</time>
      </trkpt>
      <trkpt lat="43.45248" lon="1.40161">
        <ele>152.99</ele>
        <time>2016-12-14T15:29:49Z</time>
      </trkpt>
      <trkpt lat="43.45249" lon="1.40165">
        <ele>152.99</ele>
        <time>2016-12-14T15:29:50Z</time>
      </trkpt>
      <trkpt lat="43.45251" lon="1.40168">
        <ele>152.99</ele>
        <time>2016-12-14T15:29:51Z</time>
      </trkpt>
      <trkpt lat="43.45253" lon="1.40172">
        <ele>152.99</ele>
        <time>2016-12-14T15:29:52Z</time>
      </trkpt>
      <trkpt lat="43.45254" lon="1.40178">
        <ele>152.99</ele>
        <time>2016-12-14T15:29:53Z</time>
      </trkpt>
      <trkpt lat="43.45256" lon="1.40184">
        <ele>152.99</ele>
        <time>2016-12-14T15:29:54Z</time>
      </trkpt>
      <trkpt lat="43.45257" lon="1.4019">
        <ele>152.99</ele>
        <time>2016-12-14T15:29:55Z</time>
      </trkpt>
      <trkpt lat="43.45261" lon="1.40212">
        <ele>152.99</ele>
        <time>2016-12-14T15:29:58Z</time>
      </trkpt>
      <trkpt lat="43.45266" lon="1.40293">
        <ele>152.99</ele>
        <time>2016-12-14T15:30:09Z</time>
      </trkpt>
      <trkpt lat="43.45265" lon="1.40301">
        <ele>152.99</ele>
        <time>2016-12-14T15:30:10Z</time>
      </trkpt>
      <trkpt lat="43.45264" lon="1.40309">
        <ele>152.99</ele>
        <time>2016-12-14T15:30:11Z</time>
      </trkpt>
      <trkpt lat="43.4524" lon="1.40431">
        <ele>152.99</ele>
        <time>2016-12-14T15:30:27Z</time>
      </trkpt>
      <trkpt lat="43.45231" lon="1.40464">
        <ele>152.99</ele>
        <time>2016-12-14T15:30:32Z</time>
      </trkpt>
      <trkpt lat="43.45225" lon="1.40484">
        <ele>152.99</ele>
        <time>2016-12-14T15:30:35Z</time>
      </trkpt>
      <trkpt lat="43.45186" lon="1.40595">
        <ele>152.03</ele>
        <time>2016-12-14T15:30:52Z</time>
      </trkpt>
      <trkpt lat="43.45158" lon="1.40647">
        <ele>152.99</ele>
        <time>2016-12-14T15:31:01Z</time>
      </trkpt>
      <trkpt lat="43.45156" lon="1.40651">
        <ele>152.99</ele>
        <time>2016-12-14T15:31:02Z</time>
      </trkpt>
      <trkpt lat="43.45155" lon="1.40654">
        <ele>152.99</ele>
        <time>2016-12-14T15:31:03Z</time>
      </trkpt>
      <trkpt lat="43.45155" lon="1.40657">
        <ele>152.99</ele>
        <time>2016-12-14T15:31:04Z</time>
      </trkpt>
      <trkpt lat="43.45156" lon="1.40659">
        <ele>152.99</ele>
        <time>2016-12-14T15:31:05Z</time>
      </trkpt>
      <trkpt lat="43.45157" lon="1.40661">
        <ele>152.99</ele>
        <time>2016-12-14T15:31:06Z</time>
      </trkpt>
      <trkpt lat="43.45157" lon="1.40663">
        <ele>152.99</ele>
        <time>2016-12-14T15:31:07Z</time>
      </trkpt>
      <trkpt lat="43.45158" lon="1.40665">
        <ele>152.99</ele>
        <time>2016-12-14T15:31:08Z</time>
      </trkpt>
      <trkpt lat="43.45158" lon="1.40656">
        <ele>152.99</ele>
        <time>2016-12-14T15:31:12Z</time>
      </trkpt>
      <trkpt lat="43.45167" lon="1.40656">
        <ele>152.99</ele>
        <time>2016-12-14T15:31:15Z</time>
      </trkpt>
      <trkpt lat="43.45168" lon="1.40656">
        <ele>152.99</ele>
        <time>2016-12-14T15:31:16Z</time>
      </trkpt>
      <trkpt lat="43.45165" lon="1.40651">
        <ele>152.99</ele>
        <time>2016-12-14T15:31:26Z</time>
      </trkpt>
      <trkpt lat="43.45164" lon="1.4065">
        <ele>152.99</ele>
        <time>2016-12-14T15:31:29Z</time>
      </trkpt>
      <trkpt lat="43.4515" lon="1.40656">
        <ele>152.99</ele>
        <time>2016-12-14T15:31:57Z</time>
      </trkpt>
      <trkpt lat="43.45148" lon="1.40659">
        <ele>152.99</ele>
        <time>2016-12-14T15:31:58Z</time>
      </trkpt>
      <trkpt lat="43.45128" lon="1.40684">
        <ele>152.99</ele>
        <time>2016-12-14T15:32:05Z</time>
      </trkpt>
      <trkpt lat="43.45124" lon="1.40687">
        <ele>152.99</ele>
        <time>2016-12-14T15:32:06Z</time>
      </trkpt>
      <trkpt lat="43.45121" lon="1.40691">
        <ele>152.99</ele>
        <time>2016-12-14T15:32:07Z</time>
      </trkpt>
      <trkpt lat="43.45054" lon="1.40762">
        <ele>152.03</ele>
        <time>2016-12-14T15:32:24Z</time>
      </trkpt>
      <trkpt lat="43.44981" lon="1.40835">
        <ele>152.03</ele>
        <time>2016-12-14T15:32:42Z</time>
      </trkpt>
      <trkpt lat="43.44911" lon="1.40906">
        <ele>152.03</ele>
        <time>2016-12-14T15:33:00Z</time>
      </trkpt>
      <trkpt lat="43.4484" lon="1.40978">
        <ele>152.03</ele>
        <time>2016-12-14T15:33:18Z</time>
      </trkpt>
      <trkpt lat="43.44759" lon="1.41059">
        <ele>152.03</ele>
        <time>2016-12-14T15:33:38Z</time>
      </trkpt>
      <trkpt lat="43.44661" lon="1.41158">
        <ele>152.03</ele>
        <time>2016-12-14T15:34:04Z</time>
      </trkpt>
      <trkpt lat="43.44584" lon="1.41236">
        <ele>151.06</ele>
        <time>2016-12-14T15:34:24Z</time>
      </trkpt>
      <trkpt lat="43.44497" lon="1.41322">
        <ele>151.06</ele>
        <time>2016-12-14T15:34:46Z</time>
      </trkpt>
      <trkpt lat="43.44416" lon="1.41405">
        <ele>151.06</ele>
        <time>2016-12-14T15:35:07Z</time>
      </trkpt>
      <trkpt lat="43.44337" lon="1.41478">
        <ele>151.06</ele>
        <time>2016-12-14T15:35:26Z</time>
      </trkpt>
      <trkpt lat="43.4423" lon="1.41562">
        <ele>152.03</ele>
        <time>2016-12-14T15:35:51Z</time>
      </trkpt>
      <trkpt lat="43.44226" lon="1.41564">
        <ele>152.03</ele>
        <time>2016-12-14T15:35:52Z</time>
      </trkpt>
      <trkpt lat="43.44221" lon="1.41564">
        <ele>152.03</ele>
        <time>2016-12-14T15:35:53Z</time>
      </trkpt>
      <trkpt lat="43.44218" lon="1.41564">
        <ele>152.03</ele>
        <time>2016-12-14T15:35:54Z</time>
      </trkpt>
      <trkpt lat="43.44214" lon="1.41562">
        <ele>152.03</ele>
        <time>2016-12-14T15:35:55Z</time>
      </trkpt>
      <trkpt lat="43.44211" lon="1.4156">
        <ele>152.99</ele>
        <time>2016-12-14T15:35:56Z</time>
      </trkpt>
      <trkpt lat="43.44178" lon="1.41576">
        <ele>152.99</ele>
        <time>2016-12-14T15:36:07Z</time>
      </trkpt>
      <trkpt lat="43.44176" lon="1.41582">
        <ele>152.99</ele>
        <time>2016-12-14T15:36:08Z</time>
      </trkpt>
      <trkpt lat="43.44174" lon="1.41588">
        <ele>152.99</ele>
        <time>2016-12-14T15:36:09Z</time>
      </trkpt>
      <trkpt lat="43.44173" lon="1.41595">
        <ele>152.99</ele>
        <time>2016-12-14T15:36:10Z</time>
      </trkpt>
      <trkpt lat="43.44172" lon="1.41603">
        <ele>152.99</ele>
        <time>2016-12-14T15:36:11Z</time>
      </trkpt>
      <trkpt lat="43.44173" lon="1.4161">
        <ele>152.99</ele>
        <time>2016-12-14T15:36:12Z</time>
      </trkpt>
      <trkpt lat="43.44173" lon="1.41617">
        <ele>152.99</ele>
        <time>2016-12-14T15:36:13Z</time>
      </trkpt>
      <trkpt lat="43.44173" lon="1.41624">
        <ele>152.99</ele>
        <time>2016-12-14T15:36:14Z</time>
      </trkpt>
      <trkpt lat="43.44172" lon="1.41631">
        <ele>152.99</ele>
        <time>2016-12-14T15:36:15Z</time>
      </trkpt>
      <trkpt lat="43.4417" lon="1.41638">
        <ele>152.99</ele>
        <time>2016-12-14T15:36:16Z</time>
      </trkpt>
      <trkpt lat="43.44167" lon="1.41644">
        <ele>152.99</ele>
        <time>2016-12-14T15:36:17Z</time>
      </trkpt>
      <trkpt lat="43.44164" lon="1.41651">
        <ele>152.99</ele>
        <time>2016-12-14T15:36:18Z</time>
      </trkpt>
      <trkpt lat="43.44161" lon="1.41657">
        <ele>152.99</ele>
        <time>2016-12-14T15:36:19Z</time>
      </trkpt>
      <trkpt lat="43.44152" lon="1.41675">
        <ele>152.03</ele>
        <time>2016-12-14T15:36:22Z</time>
      </trkpt>
      <trkpt lat="43.44142" lon="1.41694">
        <ele>152.03</ele>
        <time>2016-12-14T15:36:25Z</time>
      </trkpt>
      <trkpt lat="43.4409" lon="1.41801">
        <ele>152.03</ele>
        <time>2016-12-14T15:36:43Z</time>
      </trkpt>
      <trkpt lat="43.44038" lon="1.41909">
        <ele>152.03</ele>
        <time>2016-12-14T15:37:01Z</time>
      </trkpt>
      <trkpt lat="43.44" lon="1.42001">
        <ele>152.03</ele>
        <time>2016-12-14T15:37:17Z</time>
      </trkpt>
      <trkpt lat="43.43966" lon="1.42106">
        <ele>152.03</ele>
        <time>2016-12-14T15:37:34Z</time>
      </trkpt>
      <trkpt lat="43.43923" lon="1.42237">
        <ele>152.03</ele>
        <time>2016-12-14T15:37:55Z</time>
      </trkpt>
      <trkpt lat="43.43887" lon="1.42344">
        <ele>152.99</ele>
        <time>2016-12-14T15:38:11Z</time>
      </trkpt>
      <trkpt lat="43.43847" lon="1.42467">
        <ele>152.99</ele>
        <time>2016-12-14T15:38:29Z</time>
      </trkpt>
      <trkpt lat="43.43809" lon="1.42573">
        <ele>151.06</ele>
        <time>2016-12-14T15:38:45Z</time>
      </trkpt>
      <trkpt lat="43.43807" lon="1.42577">
        <ele>151.06</ele>
        <time>2016-12-14T15:38:46Z</time>
      </trkpt>
      <trkpt lat="43.438" lon="1.42585">
        <ele>151.06</ele>
        <time>2016-12-14T15:38:48Z</time>
      </trkpt>
      <trkpt lat="43.43796" lon="1.42589">
        <ele>151.06</ele>
        <time>2016-12-14T15:38:49Z</time>
      </trkpt>
      <trkpt lat="43.43792" lon="1.42593">
        <ele>151.06</ele>
        <time>2016-12-14T15:38:50Z</time>
      </trkpt>
      <trkpt lat="43.43767" lon="1.42615">
        <ele>151.06</ele>
        <time>2016-12-14T15:39:01Z</time>
      </trkpt>
      <trkpt lat="43.43767" lon="1.42616">
        <ele>152.03</ele>
        <time>2016-12-14T15:39:03Z</time>
      </trkpt>
      <trkpt lat="43.43767" lon="1.42625">
        <ele>152.03</ele>
        <time>2016-12-14T15:39:06Z</time>
      </trkpt>
      <trkpt lat="43.43767" lon="1.42629">
        <ele>152.03</ele>
        <time>2016-12-14T15:39:07Z</time>
      </trkpt>
      <trkpt lat="43.43768" lon="1.42634">
        <ele>152.03</ele>
        <time>2016-12-14T15:39:08Z</time>
      </trkpt>
      <trkpt lat="43.4377" lon="1.42638">
        <ele>152.03</ele>
        <time>2016-12-14T15:39:09Z</time>
      </trkpt>
      <trkpt lat="43.43773" lon="1.42643">
        <ele>152.03</ele>
        <time>2016-12-14T15:39:10Z</time>
      </trkpt>
      <trkpt lat="43.43774" lon="1.4265">
        <ele>152.03</ele>
        <time>2016-12-14T15:39:11Z</time>
      </trkpt>
      <trkpt lat="43.43775" lon="1.42656">
        <ele>152.03</ele>
        <time>2016-12-14T15:39:12Z</time>
      </trkpt>
      <trkpt lat="43.43774" lon="1.42663">
        <ele>152.03</ele>
        <time>2016-12-14T15:39:13Z</time>
      </trkpt>
      <trkpt lat="43.43771" lon="1.42669">
        <ele>152.03</ele>
        <time>2016-12-14T15:39:14Z</time>
      </trkpt>
      <trkpt lat="43.43768" lon="1.42675">
        <ele>152.03</ele>
        <time>2016-12-14T15:39:15Z</time>
      </trkpt>
      <trkpt lat="43.43766" lon="1.42682">
        <ele>152.03</ele>
        <time>2016-12-14T15:39:16Z</time>
      </trkpt>
      <trkpt lat="43.43761" lon="1.42696">
        <ele>152.03</ele>
        <time>2016-12-14T15:39:18Z</time>
      </trkpt>
      <trkpt lat="43.43759" lon="1.42703">
        <ele>152.03</ele>
        <time>2016-12-14T15:39:19Z</time>
      </trkpt>
      <trkpt lat="43.43754" lon="1.42732">
        <ele>151.06</ele>
        <time>2016-12-14T15:39:23Z</time>
      </trkpt>
      <trkpt lat="43.43753" lon="1.42739">
        <ele>151.06</ele>
        <time>2016-12-14T15:39:24Z</time>
      </trkpt>
      <trkpt lat="43.43737" lon="1.42858">
        <ele>151.06</ele>
        <time>2016-12-14T15:39:41Z</time>
      </trkpt>
      <trkpt lat="43.43736" lon="1.42865">
        <ele>151.06</ele>
        <time>2016-12-14T15:39:42Z</time>
      </trkpt>
      <trkpt lat="43.43734" lon="1.42878">
        <ele>151.06</ele>
        <time>2016-12-14T15:39:44Z</time>
      </trkpt>
      <trkpt lat="43.43732" lon="1.42891">
        <ele>151.06</ele>
        <time>2016-12-14T15:39:46Z</time>
      </trkpt>
      <trkpt lat="43.43731" lon="1.42897">
        <ele>151.06</ele>
        <time>2016-12-14T15:39:47Z</time>
      </trkpt>
      <trkpt lat="43.43724" lon="1.42938">
        <ele>151.06</ele>
        <time>2016-12-14T15:39:53Z</time>
      </trkpt>
      <trkpt lat="43.43722" lon="1.42944">
        <ele>151.06</ele>
        <time>2016-12-14T15:39:54Z</time>
      </trkpt>
      <trkpt lat="43.4372" lon="1.42949">
        <ele>152.03</ele>
        <time>2016-12-14T15:39:55Z</time>
      </trkpt>
      <trkpt lat="43.43667" lon="1.43055">
        <ele>152.03</ele>
        <time>2016-12-14T15:40:13Z</time>
      </trkpt>
      <trkpt lat="43.43629" lon="1.43132">
        <ele>151.06</ele>
        <time>2016-12-14T15:40:25Z</time>
      </trkpt>
      <trkpt lat="43.43616" lon="1.43148">
        <ele>151.06</ele>
        <time>2016-12-14T15:40:28Z</time>
      </trkpt>
      <trkpt lat="43.43593" lon="1.43169">
        <ele>151.06</ele>
        <time>2016-12-14T15:40:33Z</time>
      </trkpt>
      <trkpt lat="43.43529" lon="1.43247">
        <ele>151.06</ele>
        <time>2016-12-14T15:40:49Z</time>
      </trkpt>
      <trkpt lat="43.43519" lon="1.43262">
        <ele>151.06</ele>
        <time>2016-12-14T15:40:52Z</time>
      </trkpt>
      <trkpt lat="43.43487" lon="1.43292">
        <ele>152.03</ele>
        <time>2016-12-14T15:41:00Z</time>
      </trkpt>
      <trkpt lat="43.43482" lon="1.43294">
        <ele>152.03</ele>
        <time>2016-12-14T15:41:01Z</time>
      </trkpt>
      <trkpt lat="43.43477" lon="1.43295">
        <ele>152.03</ele>
        <time>2016-12-14T15:41:02Z</time>
      </trkpt>
      <trkpt lat="43.43472" lon="1.43295">
        <ele>152.03</ele>
        <time>2016-12-14T15:41:03Z</time>
      </trkpt>
      <trkpt lat="43.43467" lon="1.43294">
        <ele>152.03</ele>
        <time>2016-12-14T15:41:04Z</time>
      </trkpt>
      <trkpt lat="43.43463" lon="1.43292">
        <ele>152.03</ele>
        <time>2016-12-14T15:41:05Z</time>
      </trkpt>
      <trkpt lat="43.43458" lon="1.4329">
        <ele>152.03</ele>
        <time>2016-12-14T15:41:06Z</time>
      </trkpt>
      <trkpt lat="43.43439" lon="1.4328">
        <ele>152.03</ele>
        <time>2016-12-14T15:41:10Z</time>
      </trkpt>
      <trkpt lat="43.4341" lon="1.43264">
        <ele>152.99</ele>
        <time>2016-12-14T15:41:16Z</time>
      </trkpt>
      <trkpt lat="43.43405" lon="1.43262">
        <ele>152.99</ele>
        <time>2016-12-14T15:41:17Z</time>
      </trkpt>
      <trkpt lat="43.43401" lon="1.43261">
        <ele>152.99</ele>
        <time>2016-12-14T15:41:18Z</time>
      </trkpt>
      <trkpt lat="43.43396" lon="1.43261">
        <ele>152.99</ele>
        <time>2016-12-14T15:41:19Z</time>
      </trkpt>
      <trkpt lat="43.43391" lon="1.43261">
        <ele>152.99</ele>
        <time>2016-12-14T15:41:20Z</time>
      </trkpt>
      <trkpt lat="43.43385" lon="1.43262">
        <ele>152.99</ele>
        <time>2016-12-14T15:41:21Z</time>
      </trkpt>
      <trkpt lat="43.4338" lon="1.43262">
        <ele>152.99</ele>
        <time>2016-12-14T15:41:22Z</time>
      </trkpt>
      <trkpt lat="43.43361" lon="1.43267">
        <ele>152.99</ele>
        <time>2016-12-14T15:41:28Z</time>
      </trkpt>
      <trkpt lat="43.43358" lon="1.43272">
        <ele>152.99</ele>
        <time>2016-12-14T15:41:29Z</time>
      </trkpt>
      <trkpt lat="43.43356" lon="1.43278">
        <ele>152.99</ele>
        <time>2016-12-14T15:41:30Z</time>
      </trkpt>
      <trkpt lat="43.43355" lon="1.43284">
        <ele>152.99</ele>
        <time>2016-12-14T15:41:31Z</time>
      </trkpt>
      <trkpt lat="43.43354" lon="1.43291">
        <ele>152.99</ele>
        <time>2016-12-14T15:41:32Z</time>
      </trkpt>
      <trkpt lat="43.43352" lon="1.43297">
        <ele>152.99</ele>
        <time>2016-12-14T15:41:33Z</time>
      </trkpt>
      <trkpt lat="43.43349" lon="1.43302">
        <ele>152.99</ele>
        <time>2016-12-14T15:41:34Z</time>
      </trkpt>
      <trkpt lat="43.43346" lon="1.43308">
        <ele>152.99</ele>
        <time>2016-12-14T15:41:35Z</time>
      </trkpt>
      <trkpt lat="43.43344" lon="1.43313">
        <ele>152.99</ele>
        <time>2016-12-14T15:41:36Z</time>
      </trkpt>
      <trkpt lat="43.43343" lon="1.4332">
        <ele>152.99</ele>
        <time>2016-12-14T15:41:37Z</time>
      </trkpt>
      <trkpt lat="43.43343" lon="1.43327">
        <ele>152.99</ele>
        <time>2016-12-14T15:41:38Z</time>
      </trkpt>
      <trkpt lat="43.43344" lon="1.43333">
        <ele>152.99</ele>
        <time>2016-12-14T15:41:39Z</time>
      </trkpt>
      <trkpt lat="43.43343" lon="1.43355">
        <ele>152.99</ele>
        <time>2016-12-14T15:41:42Z</time>
      </trkpt>
      <trkpt lat="43.4334" lon="1.43368">
        <ele>152.99</ele>
        <time>2016-12-14T15:41:44Z</time>
      </trkpt>
      <trkpt lat="43.43338" lon="1.43375">
        <ele>152.99</ele>
        <time>2016-12-14T15:41:45Z</time>
      </trkpt>
      <trkpt lat="43.43337" lon="1.43382">
        <ele>152.03</ele>
        <time>2016-12-14T15:41:46Z</time>
      </trkpt>
      <trkpt lat="43.43327" lon="1.43434">
        <ele>152.03</ele>
        <time>2016-12-14T15:41:53Z</time>
      </trkpt>
      <trkpt lat="43.43305" lon="1.43529">
        <ele>152.03</ele>
        <time>2016-12-14T15:42:08Z</time>
      </trkpt>
      <trkpt lat="43.43287" lon="1.43605">
        <ele>153.95</ele>
        <time>2016-12-14T15:42:21Z</time>
      </trkpt>
      <trkpt lat="43.43256" lon="1.43721">
        <ele>154.91</ele>
        <time>2016-12-14T15:42:40Z</time>
      </trkpt>
      <trkpt lat="43.4323" lon="1.43833">
        <ele>154.91</ele>
        <time>2016-12-14T15:42:55Z</time>
      </trkpt>
      <trkpt lat="43.43216" lon="1.439">
        <ele>152.99</ele>
        <time>2016-12-14T15:43:03Z</time>
      </trkpt>
      <trkpt lat="43.43215" lon="1.43908">
        <ele>152.03</ele>
        <time>2016-12-14T15:43:04Z</time>
      </trkpt>
      <trkpt lat="43.43215" lon="1.43917">
        <ele>152.03</ele>
        <time>2016-12-14T15:43:05Z</time>
      </trkpt>
      <trkpt lat="43.43218" lon="1.43959">
        <ele>151.06</ele>
        <time>2016-12-14T15:43:10Z</time>
      </trkpt>
      <trkpt lat="43.43241" lon="1.44031">
        <ele>151.06</ele>
        <time>2016-12-14T15:43:20Z</time>
      </trkpt>
      <trkpt lat="43.43244" lon="1.44038">
        <ele>151.06</ele>
        <time>2016-12-14T15:43:21Z</time>
      </trkpt>
      <trkpt lat="43.43251" lon="1.44058">
        <ele>151.06</ele>
        <time>2016-12-14T15:43:24Z</time>
      </trkpt>
      <trkpt lat="43.43254" lon="1.44064">
        <ele>151.06</ele>
        <time>2016-12-14T15:43:25Z</time>
      </trkpt>
      <trkpt lat="43.43264" lon="1.44086">
        <ele>151.06</ele>
        <time>2016-12-14T15:43:29Z</time>
      </trkpt>
      <trkpt lat="43.4329" lon="1.44145">
        <ele>153.95</ele>
        <time>2016-12-14T15:43:43Z</time>
      </trkpt>
      <trkpt lat="43.43308" lon="1.44186">
        <ele>155.87</ele>
        <time>2016-12-14T15:43:55Z</time>
      </trkpt>
      <trkpt lat="43.43325" lon="1.44226">
        <ele>157.79</ele>
        <time>2016-12-14T15:44:08Z</time>
      </trkpt>
      <trkpt lat="43.43353" lon="1.44258">
        <ele>160.2</ele>
        <time>2016-12-14T15:44:22Z</time>
      </trkpt>
      <trkpt lat="43.43381" lon="1.4428">
        <ele>163.08</ele>
        <time>2016-12-14T15:44:34Z</time>
      </trkpt>
      <trkpt lat="43.43405" lon="1.44313">
        <ele>165</ele>
        <time>2016-12-14T15:44:46Z</time>
      </trkpt>
      <trkpt lat="43.43435" lon="1.44381">
        <ele>165.96</ele>
        <time>2016-12-14T15:45:03Z</time>
      </trkpt>
      <trkpt lat="43.43466" lon="1.4442">
        <ele>167.89</ele>
        <time>2016-12-14T15:45:15Z</time>
      </trkpt>
      <trkpt lat="43.43499" lon="1.4446">
        <ele>167.89</ele>
        <time>2016-12-14T15:45:25Z</time>
      </trkpt>
      <trkpt lat="43.43502" lon="1.44464">
        <ele>167.89</ele>
        <time>2016-12-14T15:45:26Z</time>
      </trkpt>
      <trkpt lat="43.43506" lon="1.44467">
        <ele>167.89</ele>
        <time>2016-12-14T15:45:27Z</time>
      </trkpt>
      <trkpt lat="43.43511" lon="1.44469">
        <ele>167.89</ele>
        <time>2016-12-14T15:45:28Z</time>
      </trkpt>
      <trkpt lat="43.43514" lon="1.44473">
        <ele>167.89</ele>
        <time>2016-12-14T15:45:29Z</time>
      </trkpt>
      <trkpt lat="43.43517" lon="1.44477">
        <ele>167.89</ele>
        <time>2016-12-14T15:45:30Z</time>
      </trkpt>
      <trkpt lat="43.43519" lon="1.44481">
        <ele>167.89</ele>
        <time>2016-12-14T15:45:31Z</time>
      </trkpt>
      <trkpt lat="43.43522" lon="1.44486">
        <ele>167.89</ele>
        <time>2016-12-14T15:45:32Z</time>
      </trkpt>
      <trkpt lat="43.43523" lon="1.4449">
        <ele>167.89</ele>
        <time>2016-12-14T15:45:33Z</time>
      </trkpt>
      <trkpt lat="43.43525" lon="1.44495">
        <ele>167.89</ele>
        <time>2016-12-14T15:45:34Z</time>
      </trkpt>
      <trkpt lat="43.43536" lon="1.44516">
        <ele>168.85</ele>
        <time>2016-12-14T15:45:39Z</time>
      </trkpt>
      <trkpt lat="43.43538" lon="1.44521">
        <ele>168.85</ele>
        <time>2016-12-14T15:45:40Z</time>
      </trkpt>
      <trkpt lat="43.43572" lon="1.44578">
        <ele>168.85</ele>
        <time>2016-12-14T15:45:53Z</time>
      </trkpt>
      <trkpt lat="43.43613" lon="1.44648">
        <ele>168.85</ele>
        <time>2016-12-14T15:46:07Z</time>
      </trkpt>
      <trkpt lat="43.43638" lon="1.44685">
        <ele>169.81</ele>
        <time>2016-12-14T15:46:16Z</time>
      </trkpt>
      <trkpt lat="43.43641" lon="1.44689">
        <ele>169.81</ele>
        <time>2016-12-14T15:46:17Z</time>
      </trkpt>
      <trkpt lat="43.43682" lon="1.44754">
        <ele>172.21</ele>
        <time>2016-12-14T15:46:33Z</time>
      </trkpt>
      <trkpt lat="43.43719" lon="1.44814">
        <ele>174.14</ele>
        <time>2016-12-14T15:46:50Z</time>
      </trkpt>
      <trkpt lat="43.43753" lon="1.44867">
        <ele>176.06</ele>
        <time>2016-12-14T15:47:05Z</time>
      </trkpt>
      <trkpt lat="43.43793" lon="1.44934">
        <ele>177.98</ele>
        <time>2016-12-14T15:47:23Z</time>
      </trkpt>
      <trkpt lat="43.43835" lon="1.44999">
        <ele>178.94</ele>
        <time>2016-12-14T15:47:40Z</time>
      </trkpt>
      <trkpt lat="43.43876" lon="1.45064">
        <ele>180.87</ele>
        <time>2016-12-14T15:47:56Z</time>
      </trkpt>
      <trkpt lat="43.43913" lon="1.4512">
        <ele>181.83</ele>
        <time>2016-12-14T15:48:10Z</time>
      </trkpt>
      <trkpt lat="43.43946" lon="1.45175">
        <ele>184.23</ele>
        <time>2016-12-14T15:48:24Z</time>
      </trkpt>
      <trkpt lat="43.43978" lon="1.45225">
        <ele>186.15</ele>
        <time>2016-12-14T15:48:37Z</time>
      </trkpt>
      <trkpt lat="43.43988" lon="1.45244">
        <ele>187.11</ele>
        <time>2016-12-14T15:48:47Z</time>
      </trkpt>
      <trkpt lat="43.43988" lon="1.45244">
        <ele>187.11</ele>
        <time>2016-12-14T15:48:48Z</time>
      </trkpt>
      <trkpt lat="43.43992" lon="1.45253">
        <ele>187.11</ele>
        <time>2016-12-14T15:49:23Z</time>
      </trkpt>
      <trkpt lat="43.44032" lon="1.45311">
        <ele>186.15</ele>
        <time>2016-12-14T15:49:35Z</time>
      </trkpt>
      <trkpt lat="43.4409" lon="1.45409">
        <ele>182.79</ele>
        <time>2016-12-14T15:49:49Z</time>
      </trkpt>
      <trkpt lat="43.44109" lon="1.45438">
        <ele>181.83</ele>
        <time>2016-12-14T15:49:53Z</time>
      </trkpt>
      <trkpt lat="43.44115" lon="1.45444">
        <ele>181.83</ele>
        <time>2016-12-14T15:49:54Z</time>
      </trkpt>
      <trkpt lat="43.44121" lon="1.45449">
        <ele>181.83</ele>
        <time>2016-12-14T15:49:55Z</time>
      </trkpt>
      <trkpt lat="43.44128" lon="1.45453">
        <ele>180.87</ele>
        <time>2016-12-14T15:49:56Z</time>
      </trkpt>
      <trkpt lat="43.44136" lon="1.45456">
        <ele>180.87</ele>
        <time>2016-12-14T15:49:57Z</time>
      </trkpt>
      <trkpt lat="43.44143" lon="1.45458">
        <ele>180.87</ele>
        <time>2016-12-14T15:49:58Z</time>
      </trkpt>
      <trkpt lat="43.44151" lon="1.45458">
        <ele>180.87</ele>
        <time>2016-12-14T15:49:59Z</time>
      </trkpt>
      <trkpt lat="43.44158" lon="1.45457">
        <ele>179.9</ele>
        <time>2016-12-14T15:50:00Z</time>
      </trkpt>
      <trkpt lat="43.44165" lon="1.45455">
        <ele>179.9</ele>
        <time>2016-12-14T15:50:01Z</time>
      </trkpt>
      <trkpt lat="43.44171" lon="1.45451">
        <ele>179.9</ele>
        <time>2016-12-14T15:50:02Z</time>
      </trkpt>
      <trkpt lat="43.44176" lon="1.45447">
        <ele>178.94</ele>
        <time>2016-12-14T15:50:03Z</time>
      </trkpt>
      <trkpt lat="43.4418" lon="1.45441">
        <ele>178.94</ele>
        <time>2016-12-14T15:50:04Z</time>
      </trkpt>
      <trkpt lat="43.44183" lon="1.45435">
        <ele>178.94</ele>
        <time>2016-12-14T15:50:05Z</time>
      </trkpt>
      <trkpt lat="43.44186" lon="1.45429">
        <ele>178.94</ele>
        <time>2016-12-14T15:50:06Z</time>
      </trkpt>
      <trkpt lat="43.44187" lon="1.45423">
        <ele>178.94</ele>
        <time>2016-12-14T15:50:07Z</time>
      </trkpt>
      <trkpt lat="43.44188" lon="1.45417">
        <ele>178.94</ele>
        <time>2016-12-14T15:50:08Z</time>
      </trkpt>
      <trkpt lat="43.44189" lon="1.45411">
        <ele>178.94</ele>
        <time>2016-12-14T15:50:09Z</time>
      </trkpt>
      <trkpt lat="43.442" lon="1.45353">
        <ele>180.87</ele>
        <time>2016-12-14T15:50:22Z</time>
      </trkpt>
      <trkpt lat="43.4422" lon="1.4531">
        <ele>184.23</ele>
        <time>2016-12-14T15:50:35Z</time>
      </trkpt>
      <trkpt lat="43.44241" lon="1.4527">
        <ele>187.11</ele>
        <time>2016-12-14T15:50:48Z</time>
      </trkpt>
      <trkpt lat="43.44268" lon="1.45227">
        <ele>190</ele>
        <time>2016-12-14T15:51:04Z</time>
      </trkpt>
      <trkpt lat="43.44305" lon="1.45201">
        <ele>192.88</ele>
        <time>2016-12-14T15:51:21Z</time>
      </trkpt>
      <trkpt lat="43.44345" lon="1.45188">
        <ele>195.77</ele>
        <time>2016-12-14T15:51:38Z</time>
      </trkpt>
      <trkpt lat="43.4438" lon="1.45179">
        <ele>200.09</ele>
        <time>2016-12-14T15:51:53Z</time>
      </trkpt>
      <trkpt lat="43.44421" lon="1.45168">
        <ele>202.98</ele>
        <time>2016-12-14T15:52:10Z</time>
      </trkpt>
      <trkpt lat="43.44459" lon="1.45153">
        <ele>205.86</ele>
        <time>2016-12-14T15:52:26Z</time>
      </trkpt>
      <trkpt lat="43.44493" lon="1.45139">
        <ele>207.78</ele>
        <time>2016-12-14T15:52:41Z</time>
      </trkpt>
      <trkpt lat="43.44533" lon="1.45122">
        <ele>212.11</ele>
        <time>2016-12-14T15:52:58Z</time>
      </trkpt>
      <trkpt lat="43.44574" lon="1.45105">
        <ele>214.03</ele>
        <time>2016-12-14T15:53:15Z</time>
      </trkpt>
      <trkpt lat="43.44609" lon="1.45079">
        <ele>216.91</ele>
        <time>2016-12-14T15:53:31Z</time>
      </trkpt>
      <trkpt lat="43.4461" lon="1.45033">
        <ele>218.84</ele>
        <time>2016-12-14T15:53:43Z</time>
      </trkpt>
      <trkpt lat="43.4459" lon="1.44974">
        <ele>220.76</ele>
        <time>2016-12-14T15:53:58Z</time>
      </trkpt>
      <trkpt lat="43.446" lon="1.44914">
        <ele>223.16</ele>
        <time>2016-12-14T15:54:13Z</time>
      </trkpt>
      <trkpt lat="43.44615" lon="1.44858">
        <ele>225.09</ele>
        <time>2016-12-14T15:54:27Z</time>
      </trkpt>
      <trkpt lat="43.4464" lon="1.4482">
        <ele>227.01</ele>
        <time>2016-12-14T15:54:40Z</time>
      </trkpt>
      <trkpt lat="43.44672" lon="1.44828">
        <ele>230.85</ele>
        <time>2016-12-14T15:54:53Z</time>
      </trkpt>
      <trkpt lat="43.4471" lon="1.44854">
        <ele>234.22</ele>
        <time>2016-12-14T15:55:09Z</time>
      </trkpt>
      <trkpt lat="43.44748" lon="1.44884">
        <ele>235.18</ele>
        <time>2016-12-14T15:55:21Z</time>
      </trkpt>
      <trkpt lat="43.44811" lon="1.44945">
        <ele>234.22</ele>
        <time>2016-12-14T15:55:32Z</time>
      </trkpt>
      <trkpt lat="43.44845" lon="1.44985">
        <ele>230.85</ele>
        <time>2016-12-14T15:55:37Z</time>
      </trkpt>
      <trkpt lat="43.4486" lon="1.44999">
        <ele>228.93</ele>
        <time>2016-12-14T15:55:39Z</time>
      </trkpt>
      <trkpt lat="43.44868" lon="1.45004">
        <ele>228.93</ele>
        <time>2016-12-14T15:55:40Z</time>
      </trkpt>
      <trkpt lat="43.44876" lon="1.45008">
        <ele>227.97</ele>
        <time>2016-12-14T15:55:41Z</time>
      </trkpt>
      <trkpt lat="43.44883" lon="1.45011">
        <ele>227.01</ele>
        <time>2016-12-14T15:55:42Z</time>
      </trkpt>
      <trkpt lat="43.4489" lon="1.45012">
        <ele>227.01</ele>
        <time>2016-12-14T15:55:43Z</time>
      </trkpt>
      <trkpt lat="43.44897" lon="1.45013">
        <ele>226.05</ele>
        <time>2016-12-14T15:55:44Z</time>
      </trkpt>
      <trkpt lat="43.44903" lon="1.45013">
        <ele>226.05</ele>
        <time>2016-12-14T15:55:45Z</time>
      </trkpt>
      <trkpt lat="43.44909" lon="1.45012">
        <ele>226.05</ele>
        <time>2016-12-14T15:55:46Z</time>
      </trkpt>
      <trkpt lat="43.44915" lon="1.4501">
        <ele>225.09</ele>
        <time>2016-12-14T15:55:47Z</time>
      </trkpt>
      <trkpt lat="43.44961" lon="1.44984">
        <ele>226.05</ele>
        <time>2016-12-14T15:55:57Z</time>
      </trkpt>
      <trkpt lat="43.44965" lon="1.44981">
        <ele>226.05</ele>
        <time>2016-12-14T15:55:58Z</time>
      </trkpt>
      <trkpt lat="43.4502" lon="1.44923">
        <ele>228.93</ele>
        <time>2016-12-14T15:56:14Z</time>
      </trkpt>
      <trkpt lat="43.4507" lon="1.44865">
        <ele>230.85</ele>
        <time>2016-12-14T15:56:29Z</time>
      </trkpt>
      <trkpt lat="43.45132" lon="1.4479">
        <ele>230.85</ele>
        <time>2016-12-14T15:56:43Z</time>
      </trkpt>
      <trkpt lat="43.45172" lon="1.44684">
        <ele>227.97</ele>
        <time>2016-12-14T15:56:53Z</time>
      </trkpt>
      <trkpt lat="43.45195" lon="1.44608">
        <ele>224.12</ele>
        <time>2016-12-14T15:56:59Z</time>
      </trkpt>
      <trkpt lat="43.45213" lon="1.4454">
        <ele>222.2</ele>
        <time>2016-12-14T15:57:04Z</time>
      </trkpt>
      <trkpt lat="43.45214" lon="1.44526">
        <ele>220.76</ele>
        <time>2016-12-14T15:57:05Z</time>
      </trkpt>
      <trkpt lat="43.45215" lon="1.44511">
        <ele>219.8</ele>
        <time>2016-12-14T15:57:06Z</time>
      </trkpt>
      <trkpt lat="43.4521" lon="1.44425">
        <ele>216.91</ele>
        <time>2016-12-14T15:57:12Z</time>
      </trkpt>
      <trkpt lat="43.45211" lon="1.44398">
        <ele>214.99</ele>
        <time>2016-12-14T15:57:14Z</time>
      </trkpt>
      <trkpt lat="43.45213" lon="1.44385">
        <ele>214.99</ele>
        <time>2016-12-14T15:57:15Z</time>
      </trkpt>
      <trkpt lat="43.45217" lon="1.44374">
        <ele>214.03</ele>
        <time>2016-12-14T15:57:16Z</time>
      </trkpt>
      <trkpt lat="43.45222" lon="1.44364">
        <ele>214.03</ele>
        <time>2016-12-14T15:57:17Z</time>
      </trkpt>
      <trkpt lat="43.45228" lon="1.44357">
        <ele>213.07</ele>
        <time>2016-12-14T15:57:18Z</time>
      </trkpt>
      <trkpt lat="43.45235" lon="1.44351">
        <ele>213.07</ele>
        <time>2016-12-14T15:57:19Z</time>
      </trkpt>
      <trkpt lat="43.45242" lon="1.44346">
        <ele>212.11</ele>
        <time>2016-12-14T15:57:20Z</time>
      </trkpt>
      <trkpt lat="43.4525" lon="1.44344">
        <ele>212.11</ele>
        <time>2016-12-14T15:57:21Z</time>
      </trkpt>
      <trkpt lat="43.45258" lon="1.44344">
        <ele>212.11</ele>
        <time>2016-12-14T15:57:22Z</time>
      </trkpt>
      <trkpt lat="43.45266" lon="1.44347">
        <ele>211.15</ele>
        <time>2016-12-14T15:57:23Z</time>
      </trkpt>
      <trkpt lat="43.45273" lon="1.44352">
        <ele>211.15</ele>
        <time>2016-12-14T15:57:24Z</time>
      </trkpt>
      <trkpt lat="43.45279" lon="1.44359">
        <ele>211.15</ele>
        <time>2016-12-14T15:57:25Z</time>
      </trkpt>
      <trkpt lat="43.45285" lon="1.44368">
        <ele>210.19</ele>
        <time>2016-12-14T15:57:26Z</time>
      </trkpt>
      <trkpt lat="43.4529" lon="1.44377">
        <ele>210.19</ele>
        <time>2016-12-14T15:57:27Z</time>
      </trkpt>
      <trkpt lat="43.45294" lon="1.44387">
        <ele>210.19</ele>
        <time>2016-12-14T15:57:28Z</time>
      </trkpt>
      <trkpt lat="43.45308" lon="1.44473">
        <ele>205.86</ele>
        <time>2016-12-14T15:57:36Z</time>
      </trkpt>
      <trkpt lat="43.4531" lon="1.44504">
        <ele>204.9</ele>
        <time>2016-12-14T15:57:39Z</time>
      </trkpt>
      <trkpt lat="43.45313" lon="1.44515">
        <ele>203.94</ele>
        <time>2016-12-14T15:57:40Z</time>
      </trkpt>
      <trkpt lat="43.45316" lon="1.44525">
        <ele>203.94</ele>
        <time>2016-12-14T15:57:41Z</time>
      </trkpt>
      <trkpt lat="43.45321" lon="1.44535">
        <ele>202.98</ele>
        <time>2016-12-14T15:57:42Z</time>
      </trkpt>
      <trkpt lat="43.45327" lon="1.44544">
        <ele>202.98</ele>
        <time>2016-12-14T15:57:43Z</time>
      </trkpt>
      <trkpt lat="43.45333" lon="1.44554">
        <ele>202.01</ele>
        <time>2016-12-14T15:57:44Z</time>
      </trkpt>
      <trkpt lat="43.4534" lon="1.44563">
        <ele>202.01</ele>
        <time>2016-12-14T15:57:45Z</time>
      </trkpt>
      <trkpt lat="43.45365" lon="1.44603">
        <ele>201.05</ele>
        <time>2016-12-14T15:57:49Z</time>
      </trkpt>
      <trkpt lat="43.4537" lon="1.44615">
        <ele>200.09</ele>
        <time>2016-12-14T15:57:50Z</time>
      </trkpt>
      <trkpt lat="43.4539" lon="1.44664">
        <ele>197.21</ele>
        <time>2016-12-14T15:57:54Z</time>
      </trkpt>
      <trkpt lat="43.4542" lon="1.44721">
        <ele>192.88</ele>
        <time>2016-12-14T15:57:59Z</time>
      </trkpt>
      <trkpt lat="43.45424" lon="1.44734">
        <ele>191.92</ele>
        <time>2016-12-14T15:58:00Z</time>
      </trkpt>
      <trkpt lat="43.45427" lon="1.44747">
        <ele>190.96</ele>
        <time>2016-12-14T15:58:01Z</time>
      </trkpt>
      <trkpt lat="43.45429" lon="1.44761">
        <ele>190.96</ele>
        <time>2016-12-14T15:58:02Z</time>
      </trkpt>
      <trkpt lat="43.4543" lon="1.44776">
        <ele>190</ele>
        <time>2016-12-14T15:58:03Z</time>
      </trkpt>
      <trkpt lat="43.45429" lon="1.4479">
        <ele>189.04</ele>
        <time>2016-12-14T15:58:04Z</time>
      </trkpt>
      <trkpt lat="43.45428" lon="1.44817">
        <ele>186.15</ele>
        <time>2016-12-14T15:58:06Z</time>
      </trkpt>
      <trkpt lat="43.45423" lon="1.44871">
        <ele>182.79</ele>
        <time>2016-12-14T15:58:10Z</time>
      </trkpt>
      <trkpt lat="43.45424" lon="1.44883">
        <ele>181.83</ele>
        <time>2016-12-14T15:58:11Z</time>
      </trkpt>
      <trkpt lat="43.45425" lon="1.44895">
        <ele>180.87</ele>
        <time>2016-12-14T15:58:12Z</time>
      </trkpt>
      <trkpt lat="43.45429" lon="1.44906">
        <ele>179.9</ele>
        <time>2016-12-14T15:58:13Z</time>
      </trkpt>
      <trkpt lat="43.45435" lon="1.44916">
        <ele>179.9</ele>
        <time>2016-12-14T15:58:14Z</time>
      </trkpt>
      <trkpt lat="43.45441" lon="1.44926">
        <ele>178.94</ele>
        <time>2016-12-14T15:58:15Z</time>
      </trkpt>
      <trkpt lat="43.45447" lon="1.44935">
        <ele>177.98</ele>
        <time>2016-12-14T15:58:16Z</time>
      </trkpt>
      <trkpt lat="43.45466" lon="1.44958">
        <ele>176.06</ele>
        <time>2016-12-14T15:58:19Z</time>
      </trkpt>
      <trkpt lat="43.45472" lon="1.44963">
        <ele>176.06</ele>
        <time>2016-12-14T15:58:20Z</time>
      </trkpt>
      <trkpt lat="43.45478" lon="1.44965">
        <ele>175.1</ele>
        <time>2016-12-14T15:58:21Z</time>
      </trkpt>
      <trkpt lat="43.45482" lon="1.44964">
        <ele>175.1</ele>
        <time>2016-12-14T15:58:22Z</time>
      </trkpt>
      <trkpt lat="43.45488" lon="1.44963">
        <ele>175.1</ele>
        <time>2016-12-14T15:58:23Z</time>
      </trkpt>
      <trkpt lat="43.45491" lon="1.4496">
        <ele>175.1</ele>
        <time>2016-12-14T15:58:24Z</time>
      </trkpt>
      <trkpt lat="43.45495" lon="1.44956">
        <ele>175.1</ele>
        <time>2016-12-14T15:58:25Z</time>
      </trkpt>
      <trkpt lat="43.45497" lon="1.44953">
        <ele>174.14</ele>
        <time>2016-12-14T15:58:26Z</time>
      </trkpt>
      <trkpt lat="43.455" lon="1.44949">
        <ele>174.14</ele>
        <time>2016-12-14T15:58:27Z</time>
      </trkpt>
      <trkpt lat="43.45502" lon="1.44945">
        <ele>174.14</ele>
        <time>2016-12-14T15:58:28Z</time>
      </trkpt>
      <trkpt lat="43.45504" lon="1.44941">
        <ele>174.14</ele>
        <time>2016-12-14T15:58:29Z</time>
      </trkpt>
      <trkpt lat="43.4552" lon="1.44906">
        <ele>177.98</ele>
        <time>2016-12-14T15:58:38Z</time>
      </trkpt>
      <trkpt lat="43.45546" lon="1.44873">
        <ele>180.87</ele>
        <time>2016-12-14T15:58:50Z</time>
      </trkpt>
      <trkpt lat="43.45576" lon="1.4485">
        <ele>184.23</ele>
        <time>2016-12-14T15:59:03Z</time>
      </trkpt>
      <trkpt lat="43.45609" lon="1.44833">
        <ele>187.11</ele>
        <time>2016-12-14T15:59:18Z</time>
      </trkpt>
      <trkpt lat="43.45641" lon="1.44818">
        <ele>190</ele>
        <time>2016-12-14T15:59:33Z</time>
      </trkpt>
      <trkpt lat="43.4567" lon="1.44805">
        <ele>191.92</ele>
        <time>2016-12-14T15:59:46Z</time>
      </trkpt>
      <trkpt lat="43.45697" lon="1.4482">
        <ele>194.8</ele>
        <time>2016-12-14T15:59:59Z</time>
      </trkpt>
      <trkpt lat="43.45714" lon="1.44851">
        <ele>197.21</ele>
        <time>2016-12-14T16:00:11Z</time>
      </trkpt>
      <trkpt lat="43.45744" lon="1.44881">
        <ele>200.09</ele>
        <time>2016-12-14T16:00:26Z</time>
      </trkpt>
      <trkpt lat="43.4578" lon="1.44909">
        <ele>202.98</ele>
        <time>2016-12-14T16:00:43Z</time>
      </trkpt>
      <trkpt lat="43.45811" lon="1.44927">
        <ele>205.86</ele>
        <time>2016-12-14T16:00:57Z</time>
      </trkpt>
      <trkpt lat="43.4584" lon="1.44944">
        <ele>206.82</ele>
        <time>2016-12-14T16:01:09Z</time>
      </trkpt>
      <trkpt lat="43.45851" lon="1.44984">
        <ele>209.22</ele>
        <time>2016-12-14T16:01:21Z</time>
      </trkpt>
      <trkpt lat="43.45853" lon="1.44987">
        <ele>209.22</ele>
        <time>2016-12-14T16:01:22Z</time>
      </trkpt>
      <trkpt lat="43.45855" lon="1.4499">
        <ele>209.22</ele>
        <time>2016-12-14T16:01:23Z</time>
      </trkpt>
      <trkpt lat="43.45856" lon="1.44993">
        <ele>209.22</ele>
        <time>2016-12-14T16:01:24Z</time>
      </trkpt>
      <trkpt lat="43.45858" lon="1.44995">
        <ele>209.22</ele>
        <time>2016-12-14T16:01:25Z</time>
      </trkpt>
      <trkpt lat="43.4586" lon="1.44998">
        <ele>210.19</ele>
        <time>2016-12-14T16:01:26Z</time>
      </trkpt>
      <trkpt lat="43.4589" lon="1.45003">
        <ele>211.15</ele>
        <time>2016-12-14T16:01:37Z</time>
      </trkpt>
      <trkpt lat="43.45936" lon="1.44981">
        <ele>213.07</ele>
        <time>2016-12-14T16:01:53Z</time>
      </trkpt>
      <trkpt lat="43.45965" lon="1.45011">
        <ele>214.99</ele>
        <time>2016-12-14T16:02:06Z</time>
      </trkpt>
      <trkpt lat="43.45974" lon="1.45086">
        <ele>217.88</ele>
        <time>2016-12-14T16:02:25Z</time>
      </trkpt>
      <trkpt lat="43.45998" lon="1.45171">
        <ele>220.76</ele>
        <time>2016-12-14T16:02:47Z</time>
      </trkpt>
      <trkpt lat="43.46026" lon="1.45223">
        <ele>224.12</ele>
        <time>2016-12-14T16:03:04Z</time>
      </trkpt>
      <trkpt lat="43.46057" lon="1.45255">
        <ele>226.05</ele>
        <time>2016-12-14T16:03:18Z</time>
      </trkpt>
      <trkpt lat="43.46104" lon="1.45289">
        <ele>228.93</ele>
        <time>2016-12-14T16:03:34Z</time>
      </trkpt>
      <trkpt lat="43.46146" lon="1.45319">
        <ele>230.85</ele>
        <time>2016-12-14T16:03:48Z</time>
      </trkpt>
      <trkpt lat="43.46224" lon="1.4537">
        <ele>232.78</ele>
        <time>2016-12-14T16:04:11Z</time>
      </trkpt>
      <trkpt lat="43.46272" lon="1.45401">
        <ele>235.18</ele>
        <time>2016-12-14T16:04:26Z</time>
      </trkpt>
      <trkpt lat="43.46317" lon="1.45432">
        <ele>236.14</ele>
        <time>2016-12-14T16:04:39Z</time>
      </trkpt>
      <trkpt lat="43.46392" lon="1.4548">
        <ele>237.1</ele>
        <time>2016-12-14T16:04:59Z</time>
      </trkpt>
      <trkpt lat="43.4643" lon="1.45493">
        <ele>238.06</ele>
        <time>2016-12-14T16:05:11Z</time>
      </trkpt>
      <trkpt lat="43.46465" lon="1.45505">
        <ele>240.95</ele>
        <time>2016-12-14T16:05:25Z</time>
      </trkpt>
      <trkpt lat="43.46501" lon="1.45516">
        <ele>243.83</ele>
        <time>2016-12-14T16:05:40Z</time>
      </trkpt>
      <trkpt lat="43.46541" lon="1.45527">
        <ele>247.2</ele>
        <time>2016-12-14T16:05:55Z</time>
      </trkpt>
      <trkpt lat="43.46573" lon="1.45525">
        <ele>248.16</ele>
        <time>2016-12-14T16:06:06Z</time>
      </trkpt>
      <trkpt lat="43.46575" lon="1.45521">
        <ele>248.16</ele>
        <time>2016-12-14T16:06:07Z</time>
      </trkpt>
      <trkpt lat="43.46578" lon="1.45517">
        <ele>248.16</ele>
        <time>2016-12-14T16:06:08Z</time>
      </trkpt>
      <trkpt lat="43.46581" lon="1.45512">
        <ele>248.16</ele>
        <time>2016-12-14T16:06:09Z</time>
      </trkpt>
      <trkpt lat="43.46583" lon="1.45506">
        <ele>248.16</ele>
        <time>2016-12-14T16:06:10Z</time>
      </trkpt>
      <trkpt lat="43.46586" lon="1.45501">
        <ele>248.16</ele>
        <time>2016-12-14T16:06:11Z</time>
      </trkpt>
      <trkpt lat="43.46605" lon="1.45467">
        <ele>248.16</ele>
        <time>2016-12-14T16:06:17Z</time>
      </trkpt>
      <trkpt lat="43.46615" lon="1.45439">
        <ele>248.16</ele>
        <time>2016-12-14T16:06:21Z</time>
      </trkpt>
      <trkpt lat="43.46617" lon="1.45432">
        <ele>248.16</ele>
        <time>2016-12-14T16:06:22Z</time>
      </trkpt>
      <trkpt lat="43.46621" lon="1.45408">
        <ele>247.2</ele>
        <time>2016-12-14T16:06:25Z</time>
      </trkpt>
      <trkpt lat="43.46628" lon="1.45327">
        <ele>246.23</ele>
        <time>2016-12-14T16:06:35Z</time>
      </trkpt>
      <trkpt lat="43.4663" lon="1.4532">
        <ele>246.23</ele>
        <time>2016-12-14T16:06:36Z</time>
      </trkpt>
      <trkpt lat="43.46632" lon="1.45314">
        <ele>246.23</ele>
        <time>2016-12-14T16:06:37Z</time>
      </trkpt>
      <trkpt lat="43.46634" lon="1.45308">
        <ele>246.23</ele>
        <time>2016-12-14T16:06:38Z</time>
      </trkpt>
      <trkpt lat="43.46637" lon="1.45303">
        <ele>246.23</ele>
        <time>2016-12-14T16:06:39Z</time>
      </trkpt>
      <trkpt lat="43.4664" lon="1.45298">
        <ele>246.23</ele>
        <time>2016-12-14T16:06:40Z</time>
      </trkpt>
      <trkpt lat="43.46643" lon="1.45294">
        <ele>246.23</ele>
        <time>2016-12-14T16:06:41Z</time>
      </trkpt>
      <trkpt lat="43.46646" lon="1.4529">
        <ele>246.23</ele>
        <time>2016-12-14T16:06:42Z</time>
      </trkpt>
      <trkpt lat="43.4669" lon="1.45257">
        <ele>249.12</ele>
        <time>2016-12-14T16:06:56Z</time>
      </trkpt>
      <trkpt lat="43.46693" lon="1.45259">
        <ele>249.12</ele>
        <time>2016-12-14T16:06:57Z</time>
      </trkpt>
      <trkpt lat="43.46696" lon="1.45261">
        <ele>249.12</ele>
        <time>2016-12-14T16:06:58Z</time>
      </trkpt>
      <trkpt lat="43.46738" lon="1.45299">
        <ele>251.04</ele>
        <time>2016-12-14T16:07:10Z</time>
      </trkpt>
      <trkpt lat="43.46749" lon="1.45307">
        <ele>251.04</ele>
        <time>2016-12-14T16:07:13Z</time>
      </trkpt>
      <trkpt lat="43.46753" lon="1.45309">
        <ele>251.04</ele>
        <time>2016-12-14T16:07:14Z</time>
      </trkpt>
      <trkpt lat="43.46757" lon="1.45311">
        <ele>251.04</ele>
        <time>2016-12-14T16:07:15Z</time>
      </trkpt>
      <trkpt lat="43.46819" lon="1.45325">
        <ele>252</ele>
        <time>2016-12-14T16:07:30Z</time>
      </trkpt>
      <trkpt lat="43.4688" lon="1.45324">
        <ele>253.93</ele>
        <time>2016-12-14T16:07:45Z</time>
      </trkpt>
      <trkpt lat="43.4694" lon="1.45305">
        <ele>254.89</ele>
        <time>2016-12-14T16:08:01Z</time>
      </trkpt>
      <trkpt lat="43.46979" lon="1.45312">
        <ele>256.81</ele>
        <time>2016-12-14T16:08:11Z</time>
      </trkpt>
      <trkpt lat="43.47029" lon="1.45348">
        <ele>256.81</ele>
        <time>2016-12-14T16:08:23Z</time>
      </trkpt>
      <trkpt lat="43.47082" lon="1.45388">
        <ele>255.85</ele>
        <time>2016-12-14T16:08:32Z</time>
      </trkpt>
      <trkpt lat="43.47089" lon="1.45391">
        <ele>255.85</ele>
        <time>2016-12-14T16:08:33Z</time>
      </trkpt>
      <trkpt lat="43.47096" lon="1.45392">
        <ele>254.89</ele>
        <time>2016-12-14T16:08:34Z</time>
      </trkpt>
      <trkpt lat="43.47104" lon="1.45392">
        <ele>254.89</ele>
        <time>2016-12-14T16:08:35Z</time>
      </trkpt>
      <trkpt lat="43.47112" lon="1.45389">
        <ele>254.89</ele>
        <time>2016-12-14T16:08:36Z</time>
      </trkpt>
      <trkpt lat="43.47119" lon="1.45386">
        <ele>253.93</ele>
        <time>2016-12-14T16:08:37Z</time>
      </trkpt>
      <trkpt lat="43.47126" lon="1.45381">
        <ele>253.93</ele>
        <time>2016-12-14T16:08:38Z</time>
      </trkpt>
      <trkpt lat="43.47132" lon="1.45374">
        <ele>253.93</ele>
        <time>2016-12-14T16:08:39Z</time>
      </trkpt>
      <trkpt lat="43.47138" lon="1.45366">
        <ele>252.96</ele>
        <time>2016-12-14T16:08:40Z</time>
      </trkpt>
      <trkpt lat="43.47144" lon="1.45358">
        <ele>252.96</ele>
        <time>2016-12-14T16:08:41Z</time>
      </trkpt>
      <trkpt lat="43.47154" lon="1.4534">
        <ele>252</ele>
        <time>2016-12-14T16:08:43Z</time>
      </trkpt>
      <trkpt lat="43.47189" lon="1.45268">
        <ele>249.12</ele>
        <time>2016-12-14T16:08:50Z</time>
      </trkpt>
      <trkpt lat="43.47213" lon="1.45214">
        <ele>246.23</ele>
        <time>2016-12-14T16:08:55Z</time>
      </trkpt>
      <trkpt lat="43.47238" lon="1.45151">
        <ele>242.87</ele>
        <time>2016-12-14T16:09:01Z</time>
      </trkpt>
      <trkpt lat="43.47267" lon="1.45094">
        <ele>240.95</ele>
        <time>2016-12-14T16:09:07Z</time>
      </trkpt>
      <trkpt lat="43.47273" lon="1.45087">
        <ele>240.95</ele>
        <time>2016-12-14T16:09:08Z</time>
      </trkpt>
      <trkpt lat="43.47279" lon="1.45081">
        <ele>239.99</ele>
        <time>2016-12-14T16:09:09Z</time>
      </trkpt>
      <trkpt lat="43.47286" lon="1.45076">
        <ele>239.99</ele>
        <time>2016-12-14T16:09:10Z</time>
      </trkpt>
      <trkpt lat="43.47294" lon="1.45072">
        <ele>239.99</ele>
        <time>2016-12-14T16:09:11Z</time>
      </trkpt>
      <trkpt lat="43.47302" lon="1.4507">
        <ele>239.99</ele>
        <time>2016-12-14T16:09:12Z</time>
      </trkpt>
      <trkpt lat="43.4731" lon="1.45069">
        <ele>239.99</ele>
        <time>2016-12-14T16:09:13Z</time>
      </trkpt>
      <trkpt lat="43.47319" lon="1.45067">
        <ele>239.02</ele>
        <time>2016-12-14T16:09:14Z</time>
      </trkpt>
      <trkpt lat="43.47328" lon="1.45064">
        <ele>239.02</ele>
        <time>2016-12-14T16:09:15Z</time>
      </trkpt>
      <trkpt lat="43.47336" lon="1.45062">
        <ele>239.02</ele>
        <time>2016-12-14T16:09:16Z</time>
      </trkpt>
      <trkpt lat="43.47422" lon="1.45015">
        <ele>236.14</ele>
        <time>2016-12-14T16:09:26Z</time>
      </trkpt>
      <trkpt lat="43.47448" lon="1.44999">
        <ele>235.18</ele>
        <time>2016-12-14T16:09:29Z</time>
      </trkpt>
      <trkpt lat="43.47457" lon="1.44996">
        <ele>235.18</ele>
        <time>2016-12-14T16:09:30Z</time>
      </trkpt>
      <trkpt lat="43.47466" lon="1.44995">
        <ele>234.22</ele>
        <time>2016-12-14T16:09:31Z</time>
      </trkpt>
      <trkpt lat="43.47476" lon="1.44997">
        <ele>234.22</ele>
        <time>2016-12-14T16:09:32Z</time>
      </trkpt>
      <trkpt lat="43.47484" lon="1.45002">
        <ele>234.22</ele>
        <time>2016-12-14T16:09:33Z</time>
      </trkpt>
      <trkpt lat="43.47492" lon="1.45008">
        <ele>232.78</ele>
        <time>2016-12-14T16:09:34Z</time>
      </trkpt>
      <trkpt lat="43.47499" lon="1.45016">
        <ele>232.78</ele>
        <time>2016-12-14T16:09:35Z</time>
      </trkpt>
      <trkpt lat="43.47506" lon="1.45023">
        <ele>231.81</ele>
        <time>2016-12-14T16:09:36Z</time>
      </trkpt>
      <trkpt lat="43.47512" lon="1.45031">
        <ele>231.81</ele>
        <time>2016-12-14T16:09:37Z</time>
      </trkpt>
      <trkpt lat="43.47516" lon="1.45041">
        <ele>231.81</ele>
        <time>2016-12-14T16:09:38Z</time>
      </trkpt>
      <trkpt lat="43.47518" lon="1.45052">
        <ele>231.81</ele>
        <time>2016-12-14T16:09:39Z</time>
      </trkpt>
      <trkpt lat="43.47518" lon="1.45062">
        <ele>230.85</ele>
        <time>2016-12-14T16:09:40Z</time>
      </trkpt>
      <trkpt lat="43.47516" lon="1.45072">
        <ele>230.85</ele>
        <time>2016-12-14T16:09:41Z</time>
      </trkpt>
      <trkpt lat="43.47512" lon="1.45082">
        <ele>229.89</ele>
        <time>2016-12-14T16:09:42Z</time>
      </trkpt>
      <trkpt lat="43.47508" lon="1.4509">
        <ele>229.89</ele>
        <time>2016-12-14T16:09:43Z</time>
      </trkpt>
      <trkpt lat="43.47504" lon="1.45098">
        <ele>228.93</ele>
        <time>2016-12-14T16:09:44Z</time>
      </trkpt>
      <trkpt lat="43.47501" lon="1.45107">
        <ele>228.93</ele>
        <time>2016-12-14T16:09:45Z</time>
      </trkpt>
      <trkpt lat="43.47498" lon="1.45116">
        <ele>227.97</ele>
        <time>2016-12-14T16:09:46Z</time>
      </trkpt>
      <trkpt lat="43.47495" lon="1.45125">
        <ele>227.01</ele>
        <time>2016-12-14T16:09:47Z</time>
      </trkpt>
      <trkpt lat="43.47494" lon="1.45134">
        <ele>226.05</ele>
        <time>2016-12-14T16:09:48Z</time>
      </trkpt>
      <trkpt lat="43.47494" lon="1.45144">
        <ele>225.09</ele>
        <time>2016-12-14T16:09:49Z</time>
      </trkpt>
      <trkpt lat="43.47495" lon="1.45154">
        <ele>224.12</ele>
        <time>2016-12-14T16:09:50Z</time>
      </trkpt>
      <trkpt lat="43.47502" lon="1.45213">
        <ele>222.2</ele>
        <time>2016-12-14T16:09:56Z</time>
      </trkpt>
      <trkpt lat="43.47504" lon="1.45223">
        <ele>220.76</ele>
        <time>2016-12-14T16:09:57Z</time>
      </trkpt>
      <trkpt lat="43.47508" lon="1.45232">
        <ele>220.76</ele>
        <time>2016-12-14T16:09:58Z</time>
      </trkpt>
      <trkpt lat="43.47512" lon="1.4524">
        <ele>220.76</ele>
        <time>2016-12-14T16:09:59Z</time>
      </trkpt>
      <trkpt lat="43.47516" lon="1.45248">
        <ele>219.8</ele>
        <time>2016-12-14T16:10:00Z</time>
      </trkpt>
      <trkpt lat="43.47521" lon="1.45256">
        <ele>219.8</ele>
        <time>2016-12-14T16:10:01Z</time>
      </trkpt>
      <trkpt lat="43.47527" lon="1.45263">
        <ele>219.8</ele>
        <time>2016-12-14T16:10:02Z</time>
      </trkpt>
      <trkpt lat="43.47533" lon="1.45269">
        <ele>218.84</ele>
        <time>2016-12-14T16:10:03Z</time>
      </trkpt>
      <trkpt lat="43.47539" lon="1.45274">
        <ele>217.88</ele>
        <time>2016-12-14T16:10:04Z</time>
      </trkpt>
      <trkpt lat="43.47552" lon="1.45285">
        <ele>217.88</ele>
        <time>2016-12-14T16:10:06Z</time>
      </trkpt>
      <trkpt lat="43.4758" lon="1.45307">
        <ele>215.95</ele>
        <time>2016-12-14T16:10:10Z</time>
      </trkpt>
      <trkpt lat="43.47615" lon="1.45336">
        <ele>214.03</ele>
        <time>2016-12-14T16:10:15Z</time>
      </trkpt>
      <trkpt lat="43.47635" lon="1.45358">
        <ele>213.07</ele>
        <time>2016-12-14T16:10:18Z</time>
      </trkpt>
      <trkpt lat="43.47687" lon="1.4545">
        <ele>210.19</ele>
        <time>2016-12-14T16:10:28Z</time>
      </trkpt>
      <trkpt lat="43.47699" lon="1.45466">
        <ele>209.22</ele>
        <time>2016-12-14T16:10:30Z</time>
      </trkpt>
      <trkpt lat="43.47706" lon="1.45473">
        <ele>207.78</ele>
        <time>2016-12-14T16:10:31Z</time>
      </trkpt>
      <trkpt lat="43.47712" lon="1.45478">
        <ele>207.78</ele>
        <time>2016-12-14T16:10:32Z</time>
      </trkpt>
      <trkpt lat="43.47721" lon="1.45482">
        <ele>206.82</ele>
        <time>2016-12-14T16:10:33Z</time>
      </trkpt>
      <trkpt lat="43.47729" lon="1.45485">
        <ele>205.86</ele>
        <time>2016-12-14T16:10:34Z</time>
      </trkpt>
      <trkpt lat="43.47738" lon="1.45487">
        <ele>205.86</ele>
        <time>2016-12-14T16:10:35Z</time>
      </trkpt>
      <trkpt lat="43.47747" lon="1.45486">
        <ele>205.86</ele>
        <time>2016-12-14T16:10:36Z</time>
      </trkpt>
      <trkpt lat="43.47756" lon="1.45485">
        <ele>204.9</ele>
        <time>2016-12-14T16:10:37Z</time>
      </trkpt>
      <trkpt lat="43.47765" lon="1.45483">
        <ele>204.9</ele>
        <time>2016-12-14T16:10:38Z</time>
      </trkpt>
      <trkpt lat="43.47774" lon="1.4548">
        <ele>203.94</ele>
        <time>2016-12-14T16:10:39Z</time>
      </trkpt>
      <trkpt lat="43.47848" lon="1.45454">
        <ele>201.05</ele>
        <time>2016-12-14T16:10:47Z</time>
      </trkpt>
      <trkpt lat="43.47912" lon="1.45431">
        <ele>198.17</ele>
        <time>2016-12-14T16:10:54Z</time>
      </trkpt>
      <trkpt lat="43.47975" lon="1.45409">
        <ele>193.84</ele>
        <time>2016-12-14T16:11:01Z</time>
      </trkpt>
      <trkpt lat="43.48063" lon="1.45379">
        <ele>190.96</ele>
        <time>2016-12-14T16:11:11Z</time>
      </trkpt>
      <trkpt lat="43.48082" lon="1.45375">
        <ele>190</ele>
        <time>2016-12-14T16:11:14Z</time>
      </trkpt>
      <trkpt lat="43.48087" lon="1.45374">
        <ele>190</ele>
        <time>2016-12-14T16:11:15Z</time>
      </trkpt>
      <trkpt lat="43.48093" lon="1.45373">
        <ele>189.04</ele>
        <time>2016-12-14T16:11:16Z</time>
      </trkpt>
      <trkpt lat="43.48099" lon="1.45369">
        <ele>189.04</ele>
        <time>2016-12-14T16:11:17Z</time>
      </trkpt>
      <trkpt lat="43.48103" lon="1.45364">
        <ele>189.04</ele>
        <time>2016-12-14T16:11:18Z</time>
      </trkpt>
      <trkpt lat="43.48107" lon="1.45357">
        <ele>188.08</ele>
        <time>2016-12-14T16:11:19Z</time>
      </trkpt>
      <trkpt lat="43.48112" lon="1.4535">
        <ele>188.08</ele>
        <time>2016-12-14T16:11:20Z</time>
      </trkpt>
      <trkpt lat="43.48127" lon="1.4532">
        <ele>187.11</ele>
        <time>2016-12-14T16:11:24Z</time>
      </trkpt>
      <trkpt lat="43.48138" lon="1.45288">
        <ele>186.15</ele>
        <time>2016-12-14T16:11:28Z</time>
      </trkpt>
      <trkpt lat="43.48141" lon="1.4528">
        <ele>186.15</ele>
        <time>2016-12-14T16:11:29Z</time>
      </trkpt>
      <trkpt lat="43.48145" lon="1.45273">
        <ele>186.15</ele>
        <time>2016-12-14T16:11:30Z</time>
      </trkpt>
      <trkpt lat="43.48148" lon="1.45265">
        <ele>186.15</ele>
        <time>2016-12-14T16:11:31Z</time>
      </trkpt>
      <trkpt lat="43.48151" lon="1.45257">
        <ele>186.15</ele>
        <time>2016-12-14T16:11:32Z</time>
      </trkpt>
      <trkpt lat="43.48154" lon="1.4525">
        <ele>185.19</ele>
        <time>2016-12-14T16:11:33Z</time>
      </trkpt>
      <trkpt lat="43.48158" lon="1.45244">
        <ele>185.19</ele>
        <time>2016-12-14T16:11:34Z</time>
      </trkpt>
      <trkpt lat="43.48162" lon="1.4524">
        <ele>185.19</ele>
        <time>2016-12-14T16:11:35Z</time>
      </trkpt>
      <trkpt lat="43.48167" lon="1.45236">
        <ele>185.19</ele>
        <time>2016-12-14T16:11:36Z</time>
      </trkpt>
      <trkpt lat="43.48173" lon="1.45234">
        <ele>185.19</ele>
        <time>2016-12-14T16:11:37Z</time>
      </trkpt>
      <trkpt lat="43.4818" lon="1.45233">
        <ele>185.19</ele>
        <time>2016-12-14T16:11:38Z</time>
      </trkpt>
      <trkpt lat="43.48187" lon="1.45233">
        <ele>185.19</ele>
        <time>2016-12-14T16:11:39Z</time>
      </trkpt>
      <trkpt lat="43.48195" lon="1.45236">
        <ele>185.19</ele>
        <time>2016-12-14T16:11:40Z</time>
      </trkpt>
      <trkpt lat="43.48202" lon="1.45239">
        <ele>184.23</ele>
        <time>2016-12-14T16:11:41Z</time>
      </trkpt>
      <trkpt lat="43.4821" lon="1.45244">
        <ele>184.23</ele>
        <time>2016-12-14T16:11:42Z</time>
      </trkpt>
      <trkpt lat="43.48269" lon="1.45279">
        <ele>180.87</ele>
        <time>2016-12-14T16:11:49Z</time>
      </trkpt>
      <trkpt lat="43.48285" lon="1.45289">
        <ele>179.9</ele>
        <time>2016-12-14T16:11:51Z</time>
      </trkpt>
      <trkpt lat="43.48321" lon="1.4531">
        <ele>177.02</ele>
        <time>2016-12-14T16:11:55Z</time>
      </trkpt>
      <trkpt lat="43.4837" lon="1.45337">
        <ele>173.17</ele>
        <time>2016-12-14T16:12:00Z</time>
      </trkpt>
      <trkpt lat="43.48418" lon="1.45363">
        <ele>169.81</ele>
        <time>2016-12-14T16:12:05Z</time>
      </trkpt>
      <trkpt lat="43.48443" lon="1.45379">
        <ele>166.93</ele>
        <time>2016-12-14T16:12:08Z</time>
      </trkpt>
      <trkpt lat="43.48449" lon="1.45387">
        <ele>166.93</ele>
        <time>2016-12-14T16:12:09Z</time>
      </trkpt>
      <trkpt lat="43.4846" lon="1.454">
        <ele>165</ele>
        <time>2016-12-14T16:12:11Z</time>
      </trkpt>
      <trkpt lat="43.48465" lon="1.45405">
        <ele>164.04</ele>
        <time>2016-12-14T16:12:12Z</time>
      </trkpt>
      <trkpt lat="43.48469" lon="1.45408">
        <ele>164.04</ele>
        <time>2016-12-14T16:12:13Z</time>
      </trkpt>
      <trkpt lat="43.48473" lon="1.4541">
        <ele>163.08</ele>
        <time>2016-12-14T16:12:14Z</time>
      </trkpt>
      <trkpt lat="43.48478" lon="1.45412">
        <ele>163.08</ele>
        <time>2016-12-14T16:12:15Z</time>
      </trkpt>
      <trkpt lat="43.48482" lon="1.45415">
        <ele>163.08</ele>
        <time>2016-12-14T16:12:16Z</time>
      </trkpt>
      <trkpt lat="43.48485" lon="1.45419">
        <ele>163.08</ele>
        <time>2016-12-14T16:12:17Z</time>
      </trkpt>
      <trkpt lat="43.48488" lon="1.45423">
        <ele>163.08</ele>
        <time>2016-12-14T16:12:18Z</time>
      </trkpt>
      <trkpt lat="43.48515" lon="1.45495">
        <ele>164.04</ele>
        <time>2016-12-14T16:12:34Z</time>
      </trkpt>
      <trkpt lat="43.48542" lon="1.45569">
        <ele>165</ele>
        <time>2016-12-14T16:12:51Z</time>
      </trkpt>
      <trkpt lat="43.48572" lon="1.4561">
        <ele>166.93</ele>
        <time>2016-12-14T16:13:04Z</time>
      </trkpt>
      <trkpt lat="43.48601" lon="1.45641">
        <ele>168.85</ele>
        <time>2016-12-14T16:13:16Z</time>
      </trkpt>
      <trkpt lat="43.48633" lon="1.45676">
        <ele>172.21</ele>
        <time>2016-12-14T16:13:32Z</time>
      </trkpt>
      <trkpt lat="43.48664" lon="1.45707">
        <ele>175.1</ele>
        <time>2016-12-14T16:13:48Z</time>
      </trkpt>
      <trkpt lat="43.48688" lon="1.45733">
        <ele>177.98</ele>
        <time>2016-12-14T16:14:01Z</time>
      </trkpt>
      <trkpt lat="43.48715" lon="1.45761">
        <ele>179.9</ele>
        <time>2016-12-14T16:14:15Z</time>
      </trkpt>
      <trkpt lat="43.48736" lon="1.45788">
        <ele>181.83</ele>
        <time>2016-12-14T16:14:27Z</time>
      </trkpt>
      <trkpt lat="43.48745" lon="1.45808">
        <ele>182.79</ele>
        <time>2016-12-14T16:14:34Z</time>
      </trkpt>
      <trkpt lat="43.48746" lon="1.45812">
        <ele>182.79</ele>
        <time>2016-12-14T16:14:35Z</time>
      </trkpt>
      <trkpt lat="43.48746" lon="1.45816">
        <ele>184.23</ele>
        <time>2016-12-14T16:14:36Z</time>
      </trkpt>
      <trkpt lat="43.48743" lon="1.45834">
        <ele>184.23</ele>
        <time>2016-12-14T16:14:41Z</time>
      </trkpt>
      <trkpt lat="43.48742" lon="1.45837">
        <ele>184.23</ele>
        <time>2016-12-14T16:14:42Z</time>
      </trkpt>
      <trkpt lat="43.4874" lon="1.45846">
        <ele>185.19</ele>
        <time>2016-12-14T16:14:45Z</time>
      </trkpt>
      <trkpt lat="43.48739" lon="1.45849">
        <ele>185.19</ele>
        <time>2016-12-14T16:14:46Z</time>
      </trkpt>
      <trkpt lat="43.4873" lon="1.45885">
        <ele>187.11</ele>
        <time>2016-12-14T16:14:57Z</time>
      </trkpt>
      <trkpt lat="43.48742" lon="1.45932">
        <ele>189.04</ele>
        <time>2016-12-14T16:15:10Z</time>
      </trkpt>
      <trkpt lat="43.48748" lon="1.45941">
        <ele>190</ele>
        <time>2016-12-14T16:15:14Z</time>
      </trkpt>
      <trkpt lat="43.48776" lon="1.45958">
        <ele>191.92</ele>
        <time>2016-12-14T16:15:27Z</time>
      </trkpt>
      <trkpt lat="43.48808" lon="1.45974">
        <ele>193.84</ele>
        <time>2016-12-14T16:15:40Z</time>
      </trkpt>
      <trkpt lat="43.48832" lon="1.46005">
        <ele>195.77</ele>
        <time>2016-12-14T16:15:52Z</time>
      </trkpt>
      <trkpt lat="43.48845" lon="1.46044">
        <ele>198.17</ele>
        <time>2016-12-14T16:16:04Z</time>
      </trkpt>
      <trkpt lat="43.48862" lon="1.46076">
        <ele>200.09</ele>
        <time>2016-12-14T16:16:15Z</time>
      </trkpt>
      <trkpt lat="43.4889" lon="1.46099">
        <ele>202.01</ele>
        <time>2016-12-14T16:16:28Z</time>
      </trkpt>
      <trkpt lat="43.48914" lon="1.46124">
        <ele>202.98</ele>
        <time>2016-12-14T16:16:39Z</time>
      </trkpt>
      <trkpt lat="43.48916" lon="1.46164">
        <ele>203.94</ele>
        <time>2016-12-14T16:16:50Z</time>
      </trkpt>
      <trkpt lat="43.4891" lon="1.46201">
        <ele>206.82</ele>
        <time>2016-12-14T16:17:01Z</time>
      </trkpt>
      <trkpt lat="43.48907" lon="1.46217">
        <ele>207.78</ele>
        <time>2016-12-14T16:17:06Z</time>
      </trkpt>
      <trkpt lat="43.48907" lon="1.4622">
        <ele>207.78</ele>
        <time>2016-12-14T16:17:07Z</time>
      </trkpt>
      <trkpt lat="43.48906" lon="1.46224">
        <ele>207.78</ele>
        <time>2016-12-14T16:17:08Z</time>
      </trkpt>
      <trkpt lat="43.48893" lon="1.46286">
        <ele>209.22</ele>
        <time>2016-12-14T16:17:23Z</time>
      </trkpt>
      <trkpt lat="43.4888" lon="1.46352">
        <ele>211.15</ele>
        <time>2016-12-14T16:17:40Z</time>
      </trkpt>
      <trkpt lat="43.48864" lon="1.46428">
        <ele>214.03</ele>
        <time>2016-12-14T16:18:00Z</time>
      </trkpt>
      <trkpt lat="43.48852" lon="1.46489">
        <ele>216.91</ele>
        <time>2016-12-14T16:18:18Z</time>
      </trkpt>
      <trkpt lat="43.4884" lon="1.46551">
        <ele>219.8</ele>
        <time>2016-12-14T16:18:38Z</time>
      </trkpt>
      <trkpt lat="43.48831" lon="1.466">
        <ele>220.76</ele>
        <time>2016-12-14T16:18:52Z</time>
      </trkpt>
      <trkpt lat="43.48836" lon="1.46668">
        <ele>224.12</ele>
        <time>2016-12-14T16:19:11Z</time>
      </trkpt>
      <trkpt lat="43.48852" lon="1.46722">
        <ele>227.01</ele>
        <time>2016-12-14T16:19:27Z</time>
      </trkpt>
      <trkpt lat="43.48865" lon="1.46762">
        <ele>228.93</ele>
        <time>2016-12-14T16:19:40Z</time>
      </trkpt>
      <trkpt lat="43.48883" lon="1.4682">
        <ele>229.89</ele>
        <time>2016-12-14T16:19:56Z</time>
      </trkpt>
      <trkpt lat="43.48891" lon="1.46889">
        <ele>230.85</ele>
        <time>2016-12-14T16:20:11Z</time>
      </trkpt>
      <trkpt lat="43.48885" lon="1.46958">
        <ele>231.81</ele>
        <time>2016-12-14T16:20:26Z</time>
      </trkpt>
      <trkpt lat="43.4888" lon="1.47015">
        <ele>231.81</ele>
        <time>2016-12-14T16:20:37Z</time>
      </trkpt>
      <trkpt lat="43.4888" lon="1.47094">
        <ele>232.78</ele>
        <time>2016-12-14T16:20:52Z</time>
      </trkpt>
      <trkpt lat="43.4889" lon="1.47162">
        <ele>235.18</ele>
        <time>2016-12-14T16:21:06Z</time>
      </trkpt>
      <trkpt lat="43.4893" lon="1.47203">
        <ele>237.1</ele>
        <time>2016-12-14T16:21:22Z</time>
      </trkpt>
      <trkpt lat="43.48956" lon="1.47202">
        <ele>238.06</ele>
        <time>2016-12-14T16:21:29Z</time>
      </trkpt>
      <trkpt lat="43.4896" lon="1.472">
        <ele>238.06</ele>
        <time>2016-12-14T16:21:30Z</time>
      </trkpt>
      <trkpt lat="43.48964" lon="1.47197">
        <ele>238.06</ele>
        <time>2016-12-14T16:21:31Z</time>
      </trkpt>
      <trkpt lat="43.48968" lon="1.47194">
        <ele>238.06</ele>
        <time>2016-12-14T16:21:32Z</time>
      </trkpt>
      <trkpt lat="43.48971" lon="1.47191">
        <ele>238.06</ele>
        <time>2016-12-14T16:21:33Z</time>
      </trkpt>
      <trkpt lat="43.49001" lon="1.47154">
        <ele>238.06</ele>
        <time>2016-12-14T16:21:42Z</time>
      </trkpt>
      <trkpt lat="43.49032" lon="1.47087">
        <ele>239.02</ele>
        <time>2016-12-14T16:21:55Z</time>
      </trkpt>
      <trkpt lat="43.49073" lon="1.46987">
        <ele>239.99</ele>
        <time>2016-12-14T16:22:10Z</time>
      </trkpt>
      <trkpt lat="43.49092" lon="1.46946">
        <ele>239.02</ele>
        <time>2016-12-14T16:22:15Z</time>
      </trkpt>
      <trkpt lat="43.49152" lon="1.46854">
        <ele>236.14</ele>
        <time>2016-12-14T16:22:26Z</time>
      </trkpt>
      <trkpt lat="43.49205" lon="1.46778">
        <ele>231.81</ele>
        <time>2016-12-14T16:22:35Z</time>
      </trkpt>
      <trkpt lat="43.49271" lon="1.46648">
        <ele>229.89</ele>
        <time>2016-12-14T16:22:48Z</time>
      </trkpt>
      <trkpt lat="43.49314" lon="1.46558">
        <ele>227.01</ele>
        <time>2016-12-14T16:22:56Z</time>
      </trkpt>
      <trkpt lat="43.49358" lon="1.46462">
        <ele>223.16</ele>
        <time>2016-12-14T16:23:04Z</time>
      </trkpt>
      <trkpt lat="43.49381" lon="1.46415">
        <ele>219.8</ele>
        <time>2016-12-14T16:23:08Z</time>
      </trkpt>
      <trkpt lat="43.49387" lon="1.46404">
        <ele>219.8</ele>
        <time>2016-12-14T16:23:09Z</time>
      </trkpt>
      <trkpt lat="43.49402" lon="1.46385">
        <ele>218.84</ele>
        <time>2016-12-14T16:23:11Z</time>
      </trkpt>
      <trkpt lat="43.49424" lon="1.46357">
        <ele>216.91</ele>
        <time>2016-12-14T16:23:14Z</time>
      </trkpt>
      <trkpt lat="43.4943" lon="1.46347">
        <ele>215.95</ele>
        <time>2016-12-14T16:23:15Z</time>
      </trkpt>
      <trkpt lat="43.49435" lon="1.46335">
        <ele>215.95</ele>
        <time>2016-12-14T16:23:16Z</time>
      </trkpt>
      <trkpt lat="43.4944" lon="1.46323">
        <ele>215.95</ele>
        <time>2016-12-14T16:23:17Z</time>
      </trkpt>
      <trkpt lat="43.49443" lon="1.4631">
        <ele>214.99</ele>
        <time>2016-12-14T16:23:18Z</time>
      </trkpt>
      <trkpt lat="43.49446" lon="1.46297">
        <ele>214.99</ele>
        <time>2016-12-14T16:23:19Z</time>
      </trkpt>
      <trkpt lat="43.4947" lon="1.46173">
        <ele>212.11</ele>
        <time>2016-12-14T16:23:28Z</time>
      </trkpt>
      <trkpt lat="43.4948" lon="1.46137">
        <ele>210.19</ele>
        <time>2016-12-14T16:23:31Z</time>
      </trkpt>
      <trkpt lat="43.49485" lon="1.46126">
        <ele>209.22</ele>
        <time>2016-12-14T16:23:32Z</time>
      </trkpt>
      <trkpt lat="43.49491" lon="1.46116">
        <ele>209.22</ele>
        <time>2016-12-14T16:23:33Z</time>
      </trkpt>
      <trkpt lat="43.49523" lon="1.46076">
        <ele>204.9</ele>
        <time>2016-12-14T16:23:38Z</time>
      </trkpt>
      <trkpt lat="43.49537" lon="1.46062">
        <ele>204.9</ele>
        <time>2016-12-14T16:23:40Z</time>
      </trkpt>
      <trkpt lat="43.49545" lon="1.46057">
        <ele>203.94</ele>
        <time>2016-12-14T16:23:41Z</time>
      </trkpt>
      <trkpt lat="43.49561" lon="1.4605">
        <ele>203.94</ele>
        <time>2016-12-14T16:23:43Z</time>
      </trkpt>
      <trkpt lat="43.4957" lon="1.46048">
        <ele>203.94</ele>
        <time>2016-12-14T16:23:44Z</time>
      </trkpt>
      <trkpt lat="43.49578" lon="1.46045">
        <ele>202.98</ele>
        <time>2016-12-14T16:23:45Z</time>
      </trkpt>
      <trkpt lat="43.49587" lon="1.46042">
        <ele>202.98</ele>
        <time>2016-12-14T16:23:46Z</time>
      </trkpt>
      <trkpt lat="43.49596" lon="1.46038">
        <ele>202.01</ele>
        <time>2016-12-14T16:23:47Z</time>
      </trkpt>
      <trkpt lat="43.49605" lon="1.46031">
        <ele>202.01</ele>
        <time>2016-12-14T16:23:48Z</time>
      </trkpt>
      <trkpt lat="43.49613" lon="1.46022">
        <ele>201.05</ele>
        <time>2016-12-14T16:23:49Z</time>
      </trkpt>
      <trkpt lat="43.4962" lon="1.46012">
        <ele>200.09</ele>
        <time>2016-12-14T16:23:50Z</time>
      </trkpt>
      <trkpt lat="43.49626" lon="1.46002">
        <ele>200.09</ele>
        <time>2016-12-14T16:23:51Z</time>
      </trkpt>
      <trkpt lat="43.4963" lon="1.4599">
        <ele>199.13</ele>
        <time>2016-12-14T16:23:52Z</time>
      </trkpt>
      <trkpt lat="43.49632" lon="1.45978">
        <ele>198.17</ele>
        <time>2016-12-14T16:23:53Z</time>
      </trkpt>
      <trkpt lat="43.49635" lon="1.45966">
        <ele>197.21</ele>
        <time>2016-12-14T16:23:54Z</time>
      </trkpt>
      <trkpt lat="43.49657" lon="1.45908">
        <ele>193.84</ele>
        <time>2016-12-14T16:23:59Z</time>
      </trkpt>
      <trkpt lat="43.49711" lon="1.4581">
        <ele>190.96</ele>
        <time>2016-12-14T16:24:08Z</time>
      </trkpt>
      <trkpt lat="43.49763" lon="1.45714">
        <ele>188.08</ele>
        <time>2016-12-14T16:24:17Z</time>
      </trkpt>
      <trkpt lat="43.49799" lon="1.45651">
        <ele>185.19</ele>
        <time>2016-12-14T16:24:23Z</time>
      </trkpt>
      <trkpt lat="43.49839" lon="1.45574">
        <ele>181.83</ele>
        <time>2016-12-14T16:24:30Z</time>
      </trkpt>
      <trkpt lat="43.49845" lon="1.45565">
        <ele>180.87</ele>
        <time>2016-12-14T16:24:31Z</time>
      </trkpt>
      <trkpt lat="43.49852" lon="1.45557">
        <ele>180.87</ele>
        <time>2016-12-14T16:24:32Z</time>
      </trkpt>
      <trkpt lat="43.4986" lon="1.4555">
        <ele>179.9</ele>
        <time>2016-12-14T16:24:33Z</time>
      </trkpt>
      <trkpt lat="43.49868" lon="1.45545">
        <ele>179.9</ele>
        <time>2016-12-14T16:24:34Z</time>
      </trkpt>
      <trkpt lat="43.49877" lon="1.45541">
        <ele>178.94</ele>
        <time>2016-12-14T16:24:35Z</time>
      </trkpt>
      <trkpt lat="43.49886" lon="1.4554">
        <ele>177.98</ele>
        <time>2016-12-14T16:24:36Z</time>
      </trkpt>
      <trkpt lat="43.49895" lon="1.4554">
        <ele>177.98</ele>
        <time>2016-12-14T16:24:37Z</time>
      </trkpt>
      <trkpt lat="43.49905" lon="1.45542">
        <ele>177.98</ele>
        <time>2016-12-14T16:24:38Z</time>
      </trkpt>
      <trkpt lat="43.49914" lon="1.45545">
        <ele>177.02</ele>
        <time>2016-12-14T16:24:39Z</time>
      </trkpt>
      <trkpt lat="43.49952" lon="1.45552">
        <ele>174.14</ele>
        <time>2016-12-14T16:24:43Z</time>
      </trkpt>
      <trkpt lat="43.4996" lon="1.45553">
        <ele>173.17</ele>
        <time>2016-12-14T16:24:44Z</time>
      </trkpt>
      <trkpt lat="43.49968" lon="1.45552">
        <ele>172.21</ele>
        <time>2016-12-14T16:24:45Z</time>
      </trkpt>
      <trkpt lat="43.49975" lon="1.4555">
        <ele>170.77</ele>
        <time>2016-12-14T16:24:46Z</time>
      </trkpt>
      <trkpt lat="43.49982" lon="1.45547">
        <ele>170.77</ele>
        <time>2016-12-14T16:24:47Z</time>
      </trkpt>
      <trkpt lat="43.49988" lon="1.45543">
        <ele>169.81</ele>
        <time>2016-12-14T16:24:48Z</time>
      </trkpt>
      <trkpt lat="43.49993" lon="1.45539">
        <ele>169.81</ele>
        <time>2016-12-14T16:24:49Z</time>
      </trkpt>
      <trkpt lat="43.49998" lon="1.45535">
        <ele>169.81</ele>
        <time>2016-12-14T16:24:50Z</time>
      </trkpt>
      <trkpt lat="43.50002" lon="1.45531">
        <ele>169.81</ele>
        <time>2016-12-14T16:24:51Z</time>
      </trkpt>
      <trkpt lat="43.50009" lon="1.45524">
        <ele>169.81</ele>
        <time>2016-12-14T16:24:53Z</time>
      </trkpt>
      <trkpt lat="43.50012" lon="1.4552">
        <ele>169.81</ele>
        <time>2016-12-14T16:24:54Z</time>
      </trkpt>
      <trkpt lat="43.50036" lon="1.45486">
        <ele>173.17</ele>
        <time>2016-12-14T16:25:03Z</time>
      </trkpt>
      <trkpt lat="43.5007" lon="1.45435">
        <ele>176.06</ele>
        <time>2016-12-14T16:25:18Z</time>
      </trkpt>
      <trkpt lat="43.50106" lon="1.45407">
        <ele>177.98</ele>
        <time>2016-12-14T16:25:33Z</time>
      </trkpt>
      <trkpt lat="43.50132" lon="1.45409">
        <ele>179.9</ele>
        <time>2016-12-14T16:25:44Z</time>
      </trkpt>
      <trkpt lat="43.50165" lon="1.45413">
        <ele>182.79</ele>
        <time>2016-12-14T16:25:58Z</time>
      </trkpt>
      <trkpt lat="43.50198" lon="1.4542">
        <ele>186.15</ele>
        <time>2016-12-14T16:26:13Z</time>
      </trkpt>
      <trkpt lat="43.5023" lon="1.45436">
        <ele>189.04</ele>
        <time>2016-12-14T16:26:28Z</time>
      </trkpt>
      <trkpt lat="43.50247" lon="1.45472">
        <ele>191.92</ele>
        <time>2016-12-14T16:26:43Z</time>
      </trkpt>
      <trkpt lat="43.50246" lon="1.45515">
        <ele>194.8</ele>
        <time>2016-12-14T16:26:57Z</time>
      </trkpt>
      <trkpt lat="43.50234" lon="1.4557">
        <ele>197.21</ele>
        <time>2016-12-14T16:27:15Z</time>
      </trkpt>
      <trkpt lat="43.5024" lon="1.4562">
        <ele>200.09</ele>
        <time>2016-12-14T16:27:32Z</time>
      </trkpt>
      <trkpt lat="43.50252" lon="1.45649">
        <ele>202.01</ele>
        <time>2016-12-14T16:27:44Z</time>
      </trkpt>
      <trkpt lat="43.50278" lon="1.45684">
        <ele>204.9</ele>
        <time>2016-12-14T16:28:01Z</time>
      </trkpt>
      <trkpt lat="43.50305" lon="1.45699">
        <ele>209.22</ele>
        <time>2016-12-14T16:28:14Z</time>
      </trkpt>
      <trkpt lat="43.50338" lon="1.4572">
        <ele>212.11</ele>
        <time>2016-12-14T16:28:31Z</time>
      </trkpt>
      <trkpt lat="43.50377" lon="1.45751">
        <ele>214.99</ele>
        <time>2016-12-14T16:28:50Z</time>
      </trkpt>
      <trkpt lat="43.50418" lon="1.45787">
        <ele>217.88</ele>
        <time>2016-12-14T16:29:09Z</time>
      </trkpt>
      <trkpt lat="43.50461" lon="1.45824">
        <ele>219.8</ele>
        <time>2016-12-14T16:29:28Z</time>
      </trkpt>
      <trkpt lat="43.50503" lon="1.45859">
        <ele>223.16</ele>
        <time>2016-12-14T16:29:47Z</time>
      </trkpt>
      <trkpt lat="43.50548" lon="1.45899">
        <ele>226.05</ele>
        <time>2016-12-14T16:30:07Z</time>
      </trkpt>
      <trkpt lat="43.50587" lon="1.45931">
        <ele>228.93</ele>
        <time>2016-12-14T16:30:25Z</time>
      </trkpt>
      <trkpt lat="43.50625" lon="1.45965">
        <ele>231.81</ele>
        <time>2016-12-14T16:30:44Z</time>
      </trkpt>
      <trkpt lat="43.50663" lon="1.45996">
        <ele>235.18</ele>
        <time>2016-12-14T16:31:02Z</time>
      </trkpt>
      <trkpt lat="43.50699" lon="1.46021">
        <ele>238.06</ele>
        <time>2016-12-14T16:31:20Z</time>
      </trkpt>
      <trkpt lat="43.50748" lon="1.46037">
        <ele>239.99</ele>
        <time>2016-12-14T16:31:38Z</time>
      </trkpt>
      <trkpt lat="43.50812" lon="1.46046">
        <ele>240.95</ele>
        <time>2016-12-14T16:31:52Z</time>
      </trkpt>
      <trkpt lat="43.50898" lon="1.4606">
        <ele>239.99</ele>
        <time>2016-12-14T16:32:10Z</time>
      </trkpt>
      <trkpt lat="43.50991" lon="1.46078">
        <ele>239.99</ele>
        <time>2016-12-14T16:32:30Z</time>
      </trkpt>
      <trkpt lat="43.51045" lon="1.4609">
        <ele>240.95</ele>
        <time>2016-12-14T16:32:42Z</time>
      </trkpt>
      <trkpt lat="43.51104" lon="1.46116">
        <ele>241.91</ele>
        <time>2016-12-14T16:32:57Z</time>
      </trkpt>
      <trkpt lat="43.5118" lon="1.46158">
        <ele>242.87</ele>
        <time>2016-12-14T16:33:14Z</time>
      </trkpt>
      <trkpt lat="43.51223" lon="1.46181">
        <ele>242.87</ele>
        <time>2016-12-14T16:33:24Z</time>
      </trkpt>
      <trkpt lat="43.51279" lon="1.46207">
        <ele>243.83</ele>
        <time>2016-12-14T16:33:40Z</time>
      </trkpt>
      <trkpt lat="43.51348" lon="1.46238">
        <ele>247.2</ele>
        <time>2016-12-14T16:34:00Z</time>
      </trkpt>
      <trkpt lat="43.51388" lon="1.46266">
        <ele>248.16</ele>
        <time>2016-12-14T16:34:14Z</time>
      </trkpt>
      <trkpt lat="43.51417" lon="1.46256">
        <ele>250.08</ele>
        <time>2016-12-14T16:34:24Z</time>
      </trkpt>
      <trkpt lat="43.51451" lon="1.46245">
        <ele>250.08</ele>
        <time>2016-12-14T16:34:35Z</time>
      </trkpt>
      <trkpt lat="43.51487" lon="1.46236">
        <ele>252</ele>
        <time>2016-12-14T16:34:48Z</time>
      </trkpt>
      <trkpt lat="43.51517" lon="1.46228">
        <ele>254.89</ele>
        <time>2016-12-14T16:35:00Z</time>
      </trkpt>
      <trkpt lat="43.51559" lon="1.46232">
        <ele>256.81</ele>
        <time>2016-12-14T16:35:11Z</time>
      </trkpt>
      <trkpt lat="43.51635" lon="1.4624">
        <ele>256.81</ele>
        <time>2016-12-14T16:35:27Z</time>
      </trkpt>
      <trkpt lat="43.51662" lon="1.46245">
        <ele>256.81</ele>
        <time>2016-12-14T16:35:33Z</time>
      </trkpt>
      <trkpt lat="43.51666" lon="1.46247">
        <ele>256.81</ele>
        <time>2016-12-14T16:35:34Z</time>
      </trkpt>
      <trkpt lat="43.5167" lon="1.46248">
        <ele>256.81</ele>
        <time>2016-12-14T16:35:35Z</time>
      </trkpt>
      <trkpt lat="43.51675" lon="1.46249">
        <ele>256.81</ele>
        <time>2016-12-14T16:35:36Z</time>
      </trkpt>
      <trkpt lat="43.51679" lon="1.4625">
        <ele>256.81</ele>
        <time>2016-12-14T16:35:37Z</time>
      </trkpt>
      <trkpt lat="43.51684" lon="1.46251">
        <ele>256.81</ele>
        <time>2016-12-14T16:35:38Z</time>
      </trkpt>
      <trkpt lat="43.5174" lon="1.46275">
        <ele>256.81</ele>
        <time>2016-12-14T16:35:51Z</time>
      </trkpt>
      <trkpt lat="43.51759" lon="1.46284">
        <ele>256.81</ele>
        <time>2016-12-14T16:35:55Z</time>
      </trkpt>
      <trkpt lat="43.51764" lon="1.46287">
        <ele>256.81</ele>
        <time>2016-12-14T16:35:56Z</time>
      </trkpt>
      <trkpt lat="43.51769" lon="1.4629">
        <ele>256.81</ele>
        <time>2016-12-14T16:35:57Z</time>
      </trkpt>
      <trkpt lat="43.51778" lon="1.46297">
        <ele>256.81</ele>
        <time>2016-12-14T16:35:59Z</time>
      </trkpt>
      <trkpt lat="43.51784" lon="1.46299">
        <ele>256.81</ele>
        <time>2016-12-14T16:36:00Z</time>
      </trkpt>
      <trkpt lat="43.51803" lon="1.46304">
        <ele>256.81</ele>
        <time>2016-12-14T16:36:03Z</time>
      </trkpt>
      <trkpt lat="43.51904" lon="1.46328">
        <ele>253.93</ele>
        <time>2016-12-14T16:36:17Z</time>
      </trkpt>
      <trkpt lat="43.51973" lon="1.46322">
        <ele>251.04</ele>
        <time>2016-12-14T16:36:25Z</time>
      </trkpt>
      <trkpt lat="43.52026" lon="1.46305">
        <ele>247.2</ele>
        <time>2016-12-14T16:36:31Z</time>
      </trkpt>
      <trkpt lat="43.5208" lon="1.46281">
        <ele>243.83</ele>
        <time>2016-12-14T16:36:37Z</time>
      </trkpt>
      <trkpt lat="43.52146" lon="1.46256">
        <ele>240.95</ele>
        <time>2016-12-14T16:36:44Z</time>
      </trkpt>
      <trkpt lat="43.52209" lon="1.46245">
        <ele>238.06</ele>
        <time>2016-12-14T16:36:51Z</time>
      </trkpt>
      <trkpt lat="43.52301" lon="1.46228">
        <ele>235.18</ele>
        <time>2016-12-14T16:37:03Z</time>
      </trkpt>
      <trkpt lat="43.52379" lon="1.46215">
        <ele>234.22</ele>
        <time>2016-12-14T16:37:15Z</time>
      </trkpt>
      <trkpt lat="43.52385" lon="1.46215">
        <ele>232.78</ele>
        <time>2016-12-14T16:37:16Z</time>
      </trkpt>
      <trkpt lat="43.52487" lon="1.46221">
        <ele>231.81</ele>
        <time>2016-12-14T16:37:33Z</time>
      </trkpt>
      <trkpt lat="43.52582" lon="1.4625">
        <ele>230.85</ele>
        <time>2016-12-14T16:37:46Z</time>
      </trkpt>
      <trkpt lat="43.52633" lon="1.46268">
        <ele>227.97</ele>
        <time>2016-12-14T16:37:52Z</time>
      </trkpt>
      <trkpt lat="43.52687" lon="1.46284">
        <ele>225.09</ele>
        <time>2016-12-14T16:37:58Z</time>
      </trkpt>
      <trkpt lat="43.52697" lon="1.46284">
        <ele>224.12</ele>
        <time>2016-12-14T16:37:59Z</time>
      </trkpt>
      <trkpt lat="43.52706" lon="1.46282">
        <ele>224.12</ele>
        <time>2016-12-14T16:38:00Z</time>
      </trkpt>
      <trkpt lat="43.52715" lon="1.46279">
        <ele>224.12</ele>
        <time>2016-12-14T16:38:01Z</time>
      </trkpt>
      <trkpt lat="43.52725" lon="1.46276">
        <ele>223.16</ele>
        <time>2016-12-14T16:38:02Z</time>
      </trkpt>
      <trkpt lat="43.52795" lon="1.46237">
        <ele>219.8</ele>
        <time>2016-12-14T16:38:09Z</time>
      </trkpt>
      <trkpt lat="43.52835" lon="1.46209">
        <ele>215.95</ele>
        <time>2016-12-14T16:38:13Z</time>
      </trkpt>
      <trkpt lat="43.52876" lon="1.46181">
        <ele>213.07</ele>
        <time>2016-12-14T16:38:17Z</time>
      </trkpt>
      <trkpt lat="43.52918" lon="1.46152">
        <ele>210.19</ele>
        <time>2016-12-14T16:38:21Z</time>
      </trkpt>
      <trkpt lat="43.5296" lon="1.46127">
        <ele>205.86</ele>
        <time>2016-12-14T16:38:25Z</time>
      </trkpt>
      <trkpt lat="43.5301" lon="1.4611">
        <ele>202.98</ele>
        <time>2016-12-14T16:38:30Z</time>
      </trkpt>
      <trkpt lat="43.53053" lon="1.46112">
        <ele>200.09</ele>
        <time>2016-12-14T16:38:34Z</time>
      </trkpt>
      <trkpt lat="43.53075" lon="1.4612">
        <ele>198.17</ele>
        <time>2016-12-14T16:38:36Z</time>
      </trkpt>
      <trkpt lat="43.53085" lon="1.46126">
        <ele>198.17</ele>
        <time>2016-12-14T16:38:37Z</time>
      </trkpt>
      <trkpt lat="43.53096" lon="1.46133">
        <ele>195.77</ele>
        <time>2016-12-14T16:38:38Z</time>
      </trkpt>
      <trkpt lat="43.53106" lon="1.46142">
        <ele>194.8</ele>
        <time>2016-12-14T16:38:39Z</time>
      </trkpt>
      <trkpt lat="43.53116" lon="1.46151">
        <ele>193.84</ele>
        <time>2016-12-14T16:38:40Z</time>
      </trkpt>
      <trkpt lat="43.53126" lon="1.4616">
        <ele>192.88</ele>
        <time>2016-12-14T16:38:41Z</time>
      </trkpt>
      <trkpt lat="43.53142" lon="1.46181">
        <ele>190.96</ele>
        <time>2016-12-14T16:38:43Z</time>
      </trkpt>
      <trkpt lat="43.53149" lon="1.46193">
        <ele>190</ele>
        <time>2016-12-14T16:38:44Z</time>
      </trkpt>
      <trkpt lat="43.53155" lon="1.46206">
        <ele>189.04</ele>
        <time>2016-12-14T16:38:45Z</time>
      </trkpt>
      <trkpt lat="43.53161" lon="1.4622">
        <ele>188.08</ele>
        <time>2016-12-14T16:38:46Z</time>
      </trkpt>
      <trkpt lat="43.53166" lon="1.46235">
        <ele>186.15</ele>
        <time>2016-12-14T16:38:47Z</time>
      </trkpt>
      <trkpt lat="43.5317" lon="1.46249">
        <ele>185.19</ele>
        <time>2016-12-14T16:38:48Z</time>
      </trkpt>
      <trkpt lat="43.53174" lon="1.46264">
        <ele>184.23</ele>
        <time>2016-12-14T16:38:49Z</time>
      </trkpt>
      <trkpt lat="43.5319" lon="1.46323">
        <ele>180.87</ele>
        <time>2016-12-14T16:38:53Z</time>
      </trkpt>
      <trkpt lat="43.53206" lon="1.46383">
        <ele>177.02</ele>
        <time>2016-12-14T16:38:57Z</time>
      </trkpt>
      <trkpt lat="43.53217" lon="1.46439">
        <ele>173.17</ele>
        <time>2016-12-14T16:39:01Z</time>
      </trkpt>
      <trkpt lat="43.53217" lon="1.46452">
        <ele>170.77</ele>
        <time>2016-12-14T16:39:02Z</time>
      </trkpt>
      <trkpt lat="43.53217" lon="1.46463">
        <ele>170.77</ele>
        <time>2016-12-14T16:39:03Z</time>
      </trkpt>
      <trkpt lat="43.53219" lon="1.46519">
        <ele>168.85</ele>
        <time>2016-12-14T16:39:09Z</time>
      </trkpt>
      <trkpt lat="43.53219" lon="1.46526">
        <ele>168.85</ele>
        <time>2016-12-14T16:39:10Z</time>
      </trkpt>
      <trkpt lat="43.53218" lon="1.46567">
        <ele>168.85</ele>
        <time>2016-12-14T16:39:16Z</time>
      </trkpt>
      <trkpt lat="43.53217" lon="1.46631">
        <ele>172.21</ele>
        <time>2016-12-14T16:39:28Z</time>
      </trkpt>
      <trkpt lat="43.53213" lon="1.46687">
        <ele>174.14</ele>
        <time>2016-12-14T16:39:42Z</time>
      </trkpt>
      <trkpt lat="43.53211" lon="1.46741">
        <ele>177.02</ele>
        <time>2016-12-14T16:39:56Z</time>
      </trkpt>
      <trkpt lat="43.53219" lon="1.46792">
        <ele>179.9</ele>
        <time>2016-12-14T16:40:11Z</time>
      </trkpt>
      <trkpt lat="43.53238" lon="1.46837">
        <ele>182.79</ele>
        <time>2016-12-14T16:40:28Z</time>
      </trkpt>
      <trkpt lat="43.53267" lon="1.46877">
        <ele>187.11</ele>
        <time>2016-12-14T16:40:46Z</time>
      </trkpt>
      <trkpt lat="43.53315" lon="1.46918">
        <ele>189.04</ele>
        <time>2016-12-14T16:41:07Z</time>
      </trkpt>
      <trkpt lat="43.53355" lon="1.46946">
        <ele>191.92</ele>
        <time>2016-12-14T16:41:24Z</time>
      </trkpt>
      <trkpt lat="43.53392" lon="1.46971">
        <ele>194.8</ele>
        <time>2016-12-14T16:41:40Z</time>
      </trkpt>
      <trkpt lat="43.53433" lon="1.47016">
        <ele>194.8</ele>
        <time>2016-12-14T16:41:53Z</time>
      </trkpt>
      <trkpt lat="43.53443" lon="1.47031">
        <ele>194.8</ele>
        <time>2016-12-14T16:41:56Z</time>
      </trkpt>
      <trkpt lat="43.53445" lon="1.47037">
        <ele>194.8</ele>
        <time>2016-12-14T16:41:57Z</time>
      </trkpt>
      <trkpt lat="43.53451" lon="1.4705">
        <ele>194.8</ele>
        <time>2016-12-14T16:41:59Z</time>
      </trkpt>
      <trkpt lat="43.53456" lon="1.47056">
        <ele>194.8</ele>
        <time>2016-12-14T16:42:00Z</time>
      </trkpt>
      <trkpt lat="43.53461" lon="1.4706">
        <ele>193.84</ele>
        <time>2016-12-14T16:42:01Z</time>
      </trkpt>
      <trkpt lat="43.53466" lon="1.47065">
        <ele>193.84</ele>
        <time>2016-12-14T16:42:02Z</time>
      </trkpt>
      <trkpt lat="43.53472" lon="1.4707">
        <ele>193.84</ele>
        <time>2016-12-14T16:42:03Z</time>
      </trkpt>
      <trkpt lat="43.53477" lon="1.47075">
        <ele>192.88</ele>
        <time>2016-12-14T16:42:04Z</time>
      </trkpt>
      <trkpt lat="43.53482" lon="1.47082">
        <ele>192.88</ele>
        <time>2016-12-14T16:42:05Z</time>
      </trkpt>
      <trkpt lat="43.53541" lon="1.47153">
        <ele>190</ele>
        <time>2016-12-14T16:42:16Z</time>
      </trkpt>
      <trkpt lat="43.53585" lon="1.47211">
        <ele>187.11</ele>
        <time>2016-12-14T16:42:24Z</time>
      </trkpt>
      <trkpt lat="43.53608" lon="1.47238">
        <ele>184.23</ele>
        <time>2016-12-14T16:42:29Z</time>
      </trkpt>
      <trkpt lat="43.53651" lon="1.47284">
        <ele>179.9</ele>
        <time>2016-12-14T16:42:37Z</time>
      </trkpt>
      <trkpt lat="43.53693" lon="1.47332">
        <ele>177.02</ele>
        <time>2016-12-14T16:42:44Z</time>
      </trkpt>
      <trkpt lat="43.53745" lon="1.4739">
        <ele>174.14</ele>
        <time>2016-12-14T16:42:51Z</time>
      </trkpt>
      <trkpt lat="43.5377" lon="1.47422">
        <ele>170.77</ele>
        <time>2016-12-14T16:42:55Z</time>
      </trkpt>
      <trkpt lat="43.53773" lon="1.4743">
        <ele>169.81</ele>
        <time>2016-12-14T16:42:56Z</time>
      </trkpt>
      <trkpt lat="43.53775" lon="1.47437">
        <ele>169.81</ele>
        <time>2016-12-14T16:42:57Z</time>
      </trkpt>
      <trkpt lat="43.53776" lon="1.47443">
        <ele>168.85</ele>
        <time>2016-12-14T16:42:58Z</time>
      </trkpt>
      <trkpt lat="43.53777" lon="1.4745">
        <ele>168.85</ele>
        <time>2016-12-14T16:42:59Z</time>
      </trkpt>
      <trkpt lat="43.53779" lon="1.47456">
        <ele>167.89</ele>
        <time>2016-12-14T16:43:00Z</time>
      </trkpt>
      <trkpt lat="43.53781" lon="1.4746">
        <ele>166.93</ele>
        <time>2016-12-14T16:43:01Z</time>
      </trkpt>
      <trkpt lat="43.53785" lon="1.47464">
        <ele>166.93</ele>
        <time>2016-12-14T16:43:02Z</time>
      </trkpt>
      <trkpt lat="43.53789" lon="1.47467">
        <ele>166.93</ele>
        <time>2016-12-14T16:43:03Z</time>
      </trkpt>
      <trkpt lat="43.53792" lon="1.47472">
        <ele>166.93</ele>
        <time>2016-12-14T16:43:04Z</time>
      </trkpt>
      <trkpt lat="43.53795" lon="1.4748">
        <ele>165.96</ele>
        <time>2016-12-14T16:43:05Z</time>
      </trkpt>
      <trkpt lat="43.53797" lon="1.47488">
        <ele>165.96</ele>
        <time>2016-12-14T16:43:06Z</time>
      </trkpt>
      <trkpt lat="43.538" lon="1.47497">
        <ele>165.96</ele>
        <time>2016-12-14T16:43:07Z</time>
      </trkpt>
      <trkpt lat="43.53802" lon="1.47505">
        <ele>165.96</ele>
        <time>2016-12-14T16:43:08Z</time>
      </trkpt>
      <trkpt lat="43.53814" lon="1.47548">
        <ele>165</ele>
        <time>2016-12-14T16:43:13Z</time>
      </trkpt>
      <trkpt lat="43.53817" lon="1.47556">
        <ele>164.04</ele>
        <time>2016-12-14T16:43:14Z</time>
      </trkpt>
      <trkpt lat="43.53837" lon="1.47618">
        <ele>161.16</ele>
        <time>2016-12-14T16:43:21Z</time>
      </trkpt>
      <trkpt lat="43.53877" lon="1.47715">
        <ele>157.79</ele>
        <time>2016-12-14T16:43:33Z</time>
      </trkpt>
      <trkpt lat="43.53881" lon="1.47722">
        <ele>157.79</ele>
        <time>2016-12-14T16:43:34Z</time>
      </trkpt>
      <trkpt lat="43.53887" lon="1.4773">
        <ele>157.79</ele>
        <time>2016-12-14T16:43:35Z</time>
      </trkpt>
      <trkpt lat="43.53892" lon="1.47737">
        <ele>156.83</ele>
        <time>2016-12-14T16:43:36Z</time>
      </trkpt>
      <trkpt lat="43.53896" lon="1.47744">
        <ele>156.83</ele>
        <time>2016-12-14T16:43:37Z</time>
      </trkpt>
      <trkpt lat="43.53906" lon="1.47758">
        <ele>156.83</ele>
        <time>2016-12-14T16:43:39Z</time>
      </trkpt>
      <trkpt lat="43.5391" lon="1.47765">
        <ele>156.83</ele>
        <time>2016-12-14T16:43:40Z</time>
      </trkpt>
      <trkpt lat="43.53913" lon="1.47772">
        <ele>156.83</ele>
        <time>2016-12-14T16:43:41Z</time>
      </trkpt>
      <trkpt lat="43.53915" lon="1.47781">
        <ele>155.87</ele>
        <time>2016-12-14T16:43:42Z</time>
      </trkpt>
      <trkpt lat="43.53917" lon="1.47788">
        <ele>155.87</ele>
        <time>2016-12-14T16:43:43Z</time>
      </trkpt>
      <trkpt lat="43.5392" lon="1.47794">
        <ele>155.87</ele>
        <time>2016-12-14T16:43:44Z</time>
      </trkpt>
      <trkpt lat="43.53923" lon="1.47799">
        <ele>155.87</ele>
        <time>2016-12-14T16:43:45Z</time>
      </trkpt>
      <trkpt lat="43.53928" lon="1.47803">
        <ele>154.91</ele>
        <time>2016-12-14T16:43:46Z</time>
      </trkpt>
      <trkpt lat="43.53934" lon="1.47805">
        <ele>154.91</ele>
        <time>2016-12-14T16:43:47Z</time>
      </trkpt>
      <trkpt lat="43.5394" lon="1.47809">
        <ele>154.91</ele>
        <time>2016-12-14T16:43:48Z</time>
      </trkpt>
      <trkpt lat="43.53946" lon="1.47814">
        <ele>154.91</ele>
        <time>2016-12-14T16:43:49Z</time>
      </trkpt>
      <trkpt lat="43.53951" lon="1.4782">
        <ele>154.91</ele>
        <time>2016-12-14T16:43:50Z</time>
      </trkpt>
      <trkpt lat="43.53956" lon="1.47827">
        <ele>154.91</ele>
        <time>2016-12-14T16:43:51Z</time>
      </trkpt>
      <trkpt lat="43.5396" lon="1.47833">
        <ele>153.95</ele>
        <time>2016-12-14T16:43:52Z</time>
      </trkpt>
      <trkpt lat="43.53966" lon="1.4784">
        <ele>153.95</ele>
        <time>2016-12-14T16:43:53Z</time>
      </trkpt>
      <trkpt lat="43.53971" lon="1.47846">
        <ele>153.95</ele>
        <time>2016-12-14T16:43:54Z</time>
      </trkpt>
      <trkpt lat="43.53976" lon="1.47853">
        <ele>153.95</ele>
        <time>2016-12-14T16:43:55Z</time>
      </trkpt>
      <trkpt lat="43.53982" lon="1.47859">
        <ele>153.95</ele>
        <time>2016-12-14T16:43:56Z</time>
      </trkpt>
      <trkpt lat="43.53988" lon="1.47865">
        <ele>152.99</ele>
        <time>2016-12-14T16:43:57Z</time>
      </trkpt>
      <trkpt lat="43.54015" lon="1.47903">
        <ele>150.1</ele>
        <time>2016-12-14T16:44:07Z</time>
      </trkpt>
      <trkpt lat="43.54017" lon="1.47902">
        <ele>150.1</ele>
        <time>2016-12-14T16:44:12Z</time>
      </trkpt>
      <trkpt lat="43.5402" lon="1.47909">
        <ele>150.1</ele>
        <time>2016-12-14T16:44:27Z</time>
      </trkpt>
      <trkpt lat="43.5402" lon="1.47912">
        <ele>150.1</ele>
        <time>2016-12-14T16:44:28Z</time>
      </trkpt>
      <trkpt lat="43.54023" lon="1.47913">
        <ele>150.1</ele>
        <time>2016-12-14T16:44:29Z</time>
      </trkpt>
      <trkpt lat="43.54025" lon="1.47915">
        <ele>150.1</ele>
        <time>2016-12-14T16:44:30Z</time>
      </trkpt>
      <trkpt lat="43.54028" lon="1.47918">
        <ele>150.1</ele>
        <time>2016-12-14T16:44:31Z</time>
      </trkpt>
      <trkpt lat="43.54031" lon="1.47921">
        <ele>150.1</ele>
        <time>2016-12-14T16:44:32Z</time>
      </trkpt>
      <trkpt lat="43.54034" lon="1.47925">
        <ele>150.1</ele>
        <time>2016-12-14T16:44:33Z</time>
      </trkpt>
      <trkpt lat="43.54038" lon="1.4793">
        <ele>150.1</ele>
        <time>2016-12-14T16:44:34Z</time>
      </trkpt>
      <trkpt lat="43.54049" lon="1.47952">
        <ele>150.1</ele>
        <time>2016-12-14T16:44:38Z</time>
      </trkpt>
      <trkpt lat="43.54053" lon="1.47958">
        <ele>150.1</ele>
        <time>2016-12-14T16:44:39Z</time>
      </trkpt>
      <trkpt lat="43.54055" lon="1.47963">
        <ele>150.1</ele>
        <time>2016-12-14T16:44:40Z</time>
      </trkpt>
      <trkpt lat="43.54058" lon="1.47968">
        <ele>150.1</ele>
        <time>2016-12-14T16:44:41Z</time>
      </trkpt>
      <trkpt lat="43.5406" lon="1.47973">
        <ele>149.14</ele>
        <time>2016-12-14T16:44:42Z</time>
      </trkpt>
      <trkpt lat="43.54062" lon="1.47978">
        <ele>149.14</ele>
        <time>2016-12-14T16:44:43Z</time>
      </trkpt>
      <trkpt lat="43.54064" lon="1.47983">
        <ele>149.14</ele>
        <time>2016-12-14T16:44:44Z</time>
      </trkpt>
      <trkpt lat="43.54085" lon="1.4803">
        <ele>148.18</ele>
        <time>2016-12-14T16:44:52Z</time>
      </trkpt>
      <trkpt lat="43.54087" lon="1.48037">
        <ele>147.22</ele>
        <time>2016-12-14T16:44:53Z</time>
      </trkpt>
      <trkpt lat="43.54115" lon="1.48138">
        <ele>144.82</ele>
        <time>2016-12-14T16:45:04Z</time>
      </trkpt>
      <trkpt lat="43.54117" lon="1.48169">
        <ele>142.89</ele>
        <time>2016-12-14T16:45:07Z</time>
      </trkpt>
      <trkpt lat="43.5412" lon="1.48233">
        <ele>140.01</ele>
        <time>2016-12-14T16:45:14Z</time>
      </trkpt>
      <trkpt lat="43.54119" lon="1.48241">
        <ele>140.01</ele>
        <time>2016-12-14T16:45:15Z</time>
      </trkpt>
      <trkpt lat="43.54117" lon="1.48248">
        <ele>140.01</ele>
        <time>2016-12-14T16:45:16Z</time>
      </trkpt>
      <trkpt lat="43.54113" lon="1.48254">
        <ele>140.01</ele>
        <time>2016-12-14T16:45:17Z</time>
      </trkpt>
      <trkpt lat="43.54109" lon="1.48257">
        <ele>140.01</ele>
        <time>2016-12-14T16:45:18Z</time>
      </trkpt>
      <trkpt lat="43.54104" lon="1.4826">
        <ele>140.01</ele>
        <time>2016-12-14T16:45:19Z</time>
      </trkpt>
      <trkpt lat="43.541" lon="1.48262">
        <ele>140.01</ele>
        <time>2016-12-14T16:45:20Z</time>
      </trkpt>
      <trkpt lat="43.54096" lon="1.48265">
        <ele>140.01</ele>
        <time>2016-12-14T16:45:21Z</time>
      </trkpt>
      <trkpt lat="43.54092" lon="1.48269">
        <ele>140.01</ele>
        <time>2016-12-14T16:45:22Z</time>
      </trkpt>
      <trkpt lat="43.54089" lon="1.48274">
        <ele>140.01</ele>
        <time>2016-12-14T16:45:23Z</time>
      </trkpt>
      <trkpt lat="43.54085" lon="1.48279">
        <ele>140.01</ele>
        <time>2016-12-14T16:45:24Z</time>
      </trkpt>
      <trkpt lat="43.54083" lon="1.48284">
        <ele>140.01</ele>
        <time>2016-12-14T16:45:25Z</time>
      </trkpt>
      <trkpt lat="43.54078" lon="1.48295">
        <ele>140.01</ele>
        <time>2016-12-14T16:45:27Z</time>
      </trkpt>
      <trkpt lat="43.54076" lon="1.48301">
        <ele>140.01</ele>
        <time>2016-12-14T16:45:28Z</time>
      </trkpt>
      <trkpt lat="43.54076" lon="1.48307">
        <ele>140.01</ele>
        <time>2016-12-14T16:45:29Z</time>
      </trkpt>
      <trkpt lat="43.54076" lon="1.48313">
        <ele>140.01</ele>
        <time>2016-12-14T16:45:30Z</time>
      </trkpt>
      <trkpt lat="43.54076" lon="1.4832">
        <ele>140.01</ele>
        <time>2016-12-14T16:45:31Z</time>
      </trkpt>
      <trkpt lat="43.54078" lon="1.48326">
        <ele>140.01</ele>
        <time>2016-12-14T16:45:32Z</time>
      </trkpt>
      <trkpt lat="43.5408" lon="1.48332">
        <ele>140.01</ele>
        <time>2016-12-14T16:45:33Z</time>
      </trkpt>
      <trkpt lat="43.54083" lon="1.48336">
        <ele>140.01</ele>
        <time>2016-12-14T16:45:34Z</time>
      </trkpt>
      <trkpt lat="43.54087" lon="1.48341">
        <ele>140.01</ele>
        <time>2016-12-14T16:45:35Z</time>
      </trkpt>
      <trkpt lat="43.54092" lon="1.48344">
        <ele>140.01</ele>
        <time>2016-12-14T16:45:36Z</time>
      </trkpt>
      <trkpt lat="43.54097" lon="1.48346">
        <ele>140.01</ele>
        <time>2016-12-14T16:45:37Z</time>
      </trkpt>
      <trkpt lat="43.54102" lon="1.48347">
        <ele>140.01</ele>
        <time>2016-12-14T16:45:38Z</time>
      </trkpt>
      <trkpt lat="43.54107" lon="1.48348">
        <ele>140.01</ele>
        <time>2016-12-14T16:45:39Z</time>
      </trkpt>
      <trkpt lat="43.54112" lon="1.48347">
        <ele>140.01</ele>
        <time>2016-12-14T16:45:40Z</time>
      </trkpt>
      <trkpt lat="43.54118" lon="1.48346">
        <ele>140.01</ele>
        <time>2016-12-14T16:45:41Z</time>
      </trkpt>
      <trkpt lat="43.54123" lon="1.48344">
        <ele>140.01</ele>
        <time>2016-12-14T16:45:42Z</time>
      </trkpt>
      <trkpt lat="43.54127" lon="1.48342">
        <ele>140.01</ele>
        <time>2016-12-14T16:45:43Z</time>
      </trkpt>
      <trkpt lat="43.54146" lon="1.48326">
        <ele>140.01</ele>
        <time>2016-12-14T16:45:47Z</time>
      </trkpt>
      <trkpt lat="43.54149" lon="1.4832">
        <ele>140.01</ele>
        <time>2016-12-14T16:45:48Z</time>
      </trkpt>
      <trkpt lat="43.54152" lon="1.48313">
        <ele>140.01</ele>
        <time>2016-12-14T16:45:49Z</time>
      </trkpt>
      <trkpt lat="43.54153" lon="1.48307">
        <ele>140.01</ele>
        <time>2016-12-14T16:45:50Z</time>
      </trkpt>
      <trkpt lat="43.54155" lon="1.483">
        <ele>140.01</ele>
        <time>2016-12-14T16:45:51Z</time>
      </trkpt>
      <trkpt lat="43.54157" lon="1.48294">
        <ele>140.01</ele>
        <time>2016-12-14T16:45:52Z</time>
      </trkpt>
      <trkpt lat="43.5416" lon="1.48289">
        <ele>140.01</ele>
        <time>2016-12-14T16:45:53Z</time>
      </trkpt>
      <trkpt lat="43.54164" lon="1.48286">
        <ele>140.01</ele>
        <time>2016-12-14T16:45:54Z</time>
      </trkpt>
      <trkpt lat="43.54169" lon="1.48285">
        <ele>140.01</ele>
        <time>2016-12-14T16:45:55Z</time>
      </trkpt>
      <trkpt lat="43.54174" lon="1.48285">
        <ele>140.01</ele>
        <time>2016-12-14T16:45:56Z</time>
      </trkpt>
      <trkpt lat="43.54178" lon="1.48286">
        <ele>140.01</ele>
        <time>2016-12-14T16:45:57Z</time>
      </trkpt>
      <trkpt lat="43.54182" lon="1.48289">
        <ele>140.01</ele>
        <time>2016-12-14T16:45:58Z</time>
      </trkpt>
      <trkpt lat="43.54185" lon="1.48294">
        <ele>140.01</ele>
        <time>2016-12-14T16:45:59Z</time>
      </trkpt>
      <trkpt lat="43.54188" lon="1.48299">
        <ele>140.01</ele>
        <time>2016-12-14T16:46:00Z</time>
      </trkpt>
      <trkpt lat="43.54191" lon="1.48304">
        <ele>140.01</ele>
        <time>2016-12-14T16:46:01Z</time>
      </trkpt>
      <trkpt lat="43.54193" lon="1.4831">
        <ele>140.01</ele>
        <time>2016-12-14T16:46:02Z</time>
      </trkpt>
      <trkpt lat="43.54214" lon="1.48364">
        <ele>139.05</ele>
        <time>2016-12-14T16:46:11Z</time>
      </trkpt>
      <trkpt lat="43.54217" lon="1.4837">
        <ele>139.05</ele>
        <time>2016-12-14T16:46:12Z</time>
      </trkpt>
      <trkpt lat="43.54282" lon="1.48497">
        <ele>136.16</ele>
        <time>2016-12-14T16:46:31Z</time>
      </trkpt>
      <trkpt lat="43.54324" lon="1.48578">
        <ele>135.2</ele>
        <time>2016-12-14T16:46:44Z</time>
      </trkpt>
      <trkpt lat="43.54326" lon="1.48584">
        <ele>135.2</ele>
        <time>2016-12-14T16:46:45Z</time>
      </trkpt>
      <trkpt lat="43.5433" lon="1.48596">
        <ele>135.2</ele>
        <time>2016-12-14T16:46:47Z</time>
      </trkpt>
      <trkpt lat="43.54331" lon="1.48602">
        <ele>133.76</ele>
        <time>2016-12-14T16:46:48Z</time>
      </trkpt>
      <trkpt lat="43.5436" lon="1.48712">
        <ele>133.76</ele>
        <time>2016-12-14T16:47:05Z</time>
      </trkpt>
      <trkpt lat="43.54363" lon="1.48731">
        <ele>133.76</ele>
        <time>2016-12-14T16:47:08Z</time>
      </trkpt>
      <trkpt lat="43.54364" lon="1.48738">
        <ele>133.76</ele>
        <time>2016-12-14T16:47:09Z</time>
      </trkpt>
      <trkpt lat="43.54365" lon="1.48751">
        <ele>133.76</ele>
        <time>2016-12-14T16:47:11Z</time>
      </trkpt>
      <trkpt lat="43.54366" lon="1.48758">
        <ele>133.76</ele>
        <time>2016-12-14T16:47:12Z</time>
      </trkpt>
      <trkpt lat="43.54378" lon="1.48821">
        <ele>132.8</ele>
        <time>2016-12-14T16:47:21Z</time>
      </trkpt>
      <trkpt lat="43.54418" lon="1.4891">
        <ele>132.8</ele>
        <time>2016-12-14T16:47:36Z</time>
      </trkpt>
      <trkpt lat="43.54433" lon="1.48949">
        <ele>132.8</ele>
        <time>2016-12-14T16:47:43Z</time>
      </trkpt>
      <trkpt lat="43.54435" lon="1.48955">
        <ele>132.8</ele>
        <time>2016-12-14T16:47:44Z</time>
      </trkpt>
      <trkpt lat="43.54437" lon="1.48961">
        <ele>132.8</ele>
        <time>2016-12-14T16:47:45Z</time>
      </trkpt>
      <trkpt lat="43.5444" lon="1.48966">
        <ele>132.8</ele>
        <time>2016-12-14T16:47:46Z</time>
      </trkpt>
      <trkpt lat="43.54443" lon="1.48971">
        <ele>132.8</ele>
        <time>2016-12-14T16:47:47Z</time>
      </trkpt>
      <trkpt lat="43.54457" lon="1.48995">
        <ele>132.8</ele>
        <time>2016-12-14T16:47:53Z</time>
      </trkpt>
      <trkpt lat="43.54461" lon="1.48995">
        <ele>132.8</ele>
        <time>2016-12-14T16:47:54Z</time>
      </trkpt>
      <trkpt lat="43.54464" lon="1.48993">
        <ele>132.8</ele>
        <time>2016-12-14T16:47:55Z</time>
      </trkpt>
      <trkpt lat="43.54468" lon="1.48989">
        <ele>132.8</ele>
        <time>2016-12-14T16:47:56Z</time>
      </trkpt>
      <trkpt lat="43.54471" lon="1.48985">
        <ele>132.8</ele>
        <time>2016-12-14T16:47:57Z</time>
      </trkpt>
      <trkpt lat="43.54475" lon="1.48979">
        <ele>132.8</ele>
        <time>2016-12-14T16:47:58Z</time>
      </trkpt>
      <trkpt lat="43.54511" lon="1.48895">
        <ele>130.88</ele>
        <time>2016-12-14T16:48:11Z</time>
      </trkpt>
      <trkpt lat="43.5455" lon="1.48783">
        <ele>129.92</ele>
        <time>2016-12-14T16:48:28Z</time>
      </trkpt>
      <trkpt lat="43.54591" lon="1.48673">
        <ele>130.88</ele>
        <time>2016-12-14T16:48:45Z</time>
      </trkpt>
      <trkpt lat="43.54657" lon="1.48583">
        <ele>130.88</ele>
        <time>2016-12-14T16:49:03Z</time>
      </trkpt>
      <trkpt lat="43.54718" lon="1.48531">
        <ele>129.92</ele>
        <time>2016-12-14T16:49:16Z</time>
      </trkpt>
      <trkpt lat="43.54722" lon="1.48527">
        <ele>129.92</ele>
        <time>2016-12-14T16:49:17Z</time>
      </trkpt>
      <trkpt lat="43.54766" lon="1.48493">
        <ele>130.88</ele>
        <time>2016-12-14T16:49:27Z</time>
      </trkpt>
      <trkpt lat="43.5478" lon="1.48481">
        <ele>130.88</ele>
        <time>2016-12-14T16:49:30Z</time>
      </trkpt>
      <trkpt lat="43.54788" lon="1.48472">
        <ele>130.88</ele>
        <time>2016-12-14T16:49:32Z</time>
      </trkpt>
      <trkpt lat="43.548" lon="1.48459">
        <ele>130.88</ele>
        <time>2016-12-14T16:49:35Z</time>
      </trkpt>
      <trkpt lat="43.54807" lon="1.48454">
        <ele>130.88</ele>
        <time>2016-12-14T16:49:37Z</time>
      </trkpt>
      <trkpt lat="43.54819" lon="1.48448">
        <ele>130.88</ele>
        <time>2016-12-14T16:49:40Z</time>
      </trkpt>
      <trkpt lat="43.54835" lon="1.48448">
        <ele>129.92</ele>
        <time>2016-12-14T16:49:44Z</time>
      </trkpt>
      <trkpt lat="43.54838" lon="1.48451">
        <ele>129.92</ele>
        <time>2016-12-14T16:49:45Z</time>
      </trkpt>
      <trkpt lat="43.54842" lon="1.48458">
        <ele>129.92</ele>
        <time>2016-12-14T16:49:46Z</time>
      </trkpt>
      <trkpt lat="43.54845" lon="1.48464">
        <ele>129.92</ele>
        <time>2016-12-14T16:49:47Z</time>
      </trkpt>
      <trkpt lat="43.54848" lon="1.48469">
        <ele>129.92</ele>
        <time>2016-12-14T16:49:48Z</time>
      </trkpt>
      <trkpt lat="43.54851" lon="1.48475">
        <ele>129.92</ele>
        <time>2016-12-14T16:49:49Z</time>
      </trkpt>
      <trkpt lat="43.54854" lon="1.48481">
        <ele>129.92</ele>
        <time>2016-12-14T16:49:50Z</time>
      </trkpt>
      <trkpt lat="43.54871" lon="1.48522">
        <ele>129.92</ele>
        <time>2016-12-14T16:49:57Z</time>
      </trkpt>
      <trkpt lat="43.54874" lon="1.48526">
        <ele>129.92</ele>
        <time>2016-12-14T16:49:58Z</time>
      </trkpt>
      <trkpt lat="43.54878" lon="1.48528">
        <ele>129.92</ele>
        <time>2016-12-14T16:49:59Z</time>
      </trkpt>
      <trkpt lat="43.54881" lon="1.48528">
        <ele>129.92</ele>
        <time>2016-12-14T16:50:00Z</time>
      </trkpt>
      <trkpt lat="43.54885" lon="1.48527">
        <ele>129.92</ele>
        <time>2016-12-14T16:50:01Z</time>
      </trkpt>
      <trkpt lat="43.54889" lon="1.48524">
        <ele>129.92</ele>
        <time>2016-12-14T16:50:02Z</time>
      </trkpt>
      <trkpt lat="43.54893" lon="1.48521">
        <ele>129.92</ele>
        <time>2016-12-14T16:50:03Z</time>
      </trkpt>
      <trkpt lat="43.54897" lon="1.48517">
        <ele>129.92</ele>
        <time>2016-12-14T16:50:04Z</time>
      </trkpt>
      <trkpt lat="43.549" lon="1.48512">
        <ele>129.92</ele>
        <time>2016-12-14T16:50:05Z</time>
      </trkpt>
      <trkpt lat="43.54967" lon="1.48447">
        <ele>129.92</ele>
        <time>2016-12-14T16:50:22Z</time>
      </trkpt>
      <trkpt lat="43.54973" lon="1.48439">
        <ele>129.92</ele>
        <time>2016-12-14T16:50:24Z</time>
      </trkpt>
      <trkpt lat="43.54976" lon="1.48434">
        <ele>129.92</ele>
        <time>2016-12-14T16:50:25Z</time>
      </trkpt>
      <trkpt lat="43.54978" lon="1.48429">
        <ele>129.92</ele>
        <time>2016-12-14T16:50:26Z</time>
      </trkpt>
      <trkpt lat="43.54979" lon="1.48423">
        <ele>129.92</ele>
        <time>2016-12-14T16:50:27Z</time>
      </trkpt>
      <trkpt lat="43.54979" lon="1.48417">
        <ele>129.92</ele>
        <time>2016-12-14T16:50:28Z</time>
      </trkpt>
      <trkpt lat="43.54979" lon="1.48411">
        <ele>129.92</ele>
        <time>2016-12-14T16:50:29Z</time>
      </trkpt>
      <trkpt lat="43.54978" lon="1.48405">
        <ele>129.92</ele>
        <time>2016-12-14T16:50:30Z</time>
      </trkpt>
      <trkpt lat="43.54976" lon="1.48398">
        <ele>129.92</ele>
        <time>2016-12-14T16:50:31Z</time>
      </trkpt>
      <trkpt lat="43.54974" lon="1.48392">
        <ele>129.92</ele>
        <time>2016-12-14T16:50:32Z</time>
      </trkpt>
      <trkpt lat="43.54969" lon="1.48376">
        <ele>129.92</ele>
        <time>2016-12-14T16:50:35Z</time>
      </trkpt>
      <trkpt lat="43.54967" lon="1.48356">
        <ele>129.92</ele>
        <time>2016-12-14T16:50:39Z</time>
      </trkpt>
      <trkpt lat="43.54968" lon="1.48353">
        <ele>129.92</ele>
        <time>2016-12-14T16:50:40Z</time>
      </trkpt>
      <trkpt lat="43.5497" lon="1.48349">
        <ele>129.92</ele>
        <time>2016-12-14T16:50:41Z</time>
      </trkpt>
      <trkpt lat="43.54972" lon="1.48346">
        <ele>129.92</ele>
        <time>2016-12-14T16:50:42Z</time>
      </trkpt>
      <trkpt lat="43.54974" lon="1.48342">
        <ele>129.92</ele>
        <time>2016-12-14T16:50:43Z</time>
      </trkpt>
      <trkpt lat="43.55006" lon="1.48293">
        <ele>130.88</ele>
        <time>2016-12-14T16:50:55Z</time>
      </trkpt>
      <trkpt lat="43.55016" lon="1.48284">
        <ele>131.84</ele>
        <time>2016-12-14T16:50:57Z</time>
      </trkpt>
      <trkpt lat="43.55038" lon="1.48262">
        <ele>131.84</ele>
        <time>2016-12-14T16:51:02Z</time>
      </trkpt>
      <trkpt lat="43.55042" lon="1.48257">
        <ele>131.84</ele>
        <time>2016-12-14T16:51:03Z</time>
      </trkpt>
      <trkpt lat="43.55046" lon="1.48253">
        <ele>131.84</ele>
        <time>2016-12-14T16:51:04Z</time>
      </trkpt>
      <trkpt lat="43.55051" lon="1.48248">
        <ele>131.84</ele>
        <time>2016-12-14T16:51:05Z</time>
      </trkpt>
      <trkpt lat="43.55055" lon="1.48244">
        <ele>131.84</ele>
        <time>2016-12-14T16:51:06Z</time>
      </trkpt>
      <trkpt lat="43.55068" lon="1.48231">
        <ele>130.88</ele>
        <time>2016-12-14T16:51:09Z</time>
      </trkpt>
      <trkpt lat="43.55081" lon="1.48221">
        <ele>130.88</ele>
        <time>2016-12-14T16:51:12Z</time>
      </trkpt>
      <trkpt lat="43.55085" lon="1.48219">
        <ele>130.88</ele>
        <time>2016-12-14T16:51:13Z</time>
      </trkpt>
      <trkpt lat="43.55128" lon="1.48201">
        <ele>130.88</ele>
        <time>2016-12-14T16:51:22Z</time>
      </trkpt>
      <trkpt lat="43.55134" lon="1.48199">
        <ele>130.88</ele>
        <time>2016-12-14T16:51:23Z</time>
      </trkpt>
      <trkpt lat="43.55152" lon="1.48192">
        <ele>130.88</ele>
        <time>2016-12-14T16:51:26Z</time>
      </trkpt>
      <trkpt lat="43.55158" lon="1.4819">
        <ele>130.88</ele>
        <time>2016-12-14T16:51:27Z</time>
      </trkpt>
      <trkpt lat="43.55163" lon="1.48188">
        <ele>130.88</ele>
        <time>2016-12-14T16:51:28Z</time>
      </trkpt>
      <trkpt lat="43.552" lon="1.48172">
        <ele>130.88</ele>
        <time>2016-12-14T16:51:37Z</time>
      </trkpt>
      <trkpt lat="43.55245" lon="1.48154">
        <ele>130.88</ele>
        <time>2016-12-14T16:51:48Z</time>
      </trkpt>
      <trkpt lat="43.55285" lon="1.48143">
        <ele>130.88</ele>
        <time>2016-12-14T16:51:55Z</time>
      </trkpt>
      <trkpt lat="43.55316" lon="1.48135">
        <ele>129.92</ele>
        <time>2016-12-14T16:52:00Z</time>
      </trkpt>
      <trkpt lat="43.5538" lon="1.48122">
        <ele>129.92</ele>
        <time>2016-12-14T16:52:12Z</time>
      </trkpt>
      <trkpt lat="43.55426" lon="1.48122">
        <ele>129.92</ele>
        <time>2016-12-14T16:52:20Z</time>
      </trkpt>
      <trkpt lat="43.55462" lon="1.48118">
        <ele>129.92</ele>
        <time>2016-12-14T16:52:28Z</time>
      </trkpt>
      <trkpt lat="43.55518" lon="1.48098">
        <ele>129.92</ele>
        <time>2016-12-14T16:52:39Z</time>
      </trkpt>
      <trkpt lat="43.55528" lon="1.48092">
        <ele>129.92</ele>
        <time>2016-12-14T16:52:41Z</time>
      </trkpt>
      <trkpt lat="43.55577" lon="1.48078">
        <ele>129.92</ele>
        <time>2016-12-14T16:52:53Z</time>
      </trkpt>
      <trkpt lat="43.55611" lon="1.48056">
        <ele>129.92</ele>
        <time>2016-12-14T16:53:02Z</time>
      </trkpt>
      <trkpt lat="43.55616" lon="1.48054">
        <ele>129.92</ele>
        <time>2016-12-14T16:53:03Z</time>
      </trkpt>
      <trkpt lat="43.5562" lon="1.48051">
        <ele>129.92</ele>
        <time>2016-12-14T16:53:04Z</time>
      </trkpt>
      <trkpt lat="43.55644" lon="1.48031">
        <ele>130.88</ele>
        <time>2016-12-14T16:53:10Z</time>
      </trkpt>
      <trkpt lat="43.55648" lon="1.48028">
        <ele>130.88</ele>
        <time>2016-12-14T16:53:11Z</time>
      </trkpt>
      <trkpt lat="43.55655" lon="1.48021">
        <ele>130.88</ele>
        <time>2016-12-14T16:53:13Z</time>
      </trkpt>
      <trkpt lat="43.55659" lon="1.48018">
        <ele>130.88</ele>
        <time>2016-12-14T16:53:14Z</time>
      </trkpt>
      <trkpt lat="43.55663" lon="1.48014">
        <ele>130.88</ele>
        <time>2016-12-14T16:53:15Z</time>
      </trkpt>
      <trkpt lat="43.55667" lon="1.4801">
        <ele>130.88</ele>
        <time>2016-12-14T16:53:16Z</time>
      </trkpt>
      <trkpt lat="43.55671" lon="1.48006">
        <ele>130.88</ele>
        <time>2016-12-14T16:53:17Z</time>
      </trkpt>
      <trkpt lat="43.55675" lon="1.48003">
        <ele>130.88</ele>
        <time>2016-12-14T16:53:18Z</time>
      </trkpt>
      <trkpt lat="43.55688" lon="1.47993">
        <ele>130.88</ele>
        <time>2016-12-14T16:53:21Z</time>
      </trkpt>
      <trkpt lat="43.55692" lon="1.4799">
        <ele>130.88</ele>
        <time>2016-12-14T16:53:22Z</time>
      </trkpt>
      <trkpt lat="43.55706" lon="1.47979">
        <ele>130.88</ele>
        <time>2016-12-14T16:53:25Z</time>
      </trkpt>
      <trkpt lat="43.5571" lon="1.47975">
        <ele>130.88</ele>
        <time>2016-12-14T16:53:26Z</time>
      </trkpt>
      <trkpt lat="43.55733" lon="1.47957">
        <ele>130.88</ele>
        <time>2016-12-14T16:53:31Z</time>
      </trkpt>
      <trkpt lat="43.55741" lon="1.47949">
        <ele>130.88</ele>
        <time>2016-12-14T16:53:33Z</time>
      </trkpt>
      <trkpt lat="43.55752" lon="1.47937">
        <ele>130.88</ele>
        <time>2016-12-14T16:53:36Z</time>
      </trkpt>
      <trkpt lat="43.55756" lon="1.47933">
        <ele>130.88</ele>
        <time>2016-12-14T16:53:37Z</time>
      </trkpt>
      <trkpt lat="43.55767" lon="1.47919">
        <ele>130.88</ele>
        <time>2016-12-14T16:53:40Z</time>
      </trkpt>
      <trkpt lat="43.55774" lon="1.47909">
        <ele>130.88</ele>
        <time>2016-12-14T16:53:42Z</time>
      </trkpt>
      <trkpt lat="43.55777" lon="1.47904">
        <ele>130.88</ele>
        <time>2016-12-14T16:53:43Z</time>
      </trkpt>
      <trkpt lat="43.5578" lon="1.47898">
        <ele>130.88</ele>
        <time>2016-12-14T16:53:44Z</time>
      </trkpt>
      <trkpt lat="43.55784" lon="1.47893">
        <ele>130.88</ele>
        <time>2016-12-14T16:53:45Z</time>
      </trkpt>
      <trkpt lat="43.55788" lon="1.47887">
        <ele>130.88</ele>
        <time>2016-12-14T16:53:46Z</time>
      </trkpt>
      <trkpt lat="43.55792" lon="1.47882">
        <ele>130.88</ele>
        <time>2016-12-14T16:53:47Z</time>
      </trkpt>
      <trkpt lat="43.55795" lon="1.47877">
        <ele>130.88</ele>
        <time>2016-12-14T16:53:48Z</time>
      </trkpt>
      <trkpt lat="43.55803" lon="1.47867">
        <ele>130.88</ele>
        <time>2016-12-14T16:53:50Z</time>
      </trkpt>
      <trkpt lat="43.55812" lon="1.47856">
        <ele>130.88</ele>
        <time>2016-12-14T16:53:52Z</time>
      </trkpt>
      <trkpt lat="43.55816" lon="1.4785">
        <ele>130.88</ele>
        <time>2016-12-14T16:53:53Z</time>
      </trkpt>
      <trkpt lat="43.55819" lon="1.47845">
        <ele>130.88</ele>
        <time>2016-12-14T16:53:54Z</time>
      </trkpt>
      <trkpt lat="43.55823" lon="1.47839">
        <ele>130.88</ele>
        <time>2016-12-14T16:53:55Z</time>
      </trkpt>
      <trkpt lat="43.55827" lon="1.47833">
        <ele>130.88</ele>
        <time>2016-12-14T16:53:56Z</time>
      </trkpt>
      <trkpt lat="43.55831" lon="1.47827">
        <ele>130.88</ele>
        <time>2016-12-14T16:53:57Z</time>
      </trkpt>
      <trkpt lat="43.5585" lon="1.47796">
        <ele>130.88</ele>
        <time>2016-12-14T16:54:02Z</time>
      </trkpt>
      <trkpt lat="43.55854" lon="1.4779">
        <ele>130.88</ele>
        <time>2016-12-14T16:54:03Z</time>
      </trkpt>
      <trkpt lat="43.55871" lon="1.47768">
        <ele>130.88</ele>
        <time>2016-12-14T16:54:07Z</time>
      </trkpt>
      <trkpt lat="43.55905" lon="1.47725">
        <ele>130.88</ele>
        <time>2016-12-14T16:54:15Z</time>
      </trkpt>
      <trkpt lat="43.55913" lon="1.47715">
        <ele>130.88</ele>
        <time>2016-12-14T16:54:17Z</time>
      </trkpt>
      <trkpt lat="43.55961" lon="1.47657">
        <ele>130.88</ele>
        <time>2016-12-14T16:54:28Z</time>
      </trkpt>
      <trkpt lat="43.55978" lon="1.47636">
        <ele>130.88</ele>
        <time>2016-12-14T16:54:32Z</time>
      </trkpt>
      <trkpt lat="43.55982" lon="1.47631">
        <ele>130.88</ele>
        <time>2016-12-14T16:54:33Z</time>
      </trkpt>
      <trkpt lat="43.55987" lon="1.47626">
        <ele>130.88</ele>
        <time>2016-12-14T16:54:34Z</time>
      </trkpt>
      <trkpt lat="43.55991" lon="1.47621">
        <ele>130.88</ele>
        <time>2016-12-14T16:54:35Z</time>
      </trkpt>
      <trkpt lat="43.55995" lon="1.47616">
        <ele>130.88</ele>
        <time>2016-12-14T16:54:36Z</time>
      </trkpt>
      <trkpt lat="43.56003" lon="1.47607">
        <ele>130.88</ele>
        <time>2016-12-14T16:54:38Z</time>
      </trkpt>
      <trkpt lat="43.56007" lon="1.47602">
        <ele>130.88</ele>
        <time>2016-12-14T16:54:39Z</time>
      </trkpt>
      <trkpt lat="43.5605" lon="1.47558">
        <ele>130.88</ele>
        <time>2016-12-14T16:54:49Z</time>
      </trkpt>
      <trkpt lat="43.56054" lon="1.47552">
        <ele>130.88</ele>
        <time>2016-12-14T16:54:50Z</time>
      </trkpt>
      <trkpt lat="43.56058" lon="1.47547">
        <ele>130.88</ele>
        <time>2016-12-14T16:54:51Z</time>
      </trkpt>
      <trkpt lat="43.56077" lon="1.47528">
        <ele>130.88</ele>
        <time>2016-12-14T16:54:55Z</time>
      </trkpt>
      <trkpt lat="43.56081" lon="1.47523">
        <ele>130.88</ele>
        <time>2016-12-14T16:54:56Z</time>
      </trkpt>
      <trkpt lat="43.56085" lon="1.47518">
        <ele>130.88</ele>
        <time>2016-12-14T16:54:57Z</time>
      </trkpt>
      <trkpt lat="43.56089" lon="1.47513">
        <ele>130.88</ele>
        <time>2016-12-14T16:54:58Z</time>
      </trkpt>
      <trkpt lat="43.56093" lon="1.47507">
        <ele>130.88</ele>
        <time>2016-12-14T16:54:59Z</time>
      </trkpt>
      <trkpt lat="43.56097" lon="1.47502">
        <ele>130.88</ele>
        <time>2016-12-14T16:55:00Z</time>
      </trkpt>
      <trkpt lat="43.56101" lon="1.47498">
        <ele>130.88</ele>
        <time>2016-12-14T16:55:01Z</time>
      </trkpt>
      <trkpt lat="43.56105" lon="1.47492">
        <ele>130.88</ele>
        <time>2016-12-14T16:55:02Z</time>
      </trkpt>
      <trkpt lat="43.56109" lon="1.47487">
        <ele>130.88</ele>
        <time>2016-12-14T16:55:03Z</time>
      </trkpt>
      <trkpt lat="43.56113" lon="1.47481">
        <ele>130.88</ele>
        <time>2016-12-14T16:55:04Z</time>
      </trkpt>
      <trkpt lat="43.56117" lon="1.47476">
        <ele>130.88</ele>
        <time>2016-12-14T16:55:05Z</time>
      </trkpt>
      <trkpt lat="43.56131" lon="1.4746">
        <ele>130.88</ele>
        <time>2016-12-14T16:55:08Z</time>
      </trkpt>
      <trkpt lat="43.56136" lon="1.47455">
        <ele>130.88</ele>
        <time>2016-12-14T16:55:09Z</time>
      </trkpt>
      <trkpt lat="43.56175" lon="1.47408">
        <ele>130.88</ele>
        <time>2016-12-14T16:55:18Z</time>
      </trkpt>
      <trkpt lat="43.56184" lon="1.47397">
        <ele>130.88</ele>
        <time>2016-12-14T16:55:20Z</time>
      </trkpt>
      <trkpt lat="43.56224" lon="1.47348">
        <ele>130.88</ele>
        <time>2016-12-14T16:55:30Z</time>
      </trkpt>
      <trkpt lat="43.56244" lon="1.47324">
        <ele>130.88</ele>
        <time>2016-12-14T16:55:34Z</time>
      </trkpt>
      <trkpt lat="43.56264" lon="1.47299">
        <ele>130.88</ele>
        <time>2016-12-14T16:55:39Z</time>
      </trkpt>
      <trkpt lat="43.56292" lon="1.47259">
        <ele>130.88</ele>
        <time>2016-12-14T16:55:47Z</time>
      </trkpt>
      <trkpt lat="43.56296" lon="1.47254">
        <ele>130.88</ele>
        <time>2016-12-14T16:55:48Z</time>
      </trkpt>
      <trkpt lat="43.563" lon="1.47249">
        <ele>130.88</ele>
        <time>2016-12-14T16:55:49Z</time>
      </trkpt>
      <trkpt lat="43.56305" lon="1.47243">
        <ele>130.88</ele>
        <time>2016-12-14T16:55:50Z</time>
      </trkpt>
      <trkpt lat="43.56309" lon="1.47238">
        <ele>130.88</ele>
        <time>2016-12-14T16:55:51Z</time>
      </trkpt>
      <trkpt lat="43.56313" lon="1.47233">
        <ele>130.88</ele>
        <time>2016-12-14T16:55:52Z</time>
      </trkpt>
      <trkpt lat="43.56378" lon="1.47182">
        <ele>130.88</ele>
        <time>2016-12-14T16:56:05Z</time>
      </trkpt>
      <trkpt lat="43.56406" lon="1.47172">
        <ele>130.88</ele>
        <time>2016-12-14T16:56:10Z</time>
      </trkpt>
      <trkpt lat="43.56422" lon="1.4717">
        <ele>130.88</ele>
        <time>2016-12-14T16:56:13Z</time>
      </trkpt>
      <trkpt lat="43.5648" lon="1.47169">
        <ele>131.84</ele>
        <time>2016-12-14T16:56:24Z</time>
      </trkpt>
      <trkpt lat="43.56501" lon="1.47171">
        <ele>131.84</ele>
        <time>2016-12-14T16:56:28Z</time>
      </trkpt>
      <trkpt lat="43.56512" lon="1.47171">
        <ele>131.84</ele>
        <time>2016-12-14T16:56:30Z</time>
      </trkpt>
      <trkpt lat="43.56517" lon="1.47169">
        <ele>131.84</ele>
        <time>2016-12-14T16:56:31Z</time>
      </trkpt>
      <trkpt lat="43.56522" lon="1.47168">
        <ele>131.84</ele>
        <time>2016-12-14T16:56:32Z</time>
      </trkpt>
      <trkpt lat="43.56558" lon="1.47174">
        <ele>130.88</ele>
        <time>2016-12-14T16:56:42Z</time>
      </trkpt>
      <trkpt lat="43.56595" lon="1.47175">
        <ele>130.88</ele>
        <time>2016-12-14T16:56:51Z</time>
      </trkpt>
      <trkpt lat="43.56631" lon="1.47175">
        <ele>130.88</ele>
        <time>2016-12-14T16:56:58Z</time>
      </trkpt>
      <trkpt lat="43.56698" lon="1.47176">
        <ele>131.84</ele>
        <time>2016-12-14T16:57:09Z</time>
      </trkpt>
      <trkpt lat="43.56712" lon="1.47175">
        <ele>131.84</ele>
        <time>2016-12-14T16:57:12Z</time>
      </trkpt>
      <trkpt lat="43.56717" lon="1.47174">
        <ele>131.84</ele>
        <time>2016-12-14T16:57:13Z</time>
      </trkpt>
      <trkpt lat="43.56727" lon="1.47174">
        <ele>131.84</ele>
        <time>2016-12-14T16:57:15Z</time>
      </trkpt>
      <trkpt lat="43.56732" lon="1.47174">
        <ele>131.84</ele>
        <time>2016-12-14T16:57:16Z</time>
      </trkpt>
      <trkpt lat="43.56737" lon="1.47173">
        <ele>131.84</ele>
        <time>2016-12-14T16:57:17Z</time>
      </trkpt>
      <trkpt lat="43.56742" lon="1.47173">
        <ele>131.84</ele>
        <time>2016-12-14T16:57:18Z</time>
      </trkpt>
      <trkpt lat="43.56747" lon="1.47172">
        <ele>131.84</ele>
        <time>2016-12-14T16:57:19Z</time>
      </trkpt>
      <trkpt lat="43.56752" lon="1.47171">
        <ele>131.84</ele>
        <time>2016-12-14T16:57:20Z</time>
      </trkpt>
      <trkpt lat="43.56757" lon="1.4717">
        <ele>131.84</ele>
        <time>2016-12-14T16:57:21Z</time>
      </trkpt>
      <trkpt lat="43.56795" lon="1.47168">
        <ele>131.84</ele>
        <time>2016-12-14T16:57:28Z</time>
      </trkpt>
      <trkpt lat="43.56828" lon="1.4716">
        <ele>131.84</ele>
        <time>2016-12-14T16:57:35Z</time>
      </trkpt>
      <trkpt lat="43.56839" lon="1.47156">
        <ele>131.84</ele>
        <time>2016-12-14T16:57:37Z</time>
      </trkpt>
      <trkpt lat="43.56864" lon="1.47146">
        <ele>131.84</ele>
        <time>2016-12-14T16:57:41Z</time>
      </trkpt>
      <trkpt lat="43.56873" lon="1.4714">
        <ele>131.84</ele>
        <time>2016-12-14T16:57:43Z</time>
      </trkpt>
      <trkpt lat="43.56877" lon="1.47137">
        <ele>131.84</ele>
        <time>2016-12-14T16:57:44Z</time>
      </trkpt>
      <trkpt lat="43.56881" lon="1.47134">
        <ele>131.84</ele>
        <time>2016-12-14T16:57:45Z</time>
      </trkpt>
      <trkpt lat="43.56894" lon="1.47124">
        <ele>131.84</ele>
        <time>2016-12-14T16:57:48Z</time>
      </trkpt>
      <trkpt lat="43.56898" lon="1.4712">
        <ele>131.84</ele>
        <time>2016-12-14T16:57:49Z</time>
      </trkpt>
      <trkpt lat="43.56902" lon="1.47116">
        <ele>131.84</ele>
        <time>2016-12-14T16:57:50Z</time>
      </trkpt>
      <trkpt lat="43.56924" lon="1.471">
        <ele>131.84</ele>
        <time>2016-12-14T16:57:55Z</time>
      </trkpt>
      <trkpt lat="43.56969" lon="1.47069">
        <ele>131.84</ele>
        <time>2016-12-14T16:58:05Z</time>
      </trkpt>
      <trkpt lat="43.57015" lon="1.47042">
        <ele>131.84</ele>
        <time>2016-12-14T16:58:14Z</time>
      </trkpt>
      <trkpt lat="43.57016" lon="1.47039">
        <ele>131.84</ele>
        <time>2016-12-14T16:58:15Z</time>
      </trkpt>
      <trkpt lat="43.57017" lon="1.47035">
        <ele>131.84</ele>
        <time>2016-12-14T16:58:16Z</time>
      </trkpt>
      <trkpt lat="43.57008" lon="1.47002">
        <ele>133.76</ele>
        <time>2016-12-14T16:58:25Z</time>
      </trkpt>
      <trkpt lat="43.57009" lon="1.47001">
        <ele>133.76</ele>
        <time>2016-12-14T16:58:26Z</time>
      </trkpt>
      <trkpt lat="43.57011" lon="1.46999">
        <ele>133.76</ele>
        <time>2016-12-14T16:58:27Z</time>
      </trkpt>
      <trkpt lat="43.57026" lon="1.46993">
        <ele>133.76</ele>
        <time>2016-12-14T16:58:31Z</time>
      </trkpt>
      <trkpt lat="43.57038" lon="1.46988">
        <ele>133.76</ele>
        <time>2016-12-14T16:58:33Z</time>
      </trkpt>
      <trkpt lat="43.57043" lon="1.46986">
        <ele>133.76</ele>
        <time>2016-12-14T16:58:34Z</time>
      </trkpt>
      <trkpt lat="43.57049" lon="1.46985">
        <ele>133.76</ele>
        <time>2016-12-14T16:58:35Z</time>
      </trkpt>
      <trkpt lat="43.57072" lon="1.46982">
        <ele>131.84</ele>
        <time>2016-12-14T16:58:39Z</time>
      </trkpt>
      <trkpt lat="43.57141" lon="1.46978">
        <ele>130.88</ele>
        <time>2016-12-14T16:58:51Z</time>
      </trkpt>
      <trkpt lat="43.57177" lon="1.46977">
        <ele>130.88</ele>
        <time>2016-12-14T16:58:58Z</time>
      </trkpt>
      <trkpt lat="43.57181" lon="1.46977">
        <ele>130.88</ele>
        <time>2016-12-14T16:58:59Z</time>
      </trkpt>
      <trkpt lat="43.57188" lon="1.46977">
        <ele>130.88</ele>
        <time>2016-12-14T16:59:00Z</time>
      </trkpt>
      <trkpt lat="43.57196" lon="1.46977">
        <ele>130.88</ele>
        <time>2016-12-14T16:59:01Z</time>
      </trkpt>
      <trkpt lat="43.57202" lon="1.46978">
        <ele>130.88</ele>
        <time>2016-12-14T16:59:02Z</time>
      </trkpt>
      <trkpt lat="43.57208" lon="1.46977">
        <ele>130.88</ele>
        <time>2016-12-14T16:59:03Z</time>
      </trkpt>
      <trkpt lat="43.57213" lon="1.46976">
        <ele>130.88</ele>
        <time>2016-12-14T16:59:04Z</time>
      </trkpt>
      <trkpt lat="43.57259" lon="1.46972">
        <ele>130.88</ele>
        <time>2016-12-14T16:59:11Z</time>
      </trkpt>
      <trkpt lat="43.57305" lon="1.46959">
        <ele>131.84</ele>
        <time>2016-12-14T16:59:19Z</time>
      </trkpt>
      <trkpt lat="43.57315" lon="1.46956">
        <ele>131.84</ele>
        <time>2016-12-14T16:59:21Z</time>
      </trkpt>
      <trkpt lat="43.5732" lon="1.46954">
        <ele>131.84</ele>
        <time>2016-12-14T16:59:22Z</time>
      </trkpt>
      <trkpt lat="43.57325" lon="1.46951">
        <ele>131.84</ele>
        <time>2016-12-14T16:59:23Z</time>
      </trkpt>
      <trkpt lat="43.57331" lon="1.46949">
        <ele>131.84</ele>
        <time>2016-12-14T16:59:24Z</time>
      </trkpt>
      <trkpt lat="43.57335" lon="1.46946">
        <ele>132.8</ele>
        <time>2016-12-14T16:59:25Z</time>
      </trkpt>
      <trkpt lat="43.57393" lon="1.46926">
        <ele>132.8</ele>
        <time>2016-12-14T16:59:37Z</time>
      </trkpt>
      <trkpt lat="43.57399" lon="1.46924">
        <ele>131.84</ele>
        <time>2016-12-14T16:59:38Z</time>
      </trkpt>
      <trkpt lat="43.57407" lon="1.4692">
        <ele>131.84</ele>
        <time>2016-12-14T16:59:39Z</time>
      </trkpt>
      <trkpt lat="43.57444" lon="1.46894">
        <ele>130.88</ele>
        <time>2016-12-14T16:59:45Z</time>
      </trkpt>
      <trkpt lat="43.57449" lon="1.46889">
        <ele>129.92</ele>
        <time>2016-12-14T16:59:46Z</time>
      </trkpt>
      <trkpt lat="43.57452" lon="1.46884">
        <ele>129.92</ele>
        <time>2016-12-14T16:59:47Z</time>
      </trkpt>
      <trkpt lat="43.57454" lon="1.46878">
        <ele>129.92</ele>
        <time>2016-12-14T16:59:48Z</time>
      </trkpt>
      <trkpt lat="43.57456" lon="1.46874">
        <ele>129.92</ele>
        <time>2016-12-14T16:59:49Z</time>
      </trkpt>
      <trkpt lat="43.57464" lon="1.46853">
        <ele>128.95</ele>
        <time>2016-12-14T16:59:54Z</time>
      </trkpt>
      <trkpt lat="43.57469" lon="1.46844">
        <ele>129.92</ele>
        <time>2016-12-14T16:59:56Z</time>
      </trkpt>
      <trkpt lat="43.57472" lon="1.46839">
        <ele>129.92</ele>
        <time>2016-12-14T16:59:57Z</time>
      </trkpt>
      <trkpt lat="43.57487" lon="1.46811">
        <ele>131.84</ele>
        <time>2016-12-14T17:00:03Z</time>
      </trkpt>
      <trkpt lat="43.57488" lon="1.46805">
        <ele>132.8</ele>
        <time>2016-12-14T17:00:04Z</time>
      </trkpt>
      <trkpt lat="43.57488" lon="1.46798">
        <ele>132.8</ele>
        <time>2016-12-14T17:00:05Z</time>
      </trkpt>
      <trkpt lat="43.57488" lon="1.46792">
        <ele>132.8</ele>
        <time>2016-12-14T17:00:06Z</time>
      </trkpt>
      <trkpt lat="43.57488" lon="1.46786">
        <ele>132.8</ele>
        <time>2016-12-14T17:00:07Z</time>
      </trkpt>
      <trkpt lat="43.57487" lon="1.4678">
        <ele>132.8</ele>
        <time>2016-12-14T17:00:08Z</time>
      </trkpt>
      <trkpt lat="43.57483" lon="1.46758">
        <ele>132.8</ele>
        <time>2016-12-14T17:00:12Z</time>
      </trkpt>
      <trkpt lat="43.57481" lon="1.46753">
        <ele>132.8</ele>
        <time>2016-12-14T17:00:13Z</time>
      </trkpt>
      <trkpt lat="43.57479" lon="1.46749">
        <ele>132.8</ele>
        <time>2016-12-14T17:00:14Z</time>
      </trkpt>
      <trkpt lat="43.57454" lon="1.46715">
        <ele>133.76</ele>
        <time>2016-12-14T17:00:23Z</time>
      </trkpt>
      <trkpt lat="43.57455" lon="1.46712">
        <ele>133.76</ele>
        <time>2016-12-14T17:00:24Z</time>
      </trkpt>
      <trkpt lat="43.57456" lon="1.46709">
        <ele>135.2</ele>
        <time>2016-12-14T17:00:25Z</time>
      </trkpt>
      <trkpt lat="43.57458" lon="1.46708">
        <ele>135.2</ele>
        <time>2016-12-14T17:00:26Z</time>
      </trkpt>
      <trkpt lat="43.5746" lon="1.46709">
        <ele>135.2</ele>
        <time>2016-12-14T17:00:27Z</time>
      </trkpt>
      <trkpt lat="43.57463" lon="1.46712">
        <ele>135.2</ele>
        <time>2016-12-14T17:00:28Z</time>
      </trkpt>
      <trkpt lat="43.57465" lon="1.46716">
        <ele>135.2</ele>
        <time>2016-12-14T17:00:29Z</time>
      </trkpt>
      <trkpt lat="43.57505" lon="1.46746">
        <ele>137.13</ele>
        <time>2016-12-14T17:00:43Z</time>
      </trkpt>
      <trkpt lat="43.5754" lon="1.46775">
        <ele>138.09</ele>
        <time>2016-12-14T17:00:55Z</time>
      </trkpt>
      <trkpt lat="43.57561" lon="1.46792">
        <ele>138.09</ele>
        <time>2016-12-14T17:01:00Z</time>
      </trkpt>
      <trkpt lat="43.57566" lon="1.46796">
        <ele>138.09</ele>
        <time>2016-12-14T17:01:01Z</time>
      </trkpt>
      <trkpt lat="43.5757" lon="1.46802">
        <ele>138.09</ele>
        <time>2016-12-14T17:01:02Z</time>
      </trkpt>
      <trkpt lat="43.57573" lon="1.46808">
        <ele>138.09</ele>
        <time>2016-12-14T17:01:03Z</time>
      </trkpt>
      <trkpt lat="43.57576" lon="1.46816">
        <ele>138.09</ele>
        <time>2016-12-14T17:01:04Z</time>
      </trkpt>
      <trkpt lat="43.57578" lon="1.46823">
        <ele>138.09</ele>
        <time>2016-12-14T17:01:05Z</time>
      </trkpt>
      <trkpt lat="43.57579" lon="1.46832">
        <ele>138.09</ele>
        <time>2016-12-14T17:01:06Z</time>
      </trkpt>
      <trkpt lat="43.5758" lon="1.4684">
        <ele>138.09</ele>
        <time>2016-12-14T17:01:07Z</time>
      </trkpt>
      <trkpt lat="43.57581" lon="1.46849">
        <ele>138.09</ele>
        <time>2016-12-14T17:01:08Z</time>
      </trkpt>
      <trkpt lat="43.57582" lon="1.46858">
        <ele>138.09</ele>
        <time>2016-12-14T17:01:09Z</time>
      </trkpt>
      <trkpt lat="43.57585" lon="1.46866">
        <ele>137.13</ele>
        <time>2016-12-14T17:01:10Z</time>
      </trkpt>
      <trkpt lat="43.57588" lon="1.46875">
        <ele>137.13</ele>
        <time>2016-12-14T17:01:11Z</time>
      </trkpt>
      <trkpt lat="43.57591" lon="1.46883">
        <ele>137.13</ele>
        <time>2016-12-14T17:01:12Z</time>
      </trkpt>
      <trkpt lat="43.57596" lon="1.4689">
        <ele>137.13</ele>
        <time>2016-12-14T17:01:13Z</time>
      </trkpt>
      <trkpt lat="43.57601" lon="1.46898">
        <ele>136.16</ele>
        <time>2016-12-14T17:01:14Z</time>
      </trkpt>
      <trkpt lat="43.57641" lon="1.46959">
        <ele>132.8</ele>
        <time>2016-12-14T17:01:23Z</time>
      </trkpt>
      <trkpt lat="43.57668" lon="1.47">
        <ele>131.84</ele>
        <time>2016-12-14T17:01:34Z</time>
      </trkpt>
      <trkpt lat="43.57677" lon="1.47012">
        <ele>131.84</ele>
        <time>2016-12-14T17:01:39Z</time>
      </trkpt>
      <trkpt lat="43.57679" lon="1.47014">
        <ele>131.84</ele>
        <time>2016-12-14T17:01:40Z</time>
      </trkpt>
      <trkpt lat="43.5768" lon="1.47017">
        <ele>131.84</ele>
        <time>2016-12-14T17:01:41Z</time>
      </trkpt>
      <trkpt lat="43.57682" lon="1.4702">
        <ele>131.84</ele>
        <time>2016-12-14T17:01:42Z</time>
      </trkpt>
      <trkpt lat="43.57685" lon="1.47023">
        <ele>131.84</ele>
        <time>2016-12-14T17:01:43Z</time>
      </trkpt>
      <trkpt lat="43.57687" lon="1.47026">
        <ele>131.84</ele>
        <time>2016-12-14T17:01:44Z</time>
      </trkpt>
      <trkpt lat="43.57689" lon="1.47029">
        <ele>131.84</ele>
        <time>2016-12-14T17:01:45Z</time>
      </trkpt>
      <trkpt lat="43.5773" lon="1.47076">
        <ele>132.8</ele>
        <time>2016-12-14T17:01:59Z</time>
      </trkpt>
      <trkpt lat="43.57781" lon="1.47117">
        <ele>132.8</ele>
        <time>2016-12-14T17:02:12Z</time>
      </trkpt>
      <trkpt lat="43.57793" lon="1.47127">
        <ele>132.8</ele>
        <time>2016-12-14T17:02:15Z</time>
      </trkpt>
      <trkpt lat="43.57797" lon="1.47131">
        <ele>132.8</ele>
        <time>2016-12-14T17:02:16Z</time>
      </trkpt>
      <trkpt lat="43.57809" lon="1.47149">
        <ele>132.8</ele>
        <time>2016-12-14T17:02:20Z</time>
      </trkpt>
      <trkpt lat="43.57863" lon="1.47217">
        <ele>132.8</ele>
        <time>2016-12-14T17:02:32Z</time>
      </trkpt>
      <trkpt lat="43.57901" lon="1.47269">
        <ele>129.92</ele>
        <time>2016-12-14T17:02:44Z</time>
      </trkpt>
      <trkpt lat="43.57926" lon="1.47308">
        <ele>132.8</ele>
        <time>2016-12-14T17:02:56Z</time>
      </trkpt>
      <trkpt lat="43.57934" lon="1.4732">
        <ele>133.76</ele>
        <time>2016-12-14T17:03:01Z</time>
      </trkpt>
      <trkpt lat="43.57935" lon="1.47322">
        <ele>135.2</ele>
        <time>2016-12-14T17:03:02Z</time>
      </trkpt>
      <trkpt lat="43.57948" lon="1.47329">
        <ele>137.13</ele>
        <time>2016-12-14T17:03:12Z</time>
      </trkpt>
      <trkpt lat="43.57951" lon="1.47329">
        <ele>137.13</ele>
        <time>2016-12-14T17:03:13Z</time>
      </trkpt>
      <trkpt lat="43.57952" lon="1.47329">
        <ele>137.13</ele>
        <time>2016-12-14T17:03:14Z</time>
      </trkpt>
      <trkpt lat="43.57953" lon="1.47328">
        <ele>137.13</ele>
        <time>2016-12-14T17:03:15Z</time>
      </trkpt>
      <trkpt lat="43.57954" lon="1.47328">
        <ele>137.13</ele>
        <time>2016-12-14T17:03:16Z</time>
      </trkpt>
      <trkpt lat="43.57956" lon="1.47326">
        <ele>137.13</ele>
        <time>2016-12-14T17:03:17Z</time>
      </trkpt>
      <trkpt lat="43.57958" lon="1.47324">
        <ele>137.13</ele>
        <time>2016-12-14T17:03:18Z</time>
      </trkpt>
      <trkpt lat="43.57959" lon="1.47321">
        <ele>137.13</ele>
        <time>2016-12-14T17:03:19Z</time>
      </trkpt>
      <trkpt lat="43.5796" lon="1.47317">
        <ele>137.13</ele>
        <time>2016-12-14T17:03:20Z</time>
      </trkpt>
      <trkpt lat="43.57961" lon="1.47311">
        <ele>137.13</ele>
        <time>2016-12-14T17:03:21Z</time>
      </trkpt>
      <trkpt lat="43.57963" lon="1.47306">
        <ele>137.13</ele>
        <time>2016-12-14T17:03:22Z</time>
      </trkpt>
      <trkpt lat="43.57966" lon="1.47302">
        <ele>137.13</ele>
        <time>2016-12-14T17:03:23Z</time>
      </trkpt>
      <trkpt lat="43.5797" lon="1.47299">
        <ele>137.13</ele>
        <time>2016-12-14T17:03:24Z</time>
      </trkpt>
      <trkpt lat="43.57974" lon="1.47298">
        <ele>137.13</ele>
        <time>2016-12-14T17:03:25Z</time>
      </trkpt>
      <trkpt lat="43.57978" lon="1.47298">
        <ele>137.13</ele>
        <time>2016-12-14T17:03:26Z</time>
      </trkpt>
      <trkpt lat="43.57981" lon="1.47301">
        <ele>137.13</ele>
        <time>2016-12-14T17:03:27Z</time>
      </trkpt>
      <trkpt lat="43.57984" lon="1.47305">
        <ele>137.13</ele>
        <time>2016-12-14T17:03:28Z</time>
      </trkpt>
      <trkpt lat="43.58022" lon="1.47345">
        <ele>137.13</ele>
        <time>2016-12-14T17:03:42Z</time>
      </trkpt>
      <trkpt lat="43.58063" lon="1.47387">
        <ele>138.09</ele>
        <time>2016-12-14T17:03:55Z</time>
      </trkpt>
      <trkpt lat="43.58068" lon="1.4739">
        <ele>138.09</ele>
        <time>2016-12-14T17:03:56Z</time>
      </trkpt>
      <trkpt lat="43.58111" lon="1.47433">
        <ele>139.05</ele>
        <time>2016-12-14T17:04:10Z</time>
      </trkpt>
      <trkpt lat="43.58151" lon="1.47477">
        <ele>140.97</ele>
        <time>2016-12-14T17:04:24Z</time>
      </trkpt>
      <trkpt lat="43.58183" lon="1.47501">
        <ele>141.93</ele>
        <time>2016-12-14T17:04:36Z</time>
      </trkpt>
      <trkpt lat="43.58182" lon="1.47501">
        <ele>142.89</ele>
        <time>2016-12-14T17:04:39Z</time>
      </trkpt>
      <trkpt lat="43.58193" lon="1.47493">
        <ele>143.85</ele>
        <time>2016-12-14T17:04:52Z</time>
      </trkpt>
      <trkpt lat="43.58195" lon="1.47489">
        <ele>143.85</ele>
        <time>2016-12-14T17:04:53Z</time>
      </trkpt>
      <trkpt lat="43.58196" lon="1.47485">
        <ele>143.85</ele>
        <time>2016-12-14T17:04:54Z</time>
      </trkpt>
      <trkpt lat="43.58198" lon="1.4748">
        <ele>143.85</ele>
        <time>2016-12-14T17:04:55Z</time>
      </trkpt>
      <trkpt lat="43.58207" lon="1.47462">
        <ele>142.89</ele>
        <time>2016-12-14T17:05:00Z</time>
      </trkpt>
      <trkpt lat="43.5821" lon="1.47463">
        <ele>142.89</ele>
        <time>2016-12-14T17:05:01Z</time>
      </trkpt>
      <trkpt lat="43.58214" lon="1.47465">
        <ele>142.89</ele>
        <time>2016-12-14T17:05:02Z</time>
      </trkpt>
      <trkpt lat="43.58218" lon="1.47467">
        <ele>142.89</ele>
        <time>2016-12-14T17:05:03Z</time>
      </trkpt>
      <trkpt lat="43.58222" lon="1.4747">
        <ele>142.89</ele>
        <time>2016-12-14T17:05:04Z</time>
      </trkpt>
      <trkpt lat="43.58235" lon="1.47477">
        <ele>142.89</ele>
        <time>2016-12-14T17:05:08Z</time>
      </trkpt>
      <trkpt lat="43.58246" lon="1.47481">
        <ele>142.89</ele>
        <time>2016-12-14T17:05:11Z</time>
      </trkpt>
      <trkpt lat="43.58289" lon="1.47501">
        <ele>143.85</ele>
        <time>2016-12-14T17:05:24Z</time>
      </trkpt>
      <trkpt lat="43.58335" lon="1.47523">
        <ele>145.78</ele>
        <time>2016-12-14T17:05:38Z</time>
      </trkpt>
      <trkpt lat="43.58373" lon="1.47538">
        <ele>147.22</ele>
        <time>2016-12-14T17:05:49Z</time>
      </trkpt>
      <trkpt lat="43.58376" lon="1.47541">
        <ele>147.22</ele>
        <time>2016-12-14T17:05:50Z</time>
      </trkpt>
      <trkpt lat="43.58415" lon="1.47577">
        <ele>148.18</ele>
        <time>2016-12-14T17:06:03Z</time>
      </trkpt>
      <trkpt lat="43.58455" lon="1.4762">
        <ele>150.1</ele>
        <time>2016-12-14T17:06:17Z</time>
      </trkpt>
      <trkpt lat="43.58481" lon="1.47653">
        <ele>151.06</ele>
        <time>2016-12-14T17:06:32Z</time>
      </trkpt>
      <trkpt lat="43.58485" lon="1.47654">
        <ele>152.03</ele>
        <time>2016-12-14T17:06:40Z</time>
      </trkpt>
      <trkpt lat="43.5849" lon="1.47656">
        <ele>152.03</ele>
        <time>2016-12-14T17:06:44Z</time>
      </trkpt>
      <trkpt lat="43.58492" lon="1.47654">
        <ele>152.03</ele>
        <time>2016-12-14T17:06:45Z</time>
      </trkpt>
      <trkpt lat="43.58494" lon="1.47652">
        <ele>152.03</ele>
        <time>2016-12-14T17:06:46Z</time>
      </trkpt>
      <trkpt lat="43.58496" lon="1.47649">
        <ele>152.03</ele>
        <time>2016-12-14T17:06:47Z</time>
      </trkpt>
      <trkpt lat="43.58498" lon="1.47646">
        <ele>152.03</ele>
        <time>2016-12-14T17:06:48Z</time>
      </trkpt>
      <trkpt lat="43.58521" lon="1.47609">
        <ele>152.03</ele>
        <time>2016-12-14T17:06:57Z</time>
      </trkpt>
      <trkpt lat="43.58527" lon="1.47599">
        <ele>152.03</ele>
        <time>2016-12-14T17:06:59Z</time>
      </trkpt>
      <trkpt lat="43.58577" lon="1.47543">
        <ele>152.03</ele>
        <time>2016-12-14T17:07:13Z</time>
      </trkpt>
      <trkpt lat="43.58583" lon="1.47535">
        <ele>152.03</ele>
        <time>2016-12-14T17:07:15Z</time>
      </trkpt>
      <trkpt lat="43.58594" lon="1.47523">
        <ele>152.03</ele>
        <time>2016-12-14T17:07:18Z</time>
      </trkpt>
      <trkpt lat="43.58634" lon="1.47486">
        <ele>152.03</ele>
        <time>2016-12-14T17:07:28Z</time>
      </trkpt>
      <trkpt lat="43.58638" lon="1.47483">
        <ele>152.03</ele>
        <time>2016-12-14T17:07:29Z</time>
      </trkpt>
      <trkpt lat="43.58642" lon="1.47483">
        <ele>152.03</ele>
        <time>2016-12-14T17:07:30Z</time>
      </trkpt>
      <trkpt lat="43.58646" lon="1.47485">
        <ele>152.03</ele>
        <time>2016-12-14T17:07:31Z</time>
      </trkpt>
      <trkpt lat="43.58649" lon="1.47487">
        <ele>152.99</ele>
        <time>2016-12-14T17:07:32Z</time>
      </trkpt>
      <trkpt lat="43.58651" lon="1.47489">
        <ele>152.99</ele>
        <time>2016-12-14T17:07:33Z</time>
      </trkpt>
      <trkpt lat="43.58654" lon="1.47493">
        <ele>152.99</ele>
        <time>2016-12-14T17:07:35Z</time>
      </trkpt>
      <trkpt lat="43.58658" lon="1.47496">
        <ele>152.99</ele>
        <time>2016-12-14T17:07:38Z</time>
      </trkpt>
      <trkpt lat="43.58677" lon="1.47513">
        <ele>154.91</ele>
        <time>2016-12-14T17:07:50Z</time>
      </trkpt>
      <trkpt lat="43.58698" lon="1.47529">
        <ele>155.87</ele>
        <time>2016-12-14T17:08:01Z</time>
      </trkpt>
      <trkpt lat="43.58725" lon="1.47554">
        <ele>159.24</ele>
        <time>2016-12-14T17:08:17Z</time>
      </trkpt>
      <trkpt lat="43.58747" lon="1.47575">
        <ele>161.16</ele>
        <time>2016-12-14T17:08:30Z</time>
      </trkpt>
      <trkpt lat="43.58775" lon="1.47607">
        <ele>164.04</ele>
        <time>2016-12-14T17:08:46Z</time>
      </trkpt>
      <trkpt lat="43.58804" lon="1.47633">
        <ele>165.96</ele>
        <time>2016-12-14T17:08:59Z</time>
      </trkpt>
      <trkpt lat="43.58832" lon="1.47644">
        <ele>167.89</ele>
        <time>2016-12-14T17:09:11Z</time>
      </trkpt>
      <trkpt lat="43.58869" lon="1.47645">
        <ele>168.85</ele>
        <time>2016-12-14T17:09:22Z</time>
      </trkpt>
      <trkpt lat="43.58917" lon="1.4766">
        <ele>168.85</ele>
        <time>2016-12-14T17:09:36Z</time>
      </trkpt>
      <trkpt lat="43.58958" lon="1.47677">
        <ele>169.81</ele>
        <time>2016-12-14T17:09:49Z</time>
      </trkpt>
      <trkpt lat="43.58961" lon="1.47689">
        <ele>168.85</ele>
        <time>2016-12-14T17:09:59Z</time>
      </trkpt>
      <trkpt lat="43.58961" lon="1.47689">
        <ele>169.81</ele>
        <time>2016-12-14T17:10:00Z</time>
      </trkpt>
    </trkseg>
  </trk>
</gpx>